<?xml version='1.0' encoding='UTF-8'?>
<gpx version="1.1" creator="https://www.komoot.de" xmlns="http://www.topografix.com/GPX/1/1" xmlns:xsi="http://www.w3.org/2001/XMLSchema-instance" xsi:schemaLocation="http://www.topografix.com/GPX/1/1 http://www.topografix.com/GPX/1/1/gpx.xsd">
  <metadata>
    <name>70_950MurgHottHogschuer</name>
    <author>
      <link href="https://www.komoot.de">
        <text>komoot</text>
        <type>text/html</type>
      </link>
    </author>
  </metadata>
  <trk>
    <name>70_950MurgHottHogschuer</name>
    <trkseg>
      <trkpt lat="47.541264" lon="7.870912">
        <ele>340.772225</ele>
        <time>2021-11-20T16:30:05.581Z</time>
      </trkpt>
      <trkpt lat="47.541410" lon="7.870791">
        <ele>340.772225</ele>
        <time>2021-11-20T16:30:08.083Z</time>
      </trkpt>
      <trkpt lat="47.541576" lon="7.870664">
        <ele>340.772225</ele>
        <time>2021-11-20T16:30:12.226Z</time>
      </trkpt>
      <trkpt lat="47.541796" lon="7.871042">
        <ele>340.772225</ele>
        <time>2021-11-20T16:30:19.329Z</time>
      </trkpt>
      <trkpt lat="47.541953" lon="7.871286">
        <ele>340.841367</ele>
        <time>2021-11-20T16:30:24.151Z</time>
      </trkpt>
      <trkpt lat="47.542039" lon="7.871556">
        <ele>341.564424</ele>
        <time>2021-11-20T16:30:28.522Z</time>
      </trkpt>
      <trkpt lat="47.542067" lon="7.871664">
        <ele>341.844619</ele>
        <time>2021-11-20T16:30:30.188Z</time>
      </trkpt>
      <trkpt lat="47.542091" lon="7.871721">
        <ele>342.007321</ele>
        <time>2021-11-20T16:30:30.797Z</time>
      </trkpt>
      <trkpt lat="47.542218" lon="7.871866">
        <ele>342.582594</ele>
        <time>2021-11-20T16:30:35.905Z</time>
      </trkpt>
      <trkpt lat="47.542394" lon="7.872341">
        <ele>343.894904</ele>
        <time>2021-11-20T16:30:45.957Z</time>
      </trkpt>
      <trkpt lat="47.542436" lon="7.872494">
        <ele>344.294922</ele>
        <time>2021-11-20T16:30:49.348Z</time>
      </trkpt>
      <trkpt lat="47.542537" lon="7.872430">
        <ele>344.689046</ele>
        <time>2021-11-20T16:30:51.461Z</time>
      </trkpt>
      <trkpt lat="47.542714" lon="7.872334">
        <ele>345.365305</ele>
        <time>2021-11-20T16:30:58.417Z</time>
      </trkpt>
      <trkpt lat="47.542814" lon="7.872280">
        <ele>345.747174</ele>
        <time>2021-11-20T16:31:01.431Z</time>
      </trkpt>
      <trkpt lat="47.542919" lon="7.872226">
        <ele>346.145946</ele>
        <time>2021-11-20T16:31:05.270Z</time>
      </trkpt>
      <trkpt lat="47.543013" lon="7.872182">
        <ele>346.499631</ele>
        <time>2021-11-20T16:31:08.776Z</time>
      </trkpt>
      <trkpt lat="47.543233" lon="7.872082">
        <ele>347.400393</ele>
        <time>2021-11-20T16:31:16.015Z</time>
      </trkpt>
      <trkpt lat="47.543251" lon="7.872152">
        <ele>347.718216</ele>
        <time>2021-11-20T16:31:19.388Z</time>
      </trkpt>
      <trkpt lat="47.543332" lon="7.872237">
        <ele>348.342135</ele>
        <time>2021-11-20T16:31:22.693Z</time>
      </trkpt>
      <trkpt lat="47.544390" lon="7.872423">
        <ele>355.038843</ele>
        <time>2021-11-20T16:32:04.413Z</time>
      </trkpt>
      <trkpt lat="47.544883" lon="7.872555">
        <ele>358.187792</ele>
        <time>2021-11-20T16:32:26.822Z</time>
      </trkpt>
      <trkpt lat="47.545131" lon="7.872664">
        <ele>359.890873</ele>
        <time>2021-11-20T16:32:37.826Z</time>
      </trkpt>
      <trkpt lat="47.545375" lon="7.872836">
        <ele>361.691391</ele>
        <time>2021-11-20T16:32:48.767Z</time>
      </trkpt>
      <trkpt lat="47.545478" lon="7.872968">
        <ele>362.598873</ele>
        <time>2021-11-20T16:32:55.574Z</time>
      </trkpt>
      <trkpt lat="47.545515" lon="7.873015">
        <ele>362.923636</ele>
        <time>2021-11-20T16:32:57.531Z</time>
      </trkpt>
      <trkpt lat="47.545746" lon="7.873302">
        <ele>364.932496</ele>
        <time>2021-11-20T16:33:10.731Z</time>
      </trkpt>
      <trkpt lat="47.545934" lon="7.873549">
        <ele>366.606847</ele>
        <time>2021-11-20T16:33:20.831Z</time>
      </trkpt>
      <trkpt lat="47.546077" lon="7.873763">
        <ele>367.961232</ele>
        <time>2021-11-20T16:33:30.027Z</time>
      </trkpt>
      <trkpt lat="47.546135" lon="7.873859">
        <ele>368.540710</ele>
        <time>2021-11-20T16:33:33.266Z</time>
      </trkpt>
      <trkpt lat="47.546309" lon="7.874154">
        <ele>370.302726</ele>
        <time>2021-11-20T16:33:44.381Z</time>
      </trkpt>
      <trkpt lat="47.547126" lon="7.875801">
        <ele>375.992428</ele>
        <time>2021-11-20T16:34:30.142Z</time>
      </trkpt>
      <trkpt lat="47.547574" lon="7.876801">
        <ele>377.655862</ele>
        <time>2021-11-20T16:34:49.138Z</time>
      </trkpt>
      <trkpt lat="47.547992" lon="7.877974">
        <ele>377.234049</ele>
        <time>2021-11-20T16:35:01.938Z</time>
      </trkpt>
      <trkpt lat="47.548234" lon="7.878638">
        <ele>376.994080</ele>
        <time>2021-11-20T16:35:07.250Z</time>
      </trkpt>
      <trkpt lat="47.548422" lon="7.878959">
        <ele>375.955833</ele>
        <time>2021-11-20T16:35:10.093Z</time>
      </trkpt>
      <trkpt lat="47.548718" lon="7.879258">
        <ele>374.503349</ele>
        <time>2021-11-20T16:35:13.632Z</time>
      </trkpt>
      <trkpt lat="47.549140" lon="7.879391">
        <ele>372.754128</ele>
        <time>2021-11-20T16:35:17.818Z</time>
      </trkpt>
      <trkpt lat="47.549318" lon="7.879398">
        <ele>372.032199</ele>
        <time>2021-11-20T16:35:19.445Z</time>
      </trkpt>
      <trkpt lat="47.549327" lon="7.879547">
        <ele>371.622830</ele>
        <time>2021-11-20T16:35:20.432Z</time>
      </trkpt>
      <trkpt lat="47.549726" lon="7.880786">
        <ele>368.034833</ele>
        <time>2021-11-20T16:35:29.366Z</time>
      </trkpt>
      <trkpt lat="47.549927" lon="7.881490">
        <ele>366.137020</ele>
        <time>2021-11-20T16:35:34.398Z</time>
      </trkpt>
      <trkpt lat="47.550234" lon="7.883221">
        <ele>361.508386</ele>
        <time>2021-11-20T16:35:46.799Z</time>
      </trkpt>
      <trkpt lat="47.550332" lon="7.884727">
        <ele>357.246604</ele>
        <time>2021-11-20T16:35:56.643Z</time>
      </trkpt>
      <trkpt lat="47.550391" lon="7.885109">
        <ele>356.142772</ele>
        <time>2021-11-20T16:35:59.176Z</time>
      </trkpt>
      <trkpt lat="47.550548" lon="7.885799">
        <ele>353.594082</ele>
        <time>2021-11-20T16:36:03.780Z</time>
      </trkpt>
      <trkpt lat="47.550677" lon="7.886476">
        <ele>350.942232</ele>
        <time>2021-11-20T16:36:08.210Z</time>
      </trkpt>
      <trkpt lat="47.550758" lon="7.887295">
        <ele>347.821875</ele>
        <time>2021-11-20T16:36:13.353Z</time>
      </trkpt>
      <trkpt lat="47.550789" lon="7.887816">
        <ele>345.850244</ele>
        <time>2021-11-20T16:36:16.584Z</time>
      </trkpt>
      <trkpt lat="47.550831" lon="7.888611">
        <ele>342.515969</ele>
        <time>2021-11-20T16:36:21.540Z</time>
      </trkpt>
      <trkpt lat="47.550833" lon="7.889069">
        <ele>340.577389</ele>
        <time>2021-11-20T16:36:24.350Z</time>
      </trkpt>
      <trkpt lat="47.550915" lon="7.890600">
        <ele>334.123752</ele>
        <time>2021-11-20T16:36:33.743Z</time>
      </trkpt>
      <trkpt lat="47.550904" lon="7.891725">
        <ele>330.753606</ele>
        <time>2021-11-20T16:36:40.747Z</time>
      </trkpt>
      <trkpt lat="47.550892" lon="7.893176">
        <ele>326.406995</ele>
        <time>2021-11-20T16:36:50.359Z</time>
      </trkpt>
      <trkpt lat="47.550908" lon="7.894308">
        <ele>325.276980</ele>
        <time>2021-11-20T16:36:59.564Z</time>
      </trkpt>
      <trkpt lat="47.550878" lon="7.895158">
        <ele>324.507363</ele>
        <time>2021-11-20T16:37:06.749Z</time>
      </trkpt>
      <trkpt lat="47.550838" lon="7.895509">
        <ele>324.185498</ele>
        <time>2021-11-20T16:37:09.913Z</time>
      </trkpt>
      <trkpt lat="47.550660" lon="7.896255">
        <ele>323.147527</ele>
        <time>2021-11-20T16:37:16.402Z</time>
      </trkpt>
      <trkpt lat="47.550639" lon="7.896345">
        <ele>322.987398</ele>
        <time>2021-11-20T16:37:17.589Z</time>
      </trkpt>
      <trkpt lat="47.550648" lon="7.896481">
        <ele>322.757610</ele>
        <time>2021-11-20T16:37:18.544Z</time>
      </trkpt>
      <trkpt lat="47.550819" lon="7.898109">
        <ele>319.987088</ele>
        <time>2021-11-20T16:37:30.292Z</time>
      </trkpt>
      <trkpt lat="47.550801" lon="7.900244">
        <ele>314.310337</ele>
        <time>2021-11-20T16:37:44.129Z</time>
      </trkpt>
      <trkpt lat="47.550769" lon="7.901362">
        <ele>311.188841</ele>
        <time>2021-11-20T16:37:51.401Z</time>
      </trkpt>
      <trkpt lat="47.550757" lon="7.901591">
        <ele>310.618390</ele>
        <time>2021-11-20T16:37:53.537Z</time>
      </trkpt>
      <trkpt lat="47.550688" lon="7.902451">
        <ele>308.467473</ele>
        <time>2021-11-20T16:38:01.971Z</time>
      </trkpt>
      <trkpt lat="47.550498" lon="7.903445">
        <ele>305.901697</ele>
        <time>2021-11-20T16:38:12.222Z</time>
      </trkpt>
      <trkpt lat="47.550302" lon="7.904164">
        <ele>303.954104</ele>
        <time>2021-11-20T16:38:19.481Z</time>
      </trkpt>
      <trkpt lat="47.550025" lon="7.904774">
        <ele>302.093243</ele>
        <time>2021-11-20T16:38:26.406Z</time>
      </trkpt>
      <trkpt lat="47.549868" lon="7.905010">
        <ele>301.254530</ele>
        <time>2021-11-20T16:38:29.538Z</time>
      </trkpt>
      <trkpt lat="47.549867" lon="7.905155">
        <ele>300.887504</ele>
        <time>2021-11-20T16:38:30.935Z</time>
      </trkpt>
      <trkpt lat="47.550067" lon="7.905245">
        <ele>300.103666</ele>
        <time>2021-11-20T16:38:33.860Z</time>
      </trkpt>
      <trkpt lat="47.550283" lon="7.905413">
        <ele>299.188831</ele>
        <time>2021-11-20T16:38:37.310Z</time>
      </trkpt>
      <trkpt lat="47.550497" lon="7.905558">
        <ele>298.327586</ele>
        <time>2021-11-20T16:38:40.668Z</time>
      </trkpt>
      <trkpt lat="47.549539" lon="7.908625">
        <ele>293.185334</ele>
        <time>2021-11-20T16:39:05.112Z</time>
      </trkpt>
      <trkpt lat="47.549520" lon="7.908678">
        <ele>293.125587</ele>
        <time>2021-11-20T16:39:05.615Z</time>
      </trkpt>
      <trkpt lat="47.549308" lon="7.909381">
        <ele>292.359013</ele>
        <time>2021-11-20T16:39:11.882Z</time>
      </trkpt>
      <trkpt lat="47.549195" lon="7.909756">
        <ele>291.950152</ele>
        <time>2021-11-20T16:39:15.257Z</time>
      </trkpt>
      <trkpt lat="47.549102" lon="7.910058">
        <ele>291.619670</ele>
        <time>2021-11-20T16:39:17.953Z</time>
      </trkpt>
      <trkpt lat="47.549012" lon="7.910340">
        <ele>291.309110</ele>
        <time>2021-11-20T16:39:20.472Z</time>
      </trkpt>
      <trkpt lat="47.548412" lon="7.912168">
        <ele>289.775315</ele>
        <time>2021-11-20T16:39:36.799Z</time>
      </trkpt>
      <trkpt lat="47.548027" lon="7.913334">
        <ele>289.096012</ele>
        <time>2021-11-20T16:39:47.559Z</time>
      </trkpt>
      <trkpt lat="47.547994" lon="7.913433">
        <ele>289.065144</ele>
        <time>2021-11-20T16:39:48.480Z</time>
      </trkpt>
      <trkpt lat="47.547423" lon="7.915080">
        <ele>288.547517</ele>
        <time>2021-11-20T16:40:05.957Z</time>
      </trkpt>
      <trkpt lat="47.547113" lon="7.915971">
        <ele>288.768217</ele>
        <time>2021-11-20T16:40:16.404Z</time>
      </trkpt>
      <trkpt lat="47.547091" lon="7.916039">
        <ele>288.787997</ele>
        <time>2021-11-20T16:40:17.428Z</time>
      </trkpt>
      <trkpt lat="47.547032" lon="7.916218">
        <ele>288.840247</ele>
        <time>2021-11-20T16:40:19.631Z</time>
      </trkpt>
      <trkpt lat="47.546821" lon="7.916867">
        <ele>289.029195</ele>
        <time>2021-11-20T16:40:27.740Z</time>
      </trkpt>
      <trkpt lat="47.546262" lon="7.919081">
        <ele>289.671572</ele>
        <time>2021-11-20T16:40:55.252Z</time>
      </trkpt>
      <trkpt lat="47.546128" lon="7.919617">
        <ele>289.829391</ele>
        <time>2021-11-20T16:41:00.720Z</time>
      </trkpt>
      <trkpt lat="47.545973" lon="7.920313">
        <ele>290.150951</ele>
        <time>2021-11-20T16:41:09.183Z</time>
      </trkpt>
      <trkpt lat="47.545913" lon="7.920765">
        <ele>290.490679</ele>
        <time>2021-11-20T16:41:13.357Z</time>
      </trkpt>
      <trkpt lat="47.545881" lon="7.921096">
        <ele>290.737279</ele>
        <time>2021-11-20T16:41:17.373Z</time>
      </trkpt>
      <trkpt lat="47.545810" lon="7.921755">
        <ele>291.229435</ele>
        <time>2021-11-20T16:41:26.282Z</time>
      </trkpt>
      <trkpt lat="47.545778" lon="7.921947">
        <ele>291.375285</ele>
        <time>2021-11-20T16:41:29.891Z</time>
      </trkpt>
      <trkpt lat="47.545714" lon="7.922249">
        <ele>291.608725</ele>
        <time>2021-11-20T16:41:33.089Z</time>
      </trkpt>
      <trkpt lat="47.545699" lon="7.922325">
        <ele>291.667121</ele>
        <time>2021-11-20T16:41:34.287Z</time>
      </trkpt>
      <trkpt lat="47.545690" lon="7.922369">
        <ele>291.701028</ele>
        <time>2021-11-20T16:41:36.385Z</time>
      </trkpt>
      <trkpt lat="47.545641" lon="7.922610">
        <ele>291.886651</ele>
        <time>2021-11-20T16:41:38.739Z</time>
      </trkpt>
      <trkpt lat="47.545587" lon="7.922895">
        <ele>292.480692</ele>
        <time>2021-11-20T16:41:44.535Z</time>
      </trkpt>
      <trkpt lat="47.545553" lon="7.923142">
        <ele>293.055987</ele>
        <time>2021-11-20T16:41:47.182Z</time>
      </trkpt>
      <trkpt lat="47.545536" lon="7.923407">
        <ele>293.663485</ele>
        <time>2021-11-20T16:41:53.072Z</time>
      </trkpt>
      <trkpt lat="47.545521" lon="7.923709">
        <ele>294.354561</ele>
        <time>2021-11-20T16:41:57.225Z</time>
      </trkpt>
      <trkpt lat="47.545481" lon="7.924396">
        <ele>295.928229</ele>
        <time>2021-11-20T16:42:11.828Z</time>
      </trkpt>
      <trkpt lat="47.545466" lon="7.924880">
        <ele>297.033960</ele>
        <time>2021-11-20T16:42:23.135Z</time>
      </trkpt>
      <trkpt lat="47.545446" lon="7.925350">
        <ele>298.086287</ele>
        <time>2021-11-20T16:42:33.510Z</time>
      </trkpt>
      <trkpt lat="47.545417" lon="7.925848">
        <ele>298.976288</ele>
        <time>2021-11-20T16:42:43.989Z</time>
      </trkpt>
      <trkpt lat="47.545409" lon="7.926773">
        <ele>300.623419</ele>
        <time>2021-11-20T16:43:01.190Z</time>
      </trkpt>
      <trkpt lat="47.545407" lon="7.927001">
        <ele>301.029416</ele>
        <time>2021-11-20T16:43:04.999Z</time>
      </trkpt>
      <trkpt lat="47.545406" lon="7.927306">
        <ele>301.572486</ele>
        <time>2021-11-20T16:43:09.603Z</time>
      </trkpt>
      <trkpt lat="47.545421" lon="7.927686">
        <ele>302.250246</ele>
        <time>2021-11-20T16:43:15.139Z</time>
      </trkpt>
      <trkpt lat="47.545475" lon="7.928419">
        <ele>302.405870</ele>
        <time>2021-11-20T16:43:24.456Z</time>
      </trkpt>
      <trkpt lat="47.545563" lon="7.929641">
        <ele>301.475250</ele>
        <time>2021-11-20T16:43:34.336Z</time>
      </trkpt>
      <trkpt lat="47.545661" lon="7.930955">
        <ele>300.399060</ele>
        <time>2021-11-20T16:43:43.732Z</time>
      </trkpt>
      <trkpt lat="47.545696" lon="7.931497">
        <ele>299.867295</ele>
        <time>2021-11-20T16:43:47.700Z</time>
      </trkpt>
      <trkpt lat="47.545721" lon="7.931992">
        <ele>299.382500</ele>
        <time>2021-11-20T16:43:51.493Z</time>
      </trkpt>
      <trkpt lat="47.545724" lon="7.932758">
        <ele>298.634369</ele>
        <time>2021-11-20T16:43:57.702Z</time>
      </trkpt>
      <trkpt lat="47.545702" lon="7.933290">
        <ele>298.139861</ele>
        <time>2021-11-20T16:44:02.345Z</time>
      </trkpt>
      <trkpt lat="47.545674" lon="7.933625">
        <ele>298.312034</ele>
        <time>2021-11-20T16:44:05.546Z</time>
      </trkpt>
      <trkpt lat="47.545457" lon="7.935110">
        <ele>299.087014</ele>
        <time>2021-11-20T16:44:23.681Z</time>
      </trkpt>
      <trkpt lat="47.545074" lon="7.936484">
        <ele>300.298072</ele>
        <time>2021-11-20T16:44:45.208Z</time>
      </trkpt>
      <trkpt lat="47.544903" lon="7.936917">
        <ele>300.880164</ele>
        <time>2021-11-20T16:44:52.524Z</time>
      </trkpt>
      <trkpt lat="47.544705" lon="7.937395">
        <ele>301.530906</ele>
        <time>2021-11-20T16:45:00.708Z</time>
      </trkpt>
      <trkpt lat="47.544472" lon="7.937932">
        <ele>302.271628</ele>
        <time>2021-11-20T16:45:10.116Z</time>
      </trkpt>
      <trkpt lat="47.543826" lon="7.939433">
        <ele>304.350541</ele>
        <time>2021-11-20T16:45:36.997Z</time>
      </trkpt>
      <trkpt lat="47.543435" lon="7.940670">
        <ele>305.802567</ele>
        <time>2021-11-20T16:45:56.958Z</time>
      </trkpt>
      <trkpt lat="47.543161" lon="7.942213">
        <ele>306.587800</ele>
        <time>2021-11-20T16:46:17.807Z</time>
      </trkpt>
      <trkpt lat="47.543007" lon="7.943867">
        <ele>306.170424</ele>
        <time>2021-11-20T16:46:33.351Z</time>
      </trkpt>
      <trkpt lat="47.542913" lon="7.945267">
        <ele>304.723114</ele>
        <time>2021-11-20T16:46:44.111Z</time>
      </trkpt>
      <trkpt lat="47.542872" lon="7.945781">
        <ele>304.141932</ele>
        <time>2021-11-20T16:46:47.707Z</time>
      </trkpt>
      <trkpt lat="47.542875" lon="7.946089">
        <ele>303.624090</ele>
        <time>2021-11-20T16:46:49.798Z</time>
      </trkpt>
      <trkpt lat="47.542902" lon="7.946514">
        <ele>302.906452</ele>
        <time>2021-11-20T16:46:52.677Z</time>
      </trkpt>
      <trkpt lat="47.542943" lon="7.946806">
        <ele>302.405055</ele>
        <time>2021-11-20T16:46:54.724Z</time>
      </trkpt>
      <trkpt lat="47.542974" lon="7.946965">
        <ele>302.126830</ele>
        <time>2021-11-20T16:46:55.934Z</time>
      </trkpt>
      <trkpt lat="47.542979" lon="7.946989">
        <ele>302.084605</ele>
        <time>2021-11-20T16:46:56.090Z</time>
      </trkpt>
      <trkpt lat="47.543007" lon="7.947104">
        <ele>301.879084</ele>
        <time>2021-11-20T16:46:56.938Z</time>
      </trkpt>
      <trkpt lat="47.543087" lon="7.947317">
        <ele>301.469310</ele>
        <time>2021-11-20T16:46:58.681Z</time>
      </trkpt>
      <trkpt lat="47.543191" lon="7.947615">
        <ele>300.905343</ele>
        <time>2021-11-20T16:47:01.122Z</time>
      </trkpt>
      <trkpt lat="47.543242" lon="7.947745">
        <ele>300.652570</ele>
        <time>2021-11-20T16:47:02.252Z</time>
      </trkpt>
      <trkpt lat="47.543273" lon="7.947816">
        <ele>300.510419</ele>
        <time>2021-11-20T16:47:02.879Z</time>
      </trkpt>
      <trkpt lat="47.543358" lon="7.947967">
        <ele>300.179889</ele>
        <time>2021-11-20T16:47:04.322Z</time>
      </trkpt>
      <trkpt lat="47.543455" lon="7.948127">
        <ele>299.818356</ele>
        <time>2021-11-20T16:47:05.989Z</time>
      </trkpt>
      <trkpt lat="47.543532" lon="7.948214">
        <ele>299.765542</ele>
        <time>2021-11-20T16:47:07.070Z</time>
      </trkpt>
      <trkpt lat="47.543579" lon="7.948287">
        <ele>299.747369</ele>
        <time>2021-11-20T16:47:07.833Z</time>
      </trkpt>
      <trkpt lat="47.543760" lon="7.948548">
        <ele>299.679960</ele>
        <time>2021-11-20T16:47:10.722Z</time>
      </trkpt>
      <trkpt lat="47.543864" lon="7.948694">
        <ele>299.641723</ele>
        <time>2021-11-20T16:47:12.394Z</time>
      </trkpt>
      <trkpt lat="47.544239" lon="7.949202">
        <ele>299.506113</ele>
        <time>2021-11-20T16:47:19.756Z</time>
      </trkpt>
      <trkpt lat="47.544521" lon="7.949558">
        <ele>299.407237</ele>
        <time>2021-11-20T16:47:25.929Z</time>
      </trkpt>
      <trkpt lat="47.544901" lon="7.950044">
        <ele>299.347129</ele>
        <time>2021-11-20T16:47:35.326Z</time>
      </trkpt>
      <trkpt lat="47.545166" lon="7.950366">
        <ele>299.449363</ele>
        <time>2021-11-20T16:47:41.875Z</time>
      </trkpt>
      <trkpt lat="47.545434" lon="7.950668">
        <ele>299.549803</ele>
        <time>2021-11-20T16:47:47.665Z</time>
      </trkpt>
      <trkpt lat="47.545542" lon="7.950842">
        <ele>299.597398</ele>
        <time>2021-11-20T16:47:50.091Z</time>
      </trkpt>
      <trkpt lat="47.545667" lon="7.950979">
        <ele>299.643779</ele>
        <time>2021-11-20T16:47:52.696Z</time>
      </trkpt>
      <trkpt lat="47.545737" lon="7.951055">
        <ele>299.669666</ele>
        <time>2021-11-20T16:47:53.950Z</time>
      </trkpt>
      <trkpt lat="47.545876" lon="7.951233">
        <ele>299.724471</ele>
        <time>2021-11-20T16:47:56.343Z</time>
      </trkpt>
      <trkpt lat="47.546112" lon="7.951485">
        <ele>299.811247</ele>
        <time>2021-11-20T16:48:00.886Z</time>
      </trkpt>
      <trkpt lat="47.546164" lon="7.951520">
        <ele>299.828284</ele>
        <time>2021-11-20T16:48:01.520Z</time>
      </trkpt>
      <trkpt lat="47.546212" lon="7.951535">
        <ele>299.842917</ele>
        <time>2021-11-20T16:48:02.285Z</time>
      </trkpt>
      <trkpt lat="47.546231" lon="7.951558">
        <ele>299.836954</ele>
        <time>2021-11-20T16:48:03.014Z</time>
      </trkpt>
      <trkpt lat="47.546421" lon="7.951793">
        <ele>299.734906</ele>
        <time>2021-11-20T16:48:06.195Z</time>
      </trkpt>
      <trkpt lat="47.546634" lon="7.952024">
        <ele>299.626070</ele>
        <time>2021-11-20T16:48:09.730Z</time>
      </trkpt>
      <trkpt lat="47.546695" lon="7.952091">
        <ele>299.594762</ele>
        <time>2021-11-20T16:48:10.685Z</time>
      </trkpt>
      <trkpt lat="47.546776" lon="7.952185">
        <ele>299.552340</ele>
        <time>2021-11-20T16:48:11.871Z</time>
      </trkpt>
      <trkpt lat="47.546935" lon="7.952372">
        <ele>299.468639</ele>
        <time>2021-11-20T16:48:14.807Z</time>
      </trkpt>
      <trkpt lat="47.547090" lon="7.952543">
        <ele>299.388961</ele>
        <time>2021-11-20T16:48:17.444Z</time>
      </trkpt>
      <trkpt lat="47.547400" lon="7.952910">
        <ele>299.225353</ele>
        <time>2021-11-20T16:48:22.744Z</time>
      </trkpt>
      <trkpt lat="47.547458" lon="7.952975">
        <ele>299.195369</ele>
        <time>2021-11-20T16:48:23.662Z</time>
      </trkpt>
      <trkpt lat="47.547550" lon="7.953078">
        <ele>299.147825</ele>
        <time>2021-11-20T16:48:25.153Z</time>
      </trkpt>
      <trkpt lat="47.547624" lon="7.953160">
        <ele>299.109725</ele>
        <time>2021-11-20T16:48:26.392Z</time>
      </trkpt>
      <trkpt lat="47.547797" lon="7.953355">
        <ele>298.966781</ele>
        <time>2021-11-20T16:48:29.396Z</time>
      </trkpt>
      <trkpt lat="47.547871" lon="7.953437">
        <ele>298.904200</ele>
        <time>2021-11-20T16:48:30.690Z</time>
      </trkpt>
      <trkpt lat="47.547994" lon="7.953584">
        <ele>298.797178</ele>
        <time>2021-11-20T16:48:32.871Z</time>
      </trkpt>
      <trkpt lat="47.548115" lon="7.953729">
        <ele>298.691785</ele>
        <time>2021-11-20T16:48:35.021Z</time>
      </trkpt>
      <trkpt lat="47.548251" lon="7.953895">
        <ele>298.572452</ele>
        <time>2021-11-20T16:48:37.421Z</time>
      </trkpt>
      <trkpt lat="47.548335" lon="7.953779">
        <ele>298.494686</ele>
        <time>2021-11-20T16:48:39.327Z</time>
      </trkpt>
      <trkpt lat="47.549296" lon="7.953268">
        <ele>297.674969</ele>
        <time>2021-11-20T16:48:57.643Z</time>
      </trkpt>
      <trkpt lat="47.549442" lon="7.953195">
        <ele>297.406941</ele>
        <time>2021-11-20T16:49:00.194Z</time>
      </trkpt>
      <trkpt lat="47.549640" lon="7.953086">
        <ele>297.039529</ele>
        <time>2021-11-20T16:49:03.908Z</time>
      </trkpt>
      <trkpt lat="47.549673" lon="7.953076">
        <ele>296.980940</ele>
        <time>2021-11-20T16:49:04.466Z</time>
      </trkpt>
      <trkpt lat="47.549687" lon="7.953071">
        <ele>296.955890</ele>
        <time>2021-11-20T16:49:04.658Z</time>
      </trkpt>
      <trkpt lat="47.550567" lon="7.953069">
        <ele>295.425195</ele>
        <time>2021-11-20T16:49:18.834Z</time>
      </trkpt>
      <trkpt lat="47.550656" lon="7.953072">
        <ele>295.270346</ele>
        <time>2021-11-20T16:49:20.151Z</time>
      </trkpt>
      <trkpt lat="47.550967" lon="7.953063">
        <ele>294.725744</ele>
        <time>2021-11-20T16:49:24.915Z</time>
      </trkpt>
      <trkpt lat="47.551254" lon="7.952986">
        <ele>294.152249</ele>
        <time>2021-11-20T16:49:29.304Z</time>
      </trkpt>
      <trkpt lat="47.551295" lon="7.952900">
        <ele>294.012518</ele>
        <time>2021-11-20T16:49:30.367Z</time>
      </trkpt>
      <trkpt lat="47.551334" lon="7.952777">
        <ele>293.832170</ele>
        <time>2021-11-20T16:49:33.042Z</time>
      </trkpt>
      <trkpt lat="47.551339" lon="7.952761">
        <ele>293.808771</ele>
        <time>2021-11-20T16:49:33.413Z</time>
      </trkpt>
      <trkpt lat="47.551381" lon="7.952341">
        <ele>293.245309</ele>
        <time>2021-11-20T16:49:42.194Z</time>
      </trkpt>
      <trkpt lat="47.551506" lon="7.950255">
        <ele>291.124762</ele>
        <time>2021-11-20T16:50:27.731Z</time>
      </trkpt>
      <trkpt lat="47.551525" lon="7.950027">
        <ele>291.086321</ele>
        <time>2021-11-20T16:50:33.192Z</time>
      </trkpt>
      <trkpt lat="47.551581" lon="7.949830">
        <ele>291.050553</ele>
        <time>2021-11-20T16:50:38.344Z</time>
      </trkpt>
      <trkpt lat="47.551673" lon="7.949634">
        <ele>291.010605</ele>
        <time>2021-11-20T16:50:44.430Z</time>
      </trkpt>
      <trkpt lat="47.551794" lon="7.949387">
        <ele>290.959535</ele>
        <time>2021-11-20T16:50:51.992Z</time>
      </trkpt>
      <trkpt lat="47.552010" lon="7.949039">
        <ele>290.880425</ele>
        <time>2021-11-20T16:51:04.179Z</time>
      </trkpt>
      <trkpt lat="47.552049" lon="7.948982">
        <ele>290.866843</ele>
        <time>2021-11-20T16:51:06.353Z</time>
      </trkpt>
      <trkpt lat="47.552094" lon="7.948926">
        <ele>290.852274</ele>
        <time>2021-11-20T16:51:08.725Z</time>
      </trkpt>
      <trkpt lat="47.552202" lon="7.949003">
        <ele>290.822560</ele>
        <time>2021-11-20T16:51:13.414Z</time>
      </trkpt>
      <trkpt lat="47.552351" lon="7.949099">
        <ele>290.782278</ele>
        <time>2021-11-20T16:51:19.817Z</time>
      </trkpt>
      <trkpt lat="47.552382" lon="7.949119">
        <ele>290.773895</ele>
        <time>2021-11-20T16:51:21.270Z</time>
      </trkpt>
      <trkpt lat="47.552518" lon="7.949236">
        <ele>290.749497</ele>
        <time>2021-11-20T16:51:27.603Z</time>
      </trkpt>
      <trkpt lat="47.552953" lon="7.948775">
        <ele>290.666559</ele>
        <time>2021-11-20T16:51:48.608Z</time>
      </trkpt>
      <trkpt lat="47.553197" lon="7.948543">
        <ele>290.621598</ele>
        <time>2021-11-20T16:51:59.340Z</time>
      </trkpt>
      <trkpt lat="47.553243" lon="7.948595">
        <ele>290.612626</ele>
        <time>2021-11-20T16:52:01.396Z</time>
      </trkpt>
      <trkpt lat="47.553259" lon="7.948634">
        <ele>290.607849</ele>
        <time>2021-11-20T16:52:02.572Z</time>
      </trkpt>
      <trkpt lat="47.553488" lon="7.949175">
        <ele>290.541011</ele>
        <time>2021-11-20T16:52:17.632Z</time>
      </trkpt>
      <trkpt lat="47.553669" lon="7.949729">
        <ele>290.361458</ele>
        <time>2021-11-20T16:52:31.658Z</time>
      </trkpt>
      <trkpt lat="47.553699" lon="7.949840">
        <ele>290.270408</ele>
        <time>2021-11-20T16:52:34.239Z</time>
      </trkpt>
      <trkpt lat="47.553747" lon="7.950009">
        <ele>290.130787</ele>
        <time>2021-11-20T16:52:38.309Z</time>
      </trkpt>
      <trkpt lat="47.553836" lon="7.950173">
        <ele>289.970540</ele>
        <time>2021-11-20T16:52:43.159Z</time>
      </trkpt>
      <trkpt lat="47.553918" lon="7.950361">
        <ele>289.800088</ele>
        <time>2021-11-20T16:52:47.990Z</time>
      </trkpt>
      <trkpt lat="47.554036" lon="7.950322">
        <ele>289.663678</ele>
        <time>2021-11-20T16:52:51.975Z</time>
      </trkpt>
      <trkpt lat="47.554130" lon="7.950301">
        <ele>289.556421</ele>
        <time>2021-11-20T16:52:55.276Z</time>
      </trkpt>
      <trkpt lat="47.554192" lon="7.950296">
        <ele>289.486364</ele>
        <time>2021-11-20T16:52:57.233Z</time>
      </trkpt>
      <trkpt lat="47.554240" lon="7.950300">
        <ele>289.432120</ele>
        <time>2021-11-20T16:52:58.790Z</time>
      </trkpt>
      <trkpt lat="47.554303" lon="7.950312">
        <ele>289.360454</ele>
        <time>2021-11-20T16:52:59.528Z</time>
      </trkpt>
      <trkpt lat="47.554392" lon="7.950331">
        <ele>289.258999</ele>
        <time>2021-11-20T16:53:00.602Z</time>
      </trkpt>
      <trkpt lat="47.554652" lon="7.950448">
        <ele>288.952415</ele>
        <time>2021-11-20T16:53:03.815Z</time>
      </trkpt>
      <trkpt lat="47.554759" lon="7.950515">
        <ele>288.821352</ele>
        <time>2021-11-20T16:53:05.221Z</time>
      </trkpt>
      <trkpt lat="47.554954" lon="7.950665">
        <ele>288.573455</ele>
        <time>2021-11-20T16:53:07.854Z</time>
      </trkpt>
      <trkpt lat="47.555474" lon="7.951144">
        <ele>288.407712</ele>
        <time>2021-11-20T16:53:15.738Z</time>
      </trkpt>
      <trkpt lat="47.555687" lon="7.951449">
        <ele>288.374549</ele>
        <time>2021-11-20T16:53:19.822Z</time>
      </trkpt>
      <trkpt lat="47.556339" lon="7.952382">
        <ele>288.273069</ele>
        <time>2021-11-20T16:53:33.885Z</time>
      </trkpt>
      <trkpt lat="47.556386" lon="7.952449">
        <ele>288.265767</ele>
        <time>2021-11-20T16:53:35.054Z</time>
      </trkpt>
      <trkpt lat="47.556400" lon="7.952468">
        <ele>288.267064</ele>
        <time>2021-11-20T16:53:35.366Z</time>
      </trkpt>
      <trkpt lat="47.557120" lon="7.953536">
        <ele>288.874756</ele>
        <time>2021-11-20T16:53:53.393Z</time>
      </trkpt>
      <trkpt lat="47.557517" lon="7.954117">
        <ele>289.207592</ele>
        <time>2021-11-20T16:54:03.240Z</time>
      </trkpt>
      <trkpt lat="47.557687" lon="7.954371">
        <ele>289.338817</ele>
        <time>2021-11-20T16:54:07.353Z</time>
      </trkpt>
      <trkpt lat="47.557874" lon="7.954579">
        <ele>289.355565</ele>
        <time>2021-11-20T16:54:11.081Z</time>
      </trkpt>
      <trkpt lat="47.557899" lon="7.954581">
        <ele>289.357358</ele>
        <time>2021-11-20T16:54:11.578Z</time>
      </trkpt>
      <trkpt lat="47.557935" lon="7.954571">
        <ele>289.359982</ele>
        <time>2021-11-20T16:54:12.228Z</time>
      </trkpt>
      <trkpt lat="47.558070" lon="7.954468">
        <ele>289.370858</ele>
        <time>2021-11-20T16:54:14.597Z</time>
      </trkpt>
      <trkpt lat="47.558107" lon="7.954410">
        <ele>289.374716</ele>
        <time>2021-11-20T16:54:15.527Z</time>
      </trkpt>
      <trkpt lat="47.558161" lon="7.954466">
        <ele>289.379437</ele>
        <time>2021-11-20T16:54:16.519Z</time>
      </trkpt>
      <trkpt lat="47.558201" lon="7.954539">
        <ele>289.383983</ele>
        <time>2021-11-20T16:54:17.600Z</time>
      </trkpt>
      <trkpt lat="47.558360" lon="7.955074">
        <ele>289.412241</ele>
        <time>2021-11-20T16:54:23.805Z</time>
      </trkpt>
      <trkpt lat="47.558659" lon="7.956055">
        <ele>289.464272</ele>
        <time>2021-11-20T16:54:34.106Z</time>
      </trkpt>
      <trkpt lat="47.558756" lon="7.956469">
        <ele>289.313313</ele>
        <time>2021-11-20T16:54:37.999Z</time>
      </trkpt>
      <trkpt lat="47.559224" lon="7.958738">
        <ele>288.478401</ele>
        <time>2021-11-20T16:54:58.443Z</time>
      </trkpt>
      <trkpt lat="47.559324" lon="7.959601">
        <ele>288.620942</ele>
        <time>2021-11-20T16:55:06.801Z</time>
      </trkpt>
      <trkpt lat="47.559346" lon="7.959868">
        <ele>288.664729</ele>
        <time>2021-11-20T16:55:09.895Z</time>
      </trkpt>
      <trkpt lat="47.559406" lon="7.960730">
        <ele>288.805795</ele>
        <time>2021-11-20T16:55:19.378Z</time>
      </trkpt>
      <trkpt lat="47.559408" lon="7.961845">
        <ele>289.159231</ele>
        <time>2021-11-20T16:55:33.143Z</time>
      </trkpt>
      <trkpt lat="47.559368" lon="7.962709">
        <ele>289.560265</ele>
        <time>2021-11-20T16:55:44.384Z</time>
      </trkpt>
      <trkpt lat="47.559232" lon="7.963800">
        <ele>290.074024</ele>
        <time>2021-11-20T16:55:56.977Z</time>
      </trkpt>
      <trkpt lat="47.559029" lon="7.964894">
        <ele>290.054069</ele>
        <time>2021-11-20T16:56:08.680Z</time>
      </trkpt>
      <trkpt lat="47.558949" lon="7.965326">
        <ele>290.021363</ele>
        <time>2021-11-20T16:56:12.915Z</time>
      </trkpt>
      <trkpt lat="47.558732" lon="7.966356">
        <ele>289.942583</ele>
        <time>2021-11-20T16:56:22.798Z</time>
      </trkpt>
      <trkpt lat="47.558606" lon="7.966985">
        <ele>289.933884</ele>
        <time>2021-11-20T16:56:29.054Z</time>
      </trkpt>
      <trkpt lat="47.558448" lon="7.967701">
        <ele>289.934077</ele>
        <time>2021-11-20T16:56:36.309Z</time>
      </trkpt>
      <trkpt lat="47.558430" lon="7.967788">
        <ele>289.934101</ele>
        <time>2021-11-20T16:56:37.193Z</time>
      </trkpt>
      <trkpt lat="47.558327" lon="7.968108">
        <ele>289.934192</ele>
        <time>2021-11-20T16:56:41.146Z</time>
      </trkpt>
      <trkpt lat="47.558313" lon="7.968259">
        <ele>289.934231</ele>
        <time>2021-11-20T16:56:42.605Z</time>
      </trkpt>
      <trkpt lat="47.558296" lon="7.968403">
        <ele>289.934268</ele>
        <time>2021-11-20T16:56:44.407Z</time>
      </trkpt>
      <trkpt lat="47.558225" lon="7.968807">
        <ele>289.934375</ele>
        <time>2021-11-20T16:56:48.861Z</time>
      </trkpt>
      <trkpt lat="47.558045" lon="7.969704">
        <ele>289.881065</ele>
        <time>2021-11-20T16:56:58.432Z</time>
      </trkpt>
      <trkpt lat="47.557756" lon="7.971140">
        <ele>289.770082</ele>
        <time>2021-11-20T16:57:13.123Z</time>
      </trkpt>
      <trkpt lat="47.557538" lon="7.972196">
        <ele>289.651331</ele>
        <time>2021-11-20T16:57:22.807Z</time>
      </trkpt>
      <trkpt lat="47.557419" lon="7.972636">
        <ele>289.589599</ele>
        <time>2021-11-20T16:57:27.062Z</time>
      </trkpt>
      <trkpt lat="47.557323" lon="7.972992">
        <ele>289.539672</ele>
        <time>2021-11-20T16:57:30.678Z</time>
      </trkpt>
      <trkpt lat="47.557235" lon="7.973507">
        <ele>289.470486</ele>
        <time>2021-11-20T16:57:35.757Z</time>
      </trkpt>
      <trkpt lat="47.557108" lon="7.974186">
        <ele>289.434952</ele>
        <time>2021-11-20T16:57:42.909Z</time>
      </trkpt>
      <trkpt lat="47.557045" lon="7.974526">
        <ele>289.619364</ele>
        <time>2021-11-20T16:57:46.944Z</time>
      </trkpt>
      <trkpt lat="47.556769" lon="7.976421">
        <ele>290.633331</ele>
        <time>2021-11-20T16:58:11.104Z</time>
      </trkpt>
      <trkpt lat="47.556668" lon="7.978159">
        <ele>291.401616</ele>
        <time>2021-11-20T16:58:33.018Z</time>
      </trkpt>
      <trkpt lat="47.557185" lon="7.988787">
        <ele>293.689134</ele>
        <time>2021-11-20T17:00:27.352Z</time>
      </trkpt>
      <trkpt lat="47.557298" lon="7.990679">
        <ele>294.134018</ele>
        <time>2021-11-20T17:00:48.576Z</time>
      </trkpt>
      <trkpt lat="47.557377" lon="7.991413">
        <ele>294.300856</ele>
        <time>2021-11-20T17:00:56.864Z</time>
      </trkpt>
      <trkpt lat="47.557666" lon="7.996934">
        <ele>295.442452</ele>
        <time>2021-11-20T17:01:55.721Z</time>
      </trkpt>
      <trkpt lat="47.557611" lon="7.998828">
        <ele>296.065622</ele>
        <time>2021-11-20T17:02:18.348Z</time>
      </trkpt>
      <trkpt lat="47.557595" lon="7.999065">
        <ele>296.154116</ele>
        <time>2021-11-20T17:02:21.373Z</time>
      </trkpt>
      <trkpt lat="47.557590" lon="7.999121">
        <ele>296.175103</ele>
        <time>2021-11-20T17:02:22.032Z</time>
      </trkpt>
      <trkpt lat="47.557569" lon="7.999330">
        <ele>296.253610</ele>
        <time>2021-11-20T17:02:27.620Z</time>
      </trkpt>
      <trkpt lat="47.557552" lon="7.999488">
        <ele>296.313054</ele>
        <time>2021-11-20T17:02:29.638Z</time>
      </trkpt>
      <trkpt lat="47.557421" lon="8.000151">
        <ele>296.569724</ele>
        <time>2021-11-20T17:02:37.836Z</time>
      </trkpt>
      <trkpt lat="47.556859" lon="8.003033">
        <ele>296.622387</ele>
        <time>2021-11-20T17:03:07.550Z</time>
      </trkpt>
      <trkpt lat="47.556414" lon="8.004608">
        <ele>295.965217</ele>
        <time>2021-11-20T17:03:22.318Z</time>
      </trkpt>
      <trkpt lat="47.555689" lon="8.008075">
        <ele>294.343538</ele>
        <time>2021-11-20T17:03:53.986Z</time>
      </trkpt>
      <trkpt lat="47.555492" lon="8.008854">
        <ele>293.856174</ele>
        <time>2021-11-20T17:04:01.006Z</time>
      </trkpt>
      <trkpt lat="47.555373" lon="8.009365">
        <ele>293.530324</ele>
        <time>2021-11-20T17:04:05.490Z</time>
      </trkpt>
      <trkpt lat="47.555124" lon="8.010557">
        <ele>292.778159</ele>
        <time>2021-11-20T17:04:15.818Z</time>
      </trkpt>
      <trkpt lat="47.555069" lon="8.010772">
        <ele>292.661733</ele>
        <time>2021-11-20T17:04:17.651Z</time>
      </trkpt>
      <trkpt lat="47.554818" lon="8.011865">
        <ele>292.269733</ele>
        <time>2021-11-20T17:04:27.355Z</time>
      </trkpt>
      <trkpt lat="47.554682" lon="8.012449">
        <ele>292.059975</ele>
        <time>2021-11-20T17:04:33.059Z</time>
      </trkpt>
      <trkpt lat="47.554665" lon="8.012540">
        <ele>292.027915</ele>
        <time>2021-11-20T17:04:33.898Z</time>
      </trkpt>
      <trkpt lat="47.554546" lon="8.013079">
        <ele>291.835365</ele>
        <time>2021-11-20T17:04:39.400Z</time>
      </trkpt>
      <trkpt lat="47.554393" lon="8.013577">
        <ele>291.917414</ele>
        <time>2021-11-20T17:04:45.182Z</time>
      </trkpt>
      <trkpt lat="47.554329" lon="8.013807">
        <ele>291.999462</ele>
        <time>2021-11-20T17:04:48.057Z</time>
      </trkpt>
      <trkpt lat="47.553882" lon="8.015749">
        <ele>292.678072</ele>
        <time>2021-11-20T17:05:11.859Z</time>
      </trkpt>
      <trkpt lat="47.553715" lon="8.016236">
        <ele>292.887500</ele>
        <time>2021-11-20T17:05:18.321Z</time>
      </trkpt>
      <trkpt lat="47.553318" lon="8.017064">
        <ele>293.276900</ele>
        <time>2021-11-20T17:05:30.204Z</time>
      </trkpt>
      <trkpt lat="47.553229" lon="8.017328">
        <ele>293.390040</ele>
        <time>2021-11-20T17:05:33.813Z</time>
      </trkpt>
      <trkpt lat="47.553159" lon="8.017677">
        <ele>293.529627</ele>
        <time>2021-11-20T17:05:38.414Z</time>
      </trkpt>
      <trkpt lat="47.553012" lon="8.018748">
        <ele>293.805615</ele>
        <time>2021-11-20T17:05:50.042Z</time>
      </trkpt>
      <trkpt lat="47.553028" lon="8.018988">
        <ele>293.847698</ele>
        <time>2021-11-20T17:05:52.366Z</time>
      </trkpt>
      <trkpt lat="47.553028" lon="8.018988">
        <ele>293.847698</ele>
        <time>2021-11-20T17:05:52.395Z</time>
      </trkpt>
      <trkpt lat="47.553028" lon="8.018988">
        <ele>293.847698</ele>
        <time>2021-11-20T17:05:52.407Z</time>
      </trkpt>
      <trkpt lat="47.553030" lon="8.019182">
        <ele>293.881554</ele>
        <time>2021-11-20T17:05:54.101Z</time>
      </trkpt>
      <trkpt lat="47.553055" lon="8.019647">
        <ele>293.962952</ele>
        <time>2021-11-20T17:05:58.784Z</time>
      </trkpt>
      <trkpt lat="47.553064" lon="8.019820">
        <ele>293.993229</ele>
        <time>2021-11-20T17:06:00.310Z</time>
      </trkpt>
      <trkpt lat="47.553056" lon="8.019871">
        <ele>294.002365</ele>
        <time>2021-11-20T17:06:00.800Z</time>
      </trkpt>
      <trkpt lat="47.553031" lon="8.019915">
        <ele>294.012402</ele>
        <time>2021-11-20T17:06:01.451Z</time>
      </trkpt>
      <trkpt lat="47.552961" lon="8.019989">
        <ele>294.034634</ele>
        <time>2021-11-20T17:06:02.903Z</time>
      </trkpt>
      <trkpt lat="47.552879" lon="8.020034">
        <ele>294.057243</ele>
        <time>2021-11-20T17:06:04.482Z</time>
      </trkpt>
      <trkpt lat="47.552872" lon="8.020109">
        <ele>294.070455</ele>
        <time>2021-11-20T17:06:05.095Z</time>
      </trkpt>
      <trkpt lat="47.552813" lon="8.020595">
        <ele>294.198999</ele>
        <time>2021-11-20T17:06:10.918Z</time>
      </trkpt>
      <trkpt lat="47.552776" lon="8.021316">
        <ele>295.306816</ele>
        <time>2021-11-20T17:06:19.903Z</time>
      </trkpt>
      <trkpt lat="47.552959" lon="8.021335">
        <ele>295.723252</ele>
        <time>2021-11-20T17:06:23.917Z</time>
      </trkpt>
      <trkpt lat="47.553183" lon="8.021466">
        <ele>296.269918</ele>
        <time>2021-11-20T17:06:28.592Z</time>
      </trkpt>
      <trkpt lat="47.553232" lon="8.021484">
        <ele>296.384518</ele>
        <time>2021-11-20T17:06:29.915Z</time>
      </trkpt>
      <trkpt lat="47.553266" lon="8.021493">
        <ele>296.462921</ele>
        <time>2021-11-20T17:06:30.712Z</time>
      </trkpt>
      <trkpt lat="47.553291" lon="8.021502">
        <ele>296.521323</ele>
        <time>2021-11-20T17:06:31.387Z</time>
      </trkpt>
      <trkpt lat="47.553305" lon="8.021505">
        <ele>296.553434</ele>
        <time>2021-11-20T17:06:31.743Z</time>
      </trkpt>
      <trkpt lat="47.553565" lon="8.021501">
        <ele>297.143678</ele>
        <time>2021-11-20T17:06:38.312Z</time>
      </trkpt>
      <trkpt lat="47.553607" lon="8.021497">
        <ele>297.239217</ele>
        <time>2021-11-20T17:06:39.489Z</time>
      </trkpt>
      <trkpt lat="47.553614" lon="8.021587">
        <ele>297.378014</ele>
        <time>2021-11-20T17:06:41.153Z</time>
      </trkpt>
      <trkpt lat="47.553615" lon="8.021606">
        <ele>297.407211</ele>
        <time>2021-11-20T17:06:41.536Z</time>
      </trkpt>
      <trkpt lat="47.553619" lon="8.021667">
        <ele>297.501107</ele>
        <time>2021-11-20T17:06:42.776Z</time>
      </trkpt>
      <trkpt lat="47.553687" lon="8.021682">
        <ele>297.657171</ele>
        <time>2021-11-20T17:06:44.932Z</time>
      </trkpt>
      <trkpt lat="47.553878" lon="8.021738">
        <ele>298.099156</ele>
        <time>2021-11-20T17:06:50.996Z</time>
      </trkpt>
      <trkpt lat="47.553961" lon="8.021754">
        <ele>298.356789</ele>
        <time>2021-11-20T17:06:53.826Z</time>
      </trkpt>
      <trkpt lat="47.554086" lon="8.021778">
        <ele>298.994862</ele>
        <time>2021-11-20T17:06:58.162Z</time>
      </trkpt>
      <trkpt lat="47.554332" lon="8.021803">
        <ele>300.243105</ele>
        <time>2021-11-20T17:07:06.685Z</time>
      </trkpt>
      <trkpt lat="47.554468" lon="8.021743">
        <ele>300.961442</ele>
        <time>2021-11-20T17:07:11.664Z</time>
      </trkpt>
      <trkpt lat="47.554589" lon="8.021606">
        <ele>301.732333</ele>
        <time>2021-11-20T17:07:16.721Z</time>
      </trkpt>
      <trkpt lat="47.554743" lon="8.021466">
        <ele>302.646954</ele>
        <time>2021-11-20T17:07:23.318Z</time>
      </trkpt>
      <trkpt lat="47.554958" lon="8.021349">
        <ele>303.806421</ele>
        <time>2021-11-20T17:07:30.774Z</time>
      </trkpt>
      <trkpt lat="47.555346" lon="8.021253">
        <ele>305.797774</ele>
        <time>2021-11-20T17:07:44.927Z</time>
      </trkpt>
      <trkpt lat="47.555521" lon="8.021257">
        <ele>306.683775</ele>
        <time>2021-11-20T17:07:51.350Z</time>
      </trkpt>
      <trkpt lat="47.555963" lon="8.021294">
        <ele>309.298393</ele>
        <time>2021-11-20T17:08:08.896Z</time>
      </trkpt>
      <trkpt lat="47.556296" lon="8.021331">
        <ele>311.387123</ele>
        <time>2021-11-20T17:08:23.064Z</time>
      </trkpt>
      <trkpt lat="47.556552" lon="8.021260">
        <ele>313.016184</ele>
        <time>2021-11-20T17:08:33.037Z</time>
      </trkpt>
      <trkpt lat="47.556632" lon="8.021199">
        <ele>313.578940</ele>
        <time>2021-11-20T17:08:36.371Z</time>
      </trkpt>
      <trkpt lat="47.556709" lon="8.021127">
        <ele>314.148445</ele>
        <time>2021-11-20T17:08:39.489Z</time>
      </trkpt>
      <trkpt lat="47.556718" lon="8.021112">
        <ele>314.233169</ele>
        <time>2021-11-20T17:08:40.058Z</time>
      </trkpt>
      <trkpt lat="47.556775" lon="8.021020">
        <ele>314.760357</ele>
        <time>2021-11-20T17:08:43.583Z</time>
      </trkpt>
      <trkpt lat="47.556880" lon="8.020827">
        <ele>315.806805</ele>
        <time>2021-11-20T17:08:50.203Z</time>
      </trkpt>
      <trkpt lat="47.556951" lon="8.020734">
        <ele>316.399539</ele>
        <time>2021-11-20T17:08:53.414Z</time>
      </trkpt>
      <trkpt lat="47.557049" lon="8.020675">
        <ele>317.061181</ele>
        <time>2021-11-20T17:08:57.914Z</time>
      </trkpt>
      <trkpt lat="47.557140" lon="8.020649">
        <ele>317.640861</ele>
        <time>2021-11-20T17:09:02.491Z</time>
      </trkpt>
      <trkpt lat="47.557326" lon="8.020583">
        <ele>318.859475</ele>
        <time>2021-11-20T17:09:09.551Z</time>
      </trkpt>
      <trkpt lat="47.557406" lon="8.020509">
        <ele>319.502544</ele>
        <time>2021-11-20T17:09:13.805Z</time>
      </trkpt>
      <trkpt lat="47.557453" lon="8.020436">
        <ele>319.966826</ele>
        <time>2021-11-20T17:09:17.688Z</time>
      </trkpt>
      <trkpt lat="47.557491" lon="8.020177">
        <ele>321.186510</ele>
        <time>2021-11-20T17:09:24.617Z</time>
      </trkpt>
      <trkpt lat="47.557398" lon="8.019696">
        <ele>323.488985</ele>
        <time>2021-11-20T17:09:39.637Z</time>
      </trkpt>
      <trkpt lat="47.557390" lon="8.019571">
        <ele>324.066780</ele>
        <time>2021-11-20T17:09:43.614Z</time>
      </trkpt>
      <trkpt lat="47.557414" lon="8.019414">
        <ele>324.807553</ele>
        <time>2021-11-20T17:09:49.047Z</time>
      </trkpt>
      <trkpt lat="47.557532" lon="8.018992">
        <ele>326.909571</ele>
        <time>2021-11-20T17:10:01.374Z</time>
      </trkpt>
      <trkpt lat="47.557566" lon="8.018865">
        <ele>327.538294</ele>
        <time>2021-11-20T17:10:06.117Z</time>
      </trkpt>
      <trkpt lat="47.557700" lon="8.018487">
        <ele>329.503122</ele>
        <time>2021-11-20T17:10:16.145Z</time>
      </trkpt>
      <trkpt lat="47.557746" lon="8.018355">
        <ele>330.186752</ele>
        <time>2021-11-20T17:10:20.550Z</time>
      </trkpt>
      <trkpt lat="47.557944" lon="8.018030">
        <ele>332.254444</ele>
        <time>2021-11-20T17:10:32.175Z</time>
      </trkpt>
      <trkpt lat="47.558167" lon="8.017713">
        <ele>334.444298</ele>
        <time>2021-11-20T17:10:45.050Z</time>
      </trkpt>
      <trkpt lat="47.558238" lon="8.017607">
        <ele>335.158520</ele>
        <time>2021-11-20T17:10:49.447Z</time>
      </trkpt>
      <trkpt lat="47.558302" lon="8.017520">
        <ele>335.773982</ele>
        <time>2021-11-20T17:10:53.017Z</time>
      </trkpt>
      <trkpt lat="47.558316" lon="8.017494">
        <ele>335.933050</ele>
        <time>2021-11-20T17:10:54.666Z</time>
      </trkpt>
      <trkpt lat="47.558404" lon="8.017331">
        <ele>336.931303</ele>
        <time>2021-11-20T17:10:59.818Z</time>
      </trkpt>
      <trkpt lat="47.558419" lon="8.017286">
        <ele>337.171324</ele>
        <time>2021-11-20T17:11:01.256Z</time>
      </trkpt>
      <trkpt lat="47.558456" lon="8.017175">
        <ele>337.763375</ele>
        <time>2021-11-20T17:11:05.035Z</time>
      </trkpt>
      <trkpt lat="47.558467" lon="8.016803">
        <ele>339.544064</ele>
        <time>2021-11-20T17:11:15.684Z</time>
      </trkpt>
      <trkpt lat="47.558472" lon="8.016633">
        <ele>340.357811</ele>
        <time>2021-11-20T17:11:20.657Z</time>
      </trkpt>
      <trkpt lat="47.558468" lon="8.016544">
        <ele>340.784370</ele>
        <time>2021-11-20T17:11:23.004Z</time>
      </trkpt>
      <trkpt lat="47.558466" lon="8.016482">
        <ele>341.081206</ele>
        <time>2021-11-20T17:11:26.144Z</time>
      </trkpt>
      <trkpt lat="47.558477" lon="8.015998">
        <ele>343.397107</ele>
        <time>2021-11-20T17:11:39.706Z</time>
      </trkpt>
      <trkpt lat="47.558647" lon="8.015459">
        <ele>346.858576</ele>
        <time>2021-11-20T17:12:00.046Z</time>
      </trkpt>
      <trkpt lat="47.559052" lon="8.014792">
        <ele>352.150257</ele>
        <time>2021-11-20T17:12:29.910Z</time>
      </trkpt>
      <trkpt lat="47.559301" lon="8.014552">
        <ele>354.746191</ele>
        <time>2021-11-20T17:12:46.612Z</time>
      </trkpt>
      <trkpt lat="47.559783" lon="8.014275">
        <ele>359.264259</ele>
        <time>2021-11-20T17:13:12.794Z</time>
      </trkpt>
      <trkpt lat="47.559980" lon="8.014260">
        <ele>360.734687</ele>
        <time>2021-11-20T17:13:22.740Z</time>
      </trkpt>
      <trkpt lat="47.560319" lon="8.014395">
        <ele>363.336413</ele>
        <time>2021-11-20T17:13:38.897Z</time>
      </trkpt>
      <trkpt lat="47.560683" lon="8.014628">
        <ele>366.275221</ele>
        <time>2021-11-20T17:13:55.384Z</time>
      </trkpt>
      <trkpt lat="47.560834" lon="8.014633">
        <ele>367.394674</ele>
        <time>2021-11-20T17:14:00.901Z</time>
      </trkpt>
      <trkpt lat="47.560957" lon="8.014567">
        <ele>368.364241</ele>
        <time>2021-11-20T17:14:07.124Z</time>
      </trkpt>
      <trkpt lat="47.560995" lon="8.014547">
        <ele>368.663124</ele>
        <time>2021-11-20T17:14:08.028Z</time>
      </trkpt>
      <trkpt lat="47.561174" lon="8.014255">
        <ele>370.636192</ele>
        <time>2021-11-20T17:14:20.731Z</time>
      </trkpt>
      <trkpt lat="47.561324" lon="8.013664">
        <ele>373.752827</ele>
        <time>2021-11-20T17:14:39.569Z</time>
      </trkpt>
      <trkpt lat="47.561442" lon="8.013448">
        <ele>375.092476</ele>
        <time>2021-11-20T17:14:46.209Z</time>
      </trkpt>
      <trkpt lat="47.561619" lon="8.013259">
        <ele>376.650916</ele>
        <time>2021-11-20T17:14:56.153Z</time>
      </trkpt>
      <trkpt lat="47.561899" lon="8.013170">
        <ele>378.696587</ele>
        <time>2021-11-20T17:15:09.122Z</time>
      </trkpt>
      <trkpt lat="47.562066" lon="8.013151">
        <ele>379.893061</ele>
        <time>2021-11-20T17:15:14.892Z</time>
      </trkpt>
      <trkpt lat="47.562148" lon="8.013140">
        <ele>380.481223</ele>
        <time>2021-11-20T17:15:17.812Z</time>
      </trkpt>
      <trkpt lat="47.562228" lon="8.013107">
        <ele>381.074429</ele>
        <time>2021-11-20T17:15:22.183Z</time>
      </trkpt>
      <trkpt lat="47.562467" lon="8.013027">
        <ele>382.824733</ele>
        <time>2021-11-20T17:15:31.865Z</time>
      </trkpt>
      <trkpt lat="47.562986" lon="8.012625">
        <ele>386.873111</ele>
        <time>2021-11-20T17:15:59.745Z</time>
      </trkpt>
      <trkpt lat="47.563093" lon="8.012604">
        <ele>387.575178</ele>
        <time>2021-11-20T17:16:04.370Z</time>
      </trkpt>
      <trkpt lat="47.563207" lon="8.012665">
        <ele>388.363555</ele>
        <time>2021-11-20T17:16:11.401Z</time>
      </trkpt>
      <trkpt lat="47.563289" lon="8.012797">
        <ele>389.151053</ele>
        <time>2021-11-20T17:16:17.083Z</time>
      </trkpt>
      <trkpt lat="47.563524" lon="8.013612">
        <ele>393.041094</ele>
        <time>2021-11-20T17:16:43.323Z</time>
      </trkpt>
      <trkpt lat="47.563694" lon="8.013972">
        <ele>394.969666</ele>
        <time>2021-11-20T17:16:53.048Z</time>
      </trkpt>
      <trkpt lat="47.563758" lon="8.014030">
        <ele>395.457625</ele>
        <time>2021-11-20T17:16:56.616Z</time>
      </trkpt>
      <trkpt lat="47.563908" lon="8.014085">
        <ele>396.462731</ele>
        <time>2021-11-20T17:17:01.396Z</time>
      </trkpt>
      <trkpt lat="47.564241" lon="8.013975">
        <ele>397.695111</ele>
        <time>2021-11-20T17:17:12.241Z</time>
      </trkpt>
      <trkpt lat="47.564751" lon="8.013465">
        <ele>399.034711</ele>
        <time>2021-11-20T17:17:28.789Z</time>
      </trkpt>
      <trkpt lat="47.565338" lon="8.012662">
        <ele>400.774065</ele>
        <time>2021-11-20T17:17:43.679Z</time>
      </trkpt>
      <trkpt lat="47.565501" lon="8.012111">
        <ele>401.712951</ele>
        <time>2021-11-20T17:17:50.255Z</time>
      </trkpt>
      <trkpt lat="47.565472" lon="8.011708">
        <ele>402.368674</ele>
        <time>2021-11-20T17:17:55.203Z</time>
      </trkpt>
      <trkpt lat="47.565220" lon="8.011190">
        <ele>403.401881</ele>
        <time>2021-11-20T17:18:04.066Z</time>
      </trkpt>
      <trkpt lat="47.565079" lon="8.011063">
        <ele>403.797519</ele>
        <time>2021-11-20T17:18:07.940Z</time>
      </trkpt>
      <trkpt lat="47.564831" lon="8.010977">
        <ele>404.408243</ele>
        <time>2021-11-20T17:18:14.388Z</time>
      </trkpt>
      <trkpt lat="47.564410" lon="8.011026">
        <ele>405.420837</ele>
        <time>2021-11-20T17:18:27.354Z</time>
      </trkpt>
      <trkpt lat="47.564251" lon="8.010805">
        <ele>407.113210</ele>
        <time>2021-11-20T17:18:35.290Z</time>
      </trkpt>
      <trkpt lat="47.564285" lon="8.010543">
        <ele>408.523725</ele>
        <time>2021-11-20T17:18:42.558Z</time>
      </trkpt>
      <trkpt lat="47.564366" lon="8.010437">
        <ele>409.370368</ele>
        <time>2021-11-20T17:18:47.289Z</time>
      </trkpt>
      <trkpt lat="47.564876" lon="8.010157">
        <ele>413.631590</ele>
        <time>2021-11-20T17:19:13.236Z</time>
      </trkpt>
      <trkpt lat="47.565384" lon="8.009424">
        <ele>419.186627</ele>
        <time>2021-11-20T17:19:50.790Z</time>
      </trkpt>
      <trkpt lat="47.565625" lon="8.009299">
        <ele>421.370520</ele>
        <time>2021-11-20T17:20:04.527Z</time>
      </trkpt>
      <trkpt lat="47.566213" lon="8.009186">
        <ele>426.527024</ele>
        <time>2021-11-20T17:20:35.961Z</time>
      </trkpt>
      <trkpt lat="47.566636" lon="8.009033">
        <ele>430.313722</ele>
        <time>2021-11-20T17:20:58.119Z</time>
      </trkpt>
      <trkpt lat="47.567295" lon="8.008508">
        <ele>436.343323</ele>
        <time>2021-11-20T17:21:31.702Z</time>
      </trkpt>
      <trkpt lat="47.567593" lon="8.008428">
        <ele>438.219277</ele>
        <time>2021-11-20T17:21:44.795Z</time>
      </trkpt>
      <trkpt lat="47.568942" lon="8.008356">
        <ele>446.433486</ele>
        <time>2021-11-20T17:22:36.778Z</time>
      </trkpt>
      <trkpt lat="47.569032" lon="8.008394">
        <ele>446.704764</ele>
        <time>2021-11-20T17:22:40.290Z</time>
      </trkpt>
      <trkpt lat="47.569090" lon="8.008418">
        <ele>446.879327</ele>
        <time>2021-11-20T17:22:41.825Z</time>
      </trkpt>
      <trkpt lat="47.569232" lon="8.008468">
        <ele>447.302423</ele>
        <time>2021-11-20T17:22:47.406Z</time>
      </trkpt>
      <trkpt lat="47.569356" lon="8.008548">
        <ele>447.694460</ele>
        <time>2021-11-20T17:22:51.125Z</time>
      </trkpt>
      <trkpt lat="47.569733" lon="8.009325">
        <ele>449.566314</ele>
        <time>2021-11-20T17:23:08.730Z</time>
      </trkpt>
      <trkpt lat="47.569881" lon="8.009480">
        <ele>450.091644</ele>
        <time>2021-11-20T17:23:12.802Z</time>
      </trkpt>
      <trkpt lat="47.569985" lon="8.009558">
        <ele>450.429526</ele>
        <time>2021-11-20T17:23:15.921Z</time>
      </trkpt>
      <trkpt lat="47.570110" lon="8.009604">
        <ele>450.802886</ele>
        <time>2021-11-20T17:23:17.819Z</time>
      </trkpt>
      <trkpt lat="47.570537" lon="8.009765">
        <ele>451.593289</ele>
        <time>2021-11-20T17:23:25.505Z</time>
      </trkpt>
      <trkpt lat="47.570679" lon="8.009960">
        <ele>451.668572</ele>
        <time>2021-11-20T17:23:28.386Z</time>
      </trkpt>
      <trkpt lat="47.570901" lon="8.010376">
        <ele>451.807740</ele>
        <time>2021-11-20T17:23:33.477Z</time>
      </trkpt>
      <trkpt lat="47.571091" lon="8.010633">
        <ele>451.907774</ele>
        <time>2021-11-20T17:23:37.505Z</time>
      </trkpt>
      <trkpt lat="47.571221" lon="8.010706">
        <ele>451.961838</ele>
        <time>2021-11-20T17:23:39.166Z</time>
      </trkpt>
      <trkpt lat="47.571485" lon="8.010679">
        <ele>452.064752</ele>
        <time>2021-11-20T17:23:43.130Z</time>
      </trkpt>
      <trkpt lat="47.571642" lon="8.010477">
        <ele>452.145604</ele>
        <time>2021-11-20T17:23:46.071Z</time>
      </trkpt>
      <trkpt lat="47.571749" lon="8.009974">
        <ele>452.799148</ele>
        <time>2021-11-20T17:23:51.998Z</time>
      </trkpt>
      <trkpt lat="47.571538" lon="8.008187">
        <ele>456.955105</ele>
        <time>2021-11-20T17:24:25.280Z</time>
      </trkpt>
      <trkpt lat="47.571577" lon="8.007177">
        <ele>460.510843</ele>
        <time>2021-11-20T17:24:51.001Z</time>
      </trkpt>
      <trkpt lat="47.571832" lon="8.005893">
        <ele>467.581993</ele>
        <time>2021-11-20T17:25:33.243Z</time>
      </trkpt>
      <trkpt lat="47.571947" lon="8.005585">
        <ele>469.441712</ele>
        <time>2021-11-20T17:25:45.582Z</time>
      </trkpt>
      <trkpt lat="47.572250" lon="8.005072">
        <ele>473.063891</ele>
        <time>2021-11-20T17:26:09.094Z</time>
      </trkpt>
      <trkpt lat="47.572545" lon="8.004649">
        <ele>476.380087</ele>
        <time>2021-11-20T17:26:30.497Z</time>
      </trkpt>
      <trkpt lat="47.572581" lon="8.004598">
        <ele>476.782431</ele>
        <time>2021-11-20T17:26:33.522Z</time>
      </trkpt>
      <trkpt lat="47.572812" lon="8.004145">
        <ele>479.877655</ele>
        <time>2021-11-20T17:26:52.740Z</time>
      </trkpt>
      <trkpt lat="47.572894" lon="8.003925">
        <ele>481.247680</ele>
        <time>2021-11-20T17:27:00.274Z</time>
      </trkpt>
      <trkpt lat="47.572959" lon="8.003732">
        <ele>482.423487</ele>
        <time>2021-11-20T17:27:07.727Z</time>
      </trkpt>
      <trkpt lat="47.573083" lon="8.003074">
        <ele>486.147420</ele>
        <time>2021-11-20T17:27:27.441Z</time>
      </trkpt>
      <trkpt lat="47.573074" lon="8.002958">
        <ele>486.783881</ele>
        <time>2021-11-20T17:27:30.772Z</time>
      </trkpt>
      <trkpt lat="47.573211" lon="8.002587">
        <ele>488.197867</ele>
        <time>2021-11-20T17:27:41.600Z</time>
      </trkpt>
      <trkpt lat="47.573308" lon="8.002463">
        <ele>488.803347</ele>
        <time>2021-11-20T17:27:46.002Z</time>
      </trkpt>
      <trkpt lat="47.573400" lon="8.002344">
        <ele>489.380525</ele>
        <time>2021-11-20T17:27:51.478Z</time>
      </trkpt>
      <trkpt lat="47.573502" lon="8.002634">
        <ele>490.423475</ele>
        <time>2021-11-20T17:27:58.519Z</time>
      </trkpt>
      <trkpt lat="47.573643" lon="8.002920">
        <ele>491.553105</ele>
        <time>2021-11-20T17:28:07.210Z</time>
      </trkpt>
      <trkpt lat="47.573679" lon="8.003065">
        <ele>492.045828</ele>
        <time>2021-11-20T17:28:10.412Z</time>
      </trkpt>
      <trkpt lat="47.573718" lon="8.003157">
        <ele>492.392326</ele>
        <time>2021-11-20T17:28:12.790Z</time>
      </trkpt>
      <trkpt lat="47.573800" lon="8.003256">
        <ele>492.892240</ele>
        <time>2021-11-20T17:28:16.861Z</time>
      </trkpt>
      <trkpt lat="47.574217" lon="8.003704">
        <ele>495.326669</ele>
        <time>2021-11-20T17:28:30.997Z</time>
      </trkpt>
      <trkpt lat="47.574305" lon="8.003732">
        <ele>495.495592</ele>
        <time>2021-11-20T17:28:33.460Z</time>
      </trkpt>
      <trkpt lat="47.574392" lon="8.003728">
        <ele>495.565430</ele>
        <time>2021-11-20T17:28:36.672Z</time>
      </trkpt>
      <trkpt lat="47.574686" lon="8.003684">
        <ele>495.802520</ele>
        <time>2021-11-20T17:28:42.813Z</time>
      </trkpt>
      <trkpt lat="47.574764" lon="8.003762">
        <ele>495.878013</ele>
        <time>2021-11-20T17:28:45.303Z</time>
      </trkpt>
      <trkpt lat="47.575168" lon="8.004892">
        <ele>496.570248</ele>
        <time>2021-11-20T17:29:01.094Z</time>
      </trkpt>
      <trkpt lat="47.575411" lon="8.005256">
        <ele>496.847436</ele>
        <time>2021-11-20T17:29:05.772Z</time>
      </trkpt>
      <trkpt lat="47.575508" lon="8.005404">
        <ele>496.500949</ele>
        <time>2021-11-20T17:29:07.325Z</time>
      </trkpt>
      <trkpt lat="47.575531" lon="8.005431">
        <ele>496.376416</ele>
        <time>2021-11-20T17:29:07.619Z</time>
      </trkpt>
      <trkpt lat="47.575756" lon="8.005585">
        <ele>495.324479</ele>
        <time>2021-11-20T17:29:10.164Z</time>
      </trkpt>
      <trkpt lat="47.575892" lon="8.005591">
        <ele>494.746953</ele>
        <time>2021-11-20T17:29:11.518Z</time>
      </trkpt>
      <trkpt lat="47.576902" lon="8.005070">
        <ele>490.207710</ele>
        <time>2021-11-20T17:29:21.589Z</time>
      </trkpt>
      <trkpt lat="47.577375" lon="8.004938">
        <ele>488.233410</ele>
        <time>2021-11-20T17:29:25.997Z</time>
      </trkpt>
      <trkpt lat="47.577792" lon="8.005044">
        <ele>486.551035</ele>
        <time>2021-11-20T17:29:29.897Z</time>
      </trkpt>
      <trkpt lat="47.578086" lon="8.005441">
        <ele>484.969641</ele>
        <time>2021-11-20T17:29:33.688Z</time>
      </trkpt>
      <trkpt lat="47.578325" lon="8.005530">
        <ele>483.989747</ele>
        <time>2021-11-20T17:29:36.132Z</time>
      </trkpt>
      <trkpt lat="47.578736" lon="8.005500">
        <ele>482.353453</ele>
        <time>2021-11-20T17:29:40.510Z</time>
      </trkpt>
      <trkpt lat="47.579228" lon="8.005324">
        <ele>482.286891</ele>
        <time>2021-11-20T17:29:47.116Z</time>
      </trkpt>
      <trkpt lat="47.579909" lon="8.004868">
        <ele>482.603479</ele>
        <time>2021-11-20T17:30:02.014Z</time>
      </trkpt>
      <trkpt lat="47.580305" lon="8.004384">
        <ele>482.820922</ele>
        <time>2021-11-20T17:30:13.538Z</time>
      </trkpt>
      <trkpt lat="47.580693" lon="8.003731">
        <ele>481.328185</ele>
        <time>2021-11-20T17:30:23.126Z</time>
      </trkpt>
      <trkpt lat="47.581433" lon="8.002768">
        <ele>478.253768</ele>
        <time>2021-11-20T17:30:33.107Z</time>
      </trkpt>
      <trkpt lat="47.581538" lon="8.002492">
        <ele>477.586403</ele>
        <time>2021-11-20T17:30:35.034Z</time>
      </trkpt>
      <trkpt lat="47.581587" lon="8.002199">
        <ele>476.513759</ele>
        <time>2021-11-20T17:30:36.886Z</time>
      </trkpt>
      <trkpt lat="47.581843" lon="8.001622">
        <ele>472.905357</ele>
        <time>2021-11-20T17:30:40.902Z</time>
      </trkpt>
      <trkpt lat="47.582003" lon="8.001392">
        <ele>471.179081</ele>
        <time>2021-11-20T17:30:42.817Z</time>
      </trkpt>
      <trkpt lat="47.582718" lon="8.001131">
        <ele>465.475425</ele>
        <time>2021-11-20T17:30:49.217Z</time>
      </trkpt>
      <trkpt lat="47.582884" lon="8.001201">
        <ele>464.138621</ele>
        <time>2021-11-20T17:30:50.928Z</time>
      </trkpt>
      <trkpt lat="47.583038" lon="8.001422">
        <ele>463.268997</ele>
        <time>2021-11-20T17:30:52.810Z</time>
      </trkpt>
      <trkpt lat="47.583129" lon="8.001600">
        <ele>463.206496</ele>
        <time>2021-11-20T17:30:56.229Z</time>
      </trkpt>
      <trkpt lat="47.583138" lon="8.001749">
        <ele>463.164633</ele>
        <time>2021-11-20T17:30:57.133Z</time>
      </trkpt>
      <trkpt lat="47.582770" lon="8.002301">
        <ele>462.947445</ele>
        <time>2021-11-20T17:31:02.806Z</time>
      </trkpt>
      <trkpt lat="47.582722" lon="8.002476">
        <ele>462.894579</ele>
        <time>2021-11-20T17:31:06.111Z</time>
      </trkpt>
      <trkpt lat="47.582735" lon="8.002783">
        <ele>462.808499</ele>
        <time>2021-11-20T17:31:08.288Z</time>
      </trkpt>
      <trkpt lat="47.582779" lon="8.003036">
        <ele>462.735384</ele>
        <time>2021-11-20T17:31:13.736Z</time>
      </trkpt>
      <trkpt lat="47.582789" lon="8.003167">
        <ele>462.698490</ele>
        <time>2021-11-20T17:31:14.664Z</time>
      </trkpt>
      <trkpt lat="47.582781" lon="8.003305">
        <ele>462.659730</ele>
        <time>2021-11-20T17:31:16.688Z</time>
      </trkpt>
      <trkpt lat="47.582727" lon="8.003464">
        <ele>462.609914</ele>
        <time>2021-11-20T17:31:22.987Z</time>
      </trkpt>
      <trkpt lat="47.582604" lon="8.004164">
        <ele>465.210687</ele>
        <time>2021-11-20T17:31:40.695Z</time>
      </trkpt>
      <trkpt lat="47.582510" lon="8.004377">
        <ele>466.387076</ele>
        <time>2021-11-20T17:31:47.985Z</time>
      </trkpt>
      <trkpt lat="47.582188" lon="8.004718">
        <ele>469.098410</ele>
        <time>2021-11-20T17:32:05.551Z</time>
      </trkpt>
      <trkpt lat="47.581764" lon="8.005054">
        <ele>472.392538</ele>
        <time>2021-11-20T17:32:27.355Z</time>
      </trkpt>
      <trkpt lat="47.581321" lon="8.006142">
        <ele>479.147041</ele>
        <time>2021-11-20T17:33:07.303Z</time>
      </trkpt>
      <trkpt lat="47.581140" lon="8.006991">
        <ele>484.336482</ele>
        <time>2021-11-20T17:33:39.337Z</time>
      </trkpt>
      <trkpt lat="47.580912" lon="8.007336">
        <ele>487.151438</ele>
        <time>2021-11-20T17:33:56.563Z</time>
      </trkpt>
      <trkpt lat="47.579923" lon="8.008040">
        <ele>494.546970</ele>
        <time>2021-11-20T17:34:47.629Z</time>
      </trkpt>
      <trkpt lat="47.579619" lon="8.008172">
        <ele>496.363884</ele>
        <time>2021-11-20T17:34:59.781Z</time>
      </trkpt>
      <trkpt lat="47.578864" lon="8.008842">
        <ele>500.916563</ele>
        <time>2021-11-20T17:35:26.702Z</time>
      </trkpt>
      <trkpt lat="47.578362" lon="8.009201">
        <ele>501.727125</ele>
        <time>2021-11-20T17:35:39.202Z</time>
      </trkpt>
      <trkpt lat="47.578332" lon="8.009223">
        <ele>501.775800</ele>
        <time>2021-11-20T17:35:39.867Z</time>
      </trkpt>
      <trkpt lat="47.578269" lon="8.009376">
        <ele>501.951651</ele>
        <time>2021-11-20T17:35:42.306Z</time>
      </trkpt>
      <trkpt lat="47.578275" lon="8.009410">
        <ele>501.986128</ele>
        <time>2021-11-20T17:35:42.517Z</time>
      </trkpt>
      <trkpt lat="47.578339" lon="8.009582">
        <ele>502.178833</ele>
        <time>2021-11-20T17:35:45.513Z</time>
      </trkpt>
      <trkpt lat="47.578506" lon="8.009815">
        <ele>502.512349</ele>
        <time>2021-11-20T17:35:49.093Z</time>
      </trkpt>
      <trkpt lat="47.578802" lon="8.010247">
        <ele>503.116428</ele>
        <time>2021-11-20T17:35:56.450Z</time>
      </trkpt>
      <trkpt lat="47.578877" lon="8.010552">
        <ele>503.386666</ele>
        <time>2021-11-20T17:36:00.500Z</time>
      </trkpt>
      <trkpt lat="47.578994" lon="8.011565">
        <ele>503.705449</ele>
        <time>2021-11-20T17:36:11.724Z</time>
      </trkpt>
      <trkpt lat="47.579083" lon="8.012800">
        <ele>504.090698</ele>
        <time>2021-11-20T17:36:25.351Z</time>
      </trkpt>
      <trkpt lat="47.579303" lon="8.013994">
        <ele>504.398430</ele>
        <time>2021-11-20T17:36:40.094Z</time>
      </trkpt>
      <trkpt lat="47.579390" lon="8.014221">
        <ele>504.457626</ele>
        <time>2021-11-20T17:36:42.648Z</time>
      </trkpt>
      <trkpt lat="47.579476" lon="8.014445">
        <ele>504.516064</ele>
        <time>2021-11-20T17:36:46.195Z</time>
      </trkpt>
      <trkpt lat="47.579677" lon="8.015285">
        <ele>504.718149</ele>
        <time>2021-11-20T17:36:55.825Z</time>
      </trkpt>
      <trkpt lat="47.579693" lon="8.015395">
        <ele>504.743663</ele>
        <time>2021-11-20T17:36:57.488Z</time>
      </trkpt>
      <trkpt lat="47.579782" lon="8.016013">
        <ele>504.768591</ele>
        <time>2021-11-20T17:37:03.089Z</time>
      </trkpt>
      <trkpt lat="47.579807" lon="8.016479">
        <ele>504.736701</ele>
        <time>2021-11-20T17:37:06.892Z</time>
      </trkpt>
      <trkpt lat="47.579770" lon="8.017313">
        <ele>504.679685</ele>
        <time>2021-11-20T17:37:13.879Z</time>
      </trkpt>
      <trkpt lat="47.579800" lon="8.017631">
        <ele>504.657781</ele>
        <time>2021-11-20T17:37:18.580Z</time>
      </trkpt>
      <trkpt lat="47.579827" lon="8.017916">
        <ele>504.638148</ele>
        <time>2021-11-20T17:37:21.216Z</time>
      </trkpt>
      <trkpt lat="47.579890" lon="8.018812">
        <ele>505.040329</ele>
        <time>2021-11-20T17:37:32.925Z</time>
      </trkpt>
      <trkpt lat="47.579943" lon="8.018927">
        <ele>505.148686</ele>
        <time>2021-11-20T17:37:34.072Z</time>
      </trkpt>
      <trkpt lat="47.580093" lon="8.019071">
        <ele>505.354793</ele>
        <time>2021-11-20T17:37:38.058Z</time>
      </trkpt>
      <trkpt lat="47.580282" lon="8.019086">
        <ele>505.573086</ele>
        <time>2021-11-20T17:37:40.448Z</time>
      </trkpt>
      <trkpt lat="47.580628" lon="8.018939">
        <ele>505.988205</ele>
        <time>2021-11-20T17:37:46.740Z</time>
      </trkpt>
      <trkpt lat="47.580782" lon="8.018916">
        <ele>506.166717</ele>
        <time>2021-11-20T17:37:51.376Z</time>
      </trkpt>
      <trkpt lat="47.580830" lon="8.018918">
        <ele>506.222100</ele>
        <time>2021-11-20T17:37:52.878Z</time>
      </trkpt>
      <trkpt lat="47.580916" lon="8.019035">
        <ele>506.356723</ele>
        <time>2021-11-20T17:37:55.268Z</time>
      </trkpt>
      <trkpt lat="47.580948" lon="8.019213">
        <ele>506.500037</ele>
        <time>2021-11-20T17:37:59.212Z</time>
      </trkpt>
      <trkpt lat="47.580955" lon="8.019317">
        <ele>506.581349</ele>
        <time>2021-11-20T17:38:01.340Z</time>
      </trkpt>
      <trkpt lat="47.581039" lon="8.019934">
        <ele>507.292823</ele>
        <time>2021-11-20T17:38:21.541Z</time>
      </trkpt>
      <trkpt lat="47.581122" lon="8.020572">
        <ele>508.091395</ele>
        <time>2021-11-20T17:38:41.067Z</time>
      </trkpt>
      <trkpt lat="47.581460" lon="8.022287">
        <ele>510.435770</ele>
        <time>2021-11-20T17:39:32.935Z</time>
      </trkpt>
      <trkpt lat="47.581487" lon="8.022614">
        <ele>511.027561</ele>
        <time>2021-11-20T17:39:43.011Z</time>
      </trkpt>
      <trkpt lat="47.581513" lon="8.022860">
        <ele>511.474854</ele>
        <time>2021-11-20T17:39:48.091Z</time>
      </trkpt>
      <trkpt lat="47.581748" lon="8.024404">
        <ele>514.318137</ele>
        <time>2021-11-20T17:40:21.259Z</time>
      </trkpt>
      <trkpt lat="47.581899" lon="8.025089">
        <ele>516.190868</ele>
        <time>2021-11-20T17:40:38.548Z</time>
      </trkpt>
      <trkpt lat="47.582058" lon="8.025575">
        <ele>517.815706</ele>
        <time>2021-11-20T17:40:51.975Z</time>
      </trkpt>
      <trkpt lat="47.582102" lon="8.025700">
        <ele>518.239842</ele>
        <time>2021-11-20T17:40:56.373Z</time>
      </trkpt>
      <trkpt lat="47.582199" lon="8.025829">
        <ele>518.820967</ele>
        <time>2021-11-20T17:41:00.480Z</time>
      </trkpt>
      <trkpt lat="47.582289" lon="8.025933">
        <ele>519.329851</ele>
        <time>2021-11-20T17:41:04.129Z</time>
      </trkpt>
      <trkpt lat="47.582388" lon="8.025991">
        <ele>519.804573</ele>
        <time>2021-11-20T17:41:09.318Z</time>
      </trkpt>
      <trkpt lat="47.582723" lon="8.026030">
        <ele>521.303131</ele>
        <time>2021-11-20T17:41:22.201Z</time>
      </trkpt>
      <trkpt lat="47.582993" lon="8.025956">
        <ele>522.527620</ele>
        <time>2021-11-20T17:41:31.844Z</time>
      </trkpt>
      <trkpt lat="47.583073" lon="8.025933">
        <ele>522.929191</ele>
        <time>2021-11-20T17:41:35.826Z</time>
      </trkpt>
      <trkpt lat="47.583464" lon="8.025921">
        <ele>525.255652</ele>
        <time>2021-11-20T17:41:54.140Z</time>
      </trkpt>
      <trkpt lat="47.583871" lon="8.026235">
        <ele>527.985003</ele>
        <time>2021-11-20T17:42:15.321Z</time>
      </trkpt>
      <trkpt lat="47.583918" lon="8.026237">
        <ele>528.264709</ele>
        <time>2021-11-20T17:42:18.146Z</time>
      </trkpt>
      <trkpt lat="47.583982" lon="8.026498">
        <ele>529.379026</ele>
        <time>2021-11-20T17:42:26.670Z</time>
      </trkpt>
      <trkpt lat="47.584046" lon="8.026676">
        <ele>530.188384</ele>
        <time>2021-11-20T17:42:32.185Z</time>
      </trkpt>
      <trkpt lat="47.584080" lon="8.026751">
        <ele>530.550973</ele>
        <time>2021-11-20T17:42:35.594Z</time>
      </trkpt>
      <trkpt lat="47.584134" lon="8.026675">
        <ele>530.993900</ele>
        <time>2021-11-20T17:42:39.521Z</time>
      </trkpt>
      <trkpt lat="47.584228" lon="8.026533">
        <ele>531.792226</ele>
        <time>2021-11-20T17:42:44.198Z</time>
      </trkpt>
      <trkpt lat="47.584244" lon="8.026509">
        <ele>531.927624</ele>
        <time>2021-11-20T17:42:45.091Z</time>
      </trkpt>
      <trkpt lat="47.584323" lon="8.026391">
        <ele>532.594729</ele>
        <time>2021-11-20T17:42:50.264Z</time>
      </trkpt>
      <trkpt lat="47.584372" lon="8.026311">
        <ele>533.028324</ele>
        <time>2021-11-20T17:42:54.143Z</time>
      </trkpt>
      <trkpt lat="47.585609" lon="8.024292">
        <ele>541.548915</ele>
        <time>2021-11-20T17:44:04.169Z</time>
      </trkpt>
      <trkpt lat="47.586233" lon="8.023109">
        <ele>545.696624</ele>
        <time>2021-11-20T17:44:40.521Z</time>
      </trkpt>
      <trkpt lat="47.586478" lon="8.022754">
        <ele>547.093615</ele>
        <time>2021-11-20T17:44:53.216Z</time>
      </trkpt>
      <trkpt lat="47.586795" lon="8.022396">
        <ele>548.718623</ele>
        <time>2021-11-20T17:45:07.926Z</time>
      </trkpt>
      <trkpt lat="47.587072" lon="8.021950">
        <ele>550.406479</ele>
        <time>2021-11-20T17:45:22.984Z</time>
      </trkpt>
      <trkpt lat="47.587257" lon="8.021642">
        <ele>551.557948</ele>
        <time>2021-11-20T17:45:33.149Z</time>
      </trkpt>
      <trkpt lat="47.587557" lon="8.021107">
        <ele>553.500412</ele>
        <time>2021-11-20T17:45:50.013Z</time>
      </trkpt>
      <trkpt lat="47.587801" lon="8.021555">
        <ele>555.108064</ele>
        <time>2021-11-20T17:46:03.187Z</time>
      </trkpt>
      <trkpt lat="47.587981" lon="8.021848">
        <ele>556.214554</ele>
        <time>2021-11-20T17:46:12.050Z</time>
      </trkpt>
      <trkpt lat="47.588224" lon="8.022086">
        <ele>558.048864</ele>
        <time>2021-11-20T17:46:24.878Z</time>
      </trkpt>
      <trkpt lat="47.588772" lon="8.022285">
        <ele>561.955706</ele>
        <time>2021-11-20T17:46:49.899Z</time>
      </trkpt>
      <trkpt lat="47.588947" lon="8.022297">
        <ele>563.168809</ele>
        <time>2021-11-20T17:46:58.356Z</time>
      </trkpt>
      <trkpt lat="47.589256" lon="8.022150">
        <ele>565.415953</ele>
        <time>2021-11-20T17:47:13.941Z</time>
      </trkpt>
      <trkpt lat="47.589392" lon="8.022010">
        <ele>566.562419</ele>
        <time>2021-11-20T17:47:21.019Z</time>
      </trkpt>
      <trkpt lat="47.589430" lon="8.021956">
        <ele>566.926893</ele>
        <time>2021-11-20T17:47:24.493Z</time>
      </trkpt>
      <trkpt lat="47.589615" lon="8.021880">
        <ele>568.256207</ele>
        <time>2021-11-20T17:47:34.497Z</time>
      </trkpt>
      <trkpt lat="47.589748" lon="8.021891">
        <ele>569.270928</ele>
        <time>2021-11-20T17:47:43.467Z</time>
      </trkpt>
      <trkpt lat="47.590116" lon="8.022103">
        <ele>573.064586</ele>
        <time>2021-11-20T17:48:08.904Z</time>
      </trkpt>
      <trkpt lat="47.590395" lon="8.022117">
        <ele>575.747048</ele>
        <time>2021-11-20T17:48:24.717Z</time>
      </trkpt>
      <trkpt lat="47.590755" lon="8.022031">
        <ele>579.250918</ele>
        <time>2021-11-20T17:48:48.780Z</time>
      </trkpt>
      <trkpt lat="47.591072" lon="8.022076">
        <ele>582.310917</ele>
        <time>2021-11-20T17:49:08.069Z</time>
      </trkpt>
      <trkpt lat="47.591115" lon="8.022129">
        <ele>582.848221</ele>
        <time>2021-11-20T17:49:13.325Z</time>
      </trkpt>
      <trkpt lat="47.591140" lon="8.022229">
        <ele>583.539364</ele>
        <time>2021-11-20T17:49:18.539Z</time>
      </trkpt>
      <trkpt lat="47.591167" lon="8.022562">
        <ele>585.712913</ele>
        <time>2021-11-20T17:49:26.549Z</time>
      </trkpt>
      <trkpt lat="47.591210" lon="8.023119">
        <ele>588.009707</ele>
        <time>2021-11-20T17:49:45.160Z</time>
      </trkpt>
      <trkpt lat="47.591205" lon="8.023265">
        <ele>588.551591</ele>
        <time>2021-11-20T17:49:52.874Z</time>
      </trkpt>
      <trkpt lat="47.591738" lon="8.023957">
        <ele>592.445375</ele>
        <time>2021-11-20T17:50:23.123Z</time>
      </trkpt>
      <trkpt lat="47.592067" lon="8.024331">
        <ele>594.723903</ele>
        <time>2021-11-20T17:50:36.790Z</time>
      </trkpt>
      <trkpt lat="47.592360" lon="8.024239">
        <ele>596.317023</ele>
        <time>2021-11-20T17:50:47.070Z</time>
      </trkpt>
      <trkpt lat="47.592875" lon="8.023855">
        <ele>598.840709</ele>
        <time>2021-11-20T17:51:04.291Z</time>
      </trkpt>
      <trkpt lat="47.593000" lon="8.023757">
        <ele>599.459745</ele>
        <time>2021-11-20T17:51:10.170Z</time>
      </trkpt>
      <trkpt lat="47.594098" lon="8.023267">
        <ele>604.427471</ele>
        <time>2021-11-20T17:51:57.197Z</time>
      </trkpt>
      <trkpt lat="47.594377" lon="8.023068">
        <ele>605.639871</ele>
        <time>2021-11-20T17:52:10.719Z</time>
      </trkpt>
      <trkpt lat="47.594831" lon="8.022718">
        <ele>607.643671</ele>
        <time>2021-11-20T17:52:30.509Z</time>
      </trkpt>
      <trkpt lat="47.595091" lon="8.022990">
        <ele>608.889723</ele>
        <time>2021-11-20T17:52:39.590Z</time>
      </trkpt>
      <trkpt lat="47.595671" lon="8.023213">
        <ele>611.086656</ele>
        <time>2021-11-20T17:52:55.019Z</time>
      </trkpt>
      <trkpt lat="47.596051" lon="8.023223">
        <ele>611.508128</ele>
        <time>2021-11-20T17:53:03.560Z</time>
      </trkpt>
      <trkpt lat="47.596148" lon="8.023345">
        <ele>611.649177</ele>
        <time>2021-11-20T17:53:05.912Z</time>
      </trkpt>
      <trkpt lat="47.596208" lon="8.023630">
        <ele>611.872454</ele>
        <time>2021-11-20T17:53:09.195Z</time>
      </trkpt>
      <trkpt lat="47.596116" lon="8.024152">
        <ele>612.275933</ele>
        <time>2021-11-20T17:53:15.103Z</time>
      </trkpt>
      <trkpt lat="47.596100" lon="8.024844">
        <ele>612.793736</ele>
        <time>2021-11-20T17:53:22.781Z</time>
      </trkpt>
      <trkpt lat="47.596129" lon="8.025134">
        <ele>613.012978</ele>
        <time>2021-11-20T17:53:26.444Z</time>
      </trkpt>
      <trkpt lat="47.596247" lon="8.025584">
        <ele>613.912809</ele>
        <time>2021-11-20T17:53:32.248Z</time>
      </trkpt>
      <trkpt lat="47.596374" lon="8.025833">
        <ele>614.503810</ele>
        <time>2021-11-20T17:53:36.962Z</time>
      </trkpt>
      <trkpt lat="47.596403" lon="8.026009">
        <ele>614.846782</ele>
        <time>2021-11-20T17:53:39.011Z</time>
      </trkpt>
      <trkpt lat="47.596391" lon="8.026066">
        <ele>614.959820</ele>
        <time>2021-11-20T17:53:40.382Z</time>
      </trkpt>
      <trkpt lat="47.596371" lon="8.026127">
        <ele>615.088219</ele>
        <time>2021-11-20T17:53:42.216Z</time>
      </trkpt>
      <trkpt lat="47.596351" lon="8.026188">
        <ele>615.216618</ele>
        <time>2021-11-20T17:53:43.712Z</time>
      </trkpt>
      <trkpt lat="47.596275" lon="8.026313">
        <ele>615.535222</ele>
        <time>2021-11-20T17:53:47.506Z</time>
      </trkpt>
      <trkpt lat="47.596214" lon="8.026449">
        <ele>615.844420</ele>
        <time>2021-11-20T17:53:50.907Z</time>
      </trkpt>
      <trkpt lat="47.596280" lon="8.026505">
        <ele>616.057878</ele>
        <time>2021-11-20T17:53:53.459Z</time>
      </trkpt>
      <trkpt lat="47.596433" lon="8.026770">
        <ele>616.718272</ele>
        <time>2021-11-20T17:54:00.370Z</time>
      </trkpt>
      <trkpt lat="47.596560" lon="8.027658">
        <ele>618.845078</ele>
        <time>2021-11-20T17:54:19.252Z</time>
      </trkpt>
      <trkpt lat="47.596702" lon="8.027901">
        <ele>620.134263</ele>
        <time>2021-11-20T17:54:26.056Z</time>
      </trkpt>
      <trkpt lat="47.596826" lon="8.027986">
        <ele>620.946466</ele>
        <time>2021-11-20T17:54:31.651Z</time>
      </trkpt>
      <trkpt lat="47.596954" lon="8.028045">
        <ele>621.743413</ele>
        <time>2021-11-20T17:54:36.234Z</time>
      </trkpt>
      <trkpt lat="47.597162" lon="8.027954">
        <ele>623.032783</ele>
        <time>2021-11-20T17:54:45.869Z</time>
      </trkpt>
      <trkpt lat="47.597667" lon="8.027380">
        <ele>626.815792</ele>
        <time>2021-11-20T17:55:11.315Z</time>
      </trkpt>
      <trkpt lat="47.597801" lon="8.027317">
        <ele>627.651576</ele>
        <time>2021-11-20T17:55:18.109Z</time>
      </trkpt>
      <trkpt lat="47.597967" lon="8.027239">
        <ele>628.686896</ele>
        <time>2021-11-20T17:55:24.293Z</time>
      </trkpt>
      <trkpt lat="47.598069" lon="8.027222">
        <ele>629.335346</ele>
        <time>2021-11-20T17:55:29.884Z</time>
      </trkpt>
      <trkpt lat="47.598361" lon="8.027263">
        <ele>631.204405</ele>
        <time>2021-11-20T17:55:41.673Z</time>
      </trkpt>
      <trkpt lat="47.598472" lon="8.027302">
        <ele>631.931321</ele>
        <time>2021-11-20T17:55:46.967Z</time>
      </trkpt>
      <trkpt lat="47.598821" lon="8.027385">
        <ele>634.183700</ele>
        <time>2021-11-20T17:56:00.420Z</time>
      </trkpt>
      <trkpt lat="47.599102" lon="8.027378">
        <ele>635.974593</ele>
        <time>2021-11-20T17:56:10.603Z</time>
      </trkpt>
      <trkpt lat="47.599389" lon="8.027316">
        <ele>637.822770</ele>
        <time>2021-11-20T17:56:21.000Z</time>
      </trkpt>
      <trkpt lat="47.599613" lon="8.027185">
        <ele>639.357165</ele>
        <time>2021-11-20T17:56:33.448Z</time>
      </trkpt>
      <trkpt lat="47.599844" lon="8.026999">
        <ele>641.110550</ele>
        <time>2021-11-20T17:56:43.328Z</time>
      </trkpt>
      <trkpt lat="47.600101" lon="8.026650">
        <ele>643.547285</ele>
        <time>2021-11-20T17:56:57.414Z</time>
      </trkpt>
      <trkpt lat="47.600516" lon="8.025753">
        <ele>648.676629</ele>
        <time>2021-11-20T17:57:28.174Z</time>
      </trkpt>
      <trkpt lat="47.600550" lon="8.025678">
        <ele>649.102756</ele>
        <time>2021-11-20T17:57:31.802Z</time>
      </trkpt>
      <trkpt lat="47.600581" lon="8.025609">
        <ele>649.493704</ele>
        <time>2021-11-20T17:57:35.521Z</time>
      </trkpt>
      <trkpt lat="47.601301" lon="8.024297">
        <ele>656.709421</ele>
        <time>2021-11-20T17:58:23.934Z</time>
      </trkpt>
      <trkpt lat="47.601427" lon="8.024003">
        <ele>658.084263</ele>
        <time>2021-11-20T17:58:33.473Z</time>
      </trkpt>
      <trkpt lat="47.601526" lon="8.023755">
        <ele>659.221688</ele>
        <time>2021-11-20T17:58:41.872Z</time>
      </trkpt>
      <trkpt lat="47.601889" lon="8.022433">
        <ele>664.413018</ele>
        <time>2021-11-20T17:59:12.278Z</time>
      </trkpt>
      <trkpt lat="47.602034" lon="8.021886">
        <ele>666.059432</ele>
        <time>2021-11-20T17:59:24.801Z</time>
      </trkpt>
      <trkpt lat="47.602462" lon="8.021174">
        <ele>668.731388</ele>
        <time>2021-11-20T17:59:44.264Z</time>
      </trkpt>
      <trkpt lat="47.602662" lon="8.020843">
        <ele>669.976390</ele>
        <time>2021-11-20T17:59:53.978Z</time>
      </trkpt>
      <trkpt lat="47.603104" lon="8.020091">
        <ele>672.406895</ele>
        <time>2021-11-20T18:00:16.115Z</time>
      </trkpt>
      <trkpt lat="47.603225" lon="8.019699">
        <ele>673.391064</ele>
        <time>2021-11-20T18:00:24.984Z</time>
      </trkpt>
      <trkpt lat="47.603538" lon="8.018606">
        <ele>676.101859</ele>
        <time>2021-11-20T18:00:47.360Z</time>
      </trkpt>
      <trkpt lat="47.603564" lon="8.018549">
        <ele>676.258956</ele>
        <time>2021-11-20T18:00:48.585Z</time>
      </trkpt>
      <trkpt lat="47.603949" lon="8.017906">
        <ele>677.150783</ele>
        <time>2021-11-20T18:01:01.866Z</time>
      </trkpt>
      <trkpt lat="47.604386" lon="8.017343">
        <ele>677.530216</ele>
        <time>2021-11-20T18:01:10.509Z</time>
      </trkpt>
      <trkpt lat="47.604931" lon="8.016761">
        <ele>677.970428</ele>
        <time>2021-11-20T18:01:20.267Z</time>
      </trkpt>
      <trkpt lat="47.605303" lon="8.016420">
        <ele>678.396026</ele>
        <time>2021-11-20T18:01:26.818Z</time>
      </trkpt>
      <trkpt lat="47.605349" lon="8.016390">
        <ele>678.453771</ele>
        <time>2021-11-20T18:01:27.595Z</time>
      </trkpt>
      <trkpt lat="47.605617" lon="8.016217">
        <ele>678.789643</ele>
        <time>2021-11-20T18:01:32.603Z</time>
      </trkpt>
      <trkpt lat="47.605788" lon="8.016160">
        <ele>678.991047</ele>
        <time>2021-11-20T18:01:36.007Z</time>
      </trkpt>
      <trkpt lat="47.607499" lon="8.015932">
        <ele>680.790108</ele>
        <time>2021-11-20T18:02:13.505Z</time>
      </trkpt>
      <trkpt lat="47.607936" lon="8.015773">
        <ele>681.197560</ele>
        <time>2021-11-20T18:02:22.278Z</time>
      </trkpt>
      <trkpt lat="47.607997" lon="8.015736">
        <ele>681.257238</ele>
        <time>2021-11-20T18:02:23.949Z</time>
      </trkpt>
      <trkpt lat="47.608546" lon="8.015408">
        <ele>681.660952</ele>
        <time>2021-11-20T18:02:33.648Z</time>
      </trkpt>
      <trkpt lat="47.608990" lon="8.015226">
        <ele>679.870038</ele>
        <time>2021-11-20T18:02:38.996Z</time>
      </trkpt>
      <trkpt lat="47.609093" lon="8.015216">
        <ele>679.468732</ele>
        <time>2021-11-20T18:02:40.044Z</time>
      </trkpt>
      <trkpt lat="47.609541" lon="8.015211">
        <ele>677.726923</ele>
        <time>2021-11-20T18:02:44.360Z</time>
      </trkpt>
      <trkpt lat="47.609987" lon="8.015356">
        <ele>675.951775</ele>
        <time>2021-11-20T18:02:48.531Z</time>
      </trkpt>
      <trkpt lat="47.610061" lon="8.015390">
        <ele>675.650588</ele>
        <time>2021-11-20T18:02:49.215Z</time>
      </trkpt>
      <trkpt lat="47.610254" lon="8.015477">
        <ele>674.866346</ele>
        <time>2021-11-20T18:02:51.068Z</time>
      </trkpt>
      <trkpt lat="47.611129" lon="8.015861">
        <ele>672.348094</ele>
        <time>2021-11-20T18:02:59.590Z</time>
      </trkpt>
      <trkpt lat="47.611516" lon="8.016031">
        <ele>671.246210</ele>
        <time>2021-11-20T18:03:03.663Z</time>
      </trkpt>
      <trkpt lat="47.611716" lon="8.016114">
        <ele>670.679233</ele>
        <time>2021-11-20T18:03:05.916Z</time>
      </trkpt>
      <trkpt lat="47.613333" lon="8.016808">
        <ele>675.481888</ele>
        <time>2021-11-20T18:03:56.793Z</time>
      </trkpt>
      <trkpt lat="47.613550" lon="8.016884">
        <ele>676.386099</ele>
        <time>2021-11-20T18:04:06.113Z</time>
      </trkpt>
      <trkpt lat="47.613763" lon="8.016931">
        <ele>677.261488</ele>
        <time>2021-11-20T18:04:14.648Z</time>
      </trkpt>
      <trkpt lat="47.614276" lon="8.016874">
        <ele>679.391204</ele>
        <time>2021-11-20T18:04:33.529Z</time>
      </trkpt>
      <trkpt lat="47.614450" lon="8.016786">
        <ele>680.152260</ele>
        <time>2021-11-20T18:04:39.966Z</time>
      </trkpt>
      <trkpt lat="47.614507" lon="8.016749">
        <ele>680.409837</ele>
        <time>2021-11-20T18:04:42.300Z</time>
      </trkpt>
      <trkpt lat="47.614952" lon="8.016327">
        <ele>682.596358</ele>
        <time>2021-11-20T18:04:58.907Z</time>
      </trkpt>
      <trkpt lat="47.615823" lon="8.015017">
        <ele>685.825424</ele>
        <time>2021-11-20T18:05:28.337Z</time>
      </trkpt>
      <trkpt lat="47.616313" lon="8.014507">
        <ele>686.792634</ele>
        <time>2021-11-20T18:05:39.175Z</time>
      </trkpt>
      <trkpt lat="47.616676" lon="8.014297">
        <ele>687.422213</ele>
        <time>2021-11-20T18:05:46.947Z</time>
      </trkpt>
      <trkpt lat="47.617120" lon="8.014238">
        <ele>688.348334</ele>
        <time>2021-11-20T18:05:56.134Z</time>
      </trkpt>
      <trkpt lat="47.617298" lon="8.014271">
        <ele>688.732757</ele>
        <time>2021-11-20T18:05:59.422Z</time>
      </trkpt>
      <trkpt lat="47.617593" lon="8.014382">
        <ele>689.384963</ele>
        <time>2021-11-20T18:06:05.869Z</time>
      </trkpt>
      <trkpt lat="47.617609" lon="8.014390">
        <ele>689.421146</ele>
        <time>2021-11-20T18:06:06.153Z</time>
      </trkpt>
      <trkpt lat="47.617879" lon="8.014526">
        <ele>690.032202</ele>
        <time>2021-11-20T18:06:12.574Z</time>
      </trkpt>
      <trkpt lat="47.618468" lon="8.014944">
        <ele>691.486501</ele>
        <time>2021-11-20T18:06:30.138Z</time>
      </trkpt>
      <trkpt lat="47.619151" lon="8.015995">
        <ele>695.375710</ele>
        <time>2021-11-20T18:07:01.119Z</time>
      </trkpt>
      <trkpt lat="47.619261" lon="8.016064">
        <ele>695.847717</ele>
        <time>2021-11-20T18:07:05.122Z</time>
      </trkpt>
      <trkpt lat="47.619394" lon="8.016117">
        <ele>696.391994</ele>
        <time>2021-11-20T18:07:09.594Z</time>
      </trkpt>
      <trkpt lat="47.619688" lon="8.016135">
        <ele>697.554933</ele>
        <time>2021-11-20T18:07:18.627Z</time>
      </trkpt>
      <trkpt lat="47.620051" lon="8.015912">
        <ele>698.911462</ele>
        <time>2021-11-20T18:07:30.595Z</time>
      </trkpt>
      <trkpt lat="47.620186" lon="8.015747">
        <ele>699.388394</ele>
        <time>2021-11-20T18:07:35.783Z</time>
      </trkpt>
      <trkpt lat="47.620328" lon="8.015989">
        <ele>699.978088</ele>
        <time>2021-11-20T18:07:42.250Z</time>
      </trkpt>
      <trkpt lat="47.620455" lon="8.016265">
        <ele>700.592277</ele>
        <time>2021-11-20T18:07:48.541Z</time>
      </trkpt>
      <trkpt lat="47.620586" lon="8.016714">
        <ele>701.491481</ele>
        <time>2021-11-20T18:07:56.897Z</time>
      </trkpt>
      <trkpt lat="47.620751" lon="8.017244">
        <ele>702.564443</ele>
        <time>2021-11-20T18:08:05.294Z</time>
      </trkpt>
      <trkpt lat="47.621349" lon="8.019187">
        <ele>705.715695</ele>
        <time>2021-11-20T18:08:36.170Z</time>
      </trkpt>
      <trkpt lat="47.621390" lon="8.019390">
        <ele>706.008220</ele>
        <time>2021-11-20T18:08:39.615Z</time>
      </trkpt>
      <trkpt lat="47.621403" lon="8.019573">
        <ele>706.262227</ele>
        <time>2021-11-20T18:08:42.465Z</time>
      </trkpt>
      <trkpt lat="47.621413" lon="8.020151">
        <ele>707.060344</ele>
        <time>2021-11-20T18:08:51.620Z</time>
      </trkpt>
      <trkpt lat="47.621418" lon="8.020418">
        <ele>707.879098</ele>
        <time>2021-11-20T18:08:56.804Z</time>
      </trkpt>
      <trkpt lat="47.621415" lon="8.020855">
        <ele>709.223398</ele>
        <time>2021-11-20T18:09:05.168Z</time>
      </trkpt>
      <trkpt lat="47.621400" lon="8.021174">
        <ele>710.207040</ele>
        <time>2021-11-20T18:09:12.623Z</time>
      </trkpt>
      <trkpt lat="47.621339" lon="8.021559">
        <ele>711.423596</ele>
        <time>2021-11-20T18:09:21.818Z</time>
      </trkpt>
      <trkpt lat="47.621234" lon="8.022131">
        <ele>713.247180</ele>
        <time>2021-11-20T18:09:35.799Z</time>
      </trkpt>
      <trkpt lat="47.621178" lon="8.022415">
        <ele>714.157394</ele>
        <time>2021-11-20T18:09:42.336Z</time>
      </trkpt>
      <trkpt lat="47.621155" lon="8.022607">
        <ele>714.757252</ele>
        <time>2021-11-20T18:09:48.194Z</time>
      </trkpt>
      <trkpt lat="47.621131" lon="8.023509">
        <ele>718.641302</ele>
        <time>2021-11-20T18:10:10.944Z</time>
      </trkpt>
      <trkpt lat="47.621327" lon="8.024700">
        <ele>724.257816</ele>
        <time>2021-11-20T18:10:45.253Z</time>
      </trkpt>
      <trkpt lat="47.621268" lon="8.025053">
        <ele>725.923964</ele>
        <time>2021-11-20T18:10:54.895Z</time>
      </trkpt>
      <trkpt lat="47.621054" lon="8.025784">
        <ele>730.378011</ele>
        <time>2021-11-20T18:11:22.448Z</time>
      </trkpt>
      <trkpt lat="47.621015" lon="8.026497">
        <ele>734.920871</ele>
        <time>2021-11-20T18:11:47.815Z</time>
      </trkpt>
      <trkpt lat="47.621074" lon="8.027044">
        <ele>738.438843</ele>
        <time>2021-11-20T18:12:07.691Z</time>
      </trkpt>
      <trkpt lat="47.621153" lon="8.027276">
        <ele>740.089521</ele>
        <time>2021-11-20T18:12:15.900Z</time>
      </trkpt>
      <trkpt lat="47.621202" lon="8.027392">
        <ele>740.958898</ele>
        <time>2021-11-20T18:12:23.455Z</time>
      </trkpt>
      <trkpt lat="47.621486" lon="8.027887">
        <ele>745.014712</ele>
        <time>2021-11-20T18:12:46.795Z</time>
      </trkpt>
      <trkpt lat="47.621660" lon="8.028299">
        <ele>747.755752</ele>
        <time>2021-11-20T18:13:05.134Z</time>
      </trkpt>
      <trkpt lat="47.621701" lon="8.028543">
        <ele>749.173458</ele>
        <time>2021-11-20T18:13:12.862Z</time>
      </trkpt>
      <trkpt lat="47.621668" lon="8.028864">
        <ele>751.004095</ele>
        <time>2021-11-20T18:13:25.785Z</time>
      </trkpt>
      <trkpt lat="47.621427" lon="8.029472">
        <ele>754.980632</ele>
        <time>2021-11-20T18:13:50.705Z</time>
      </trkpt>
      <trkpt lat="47.621272" lon="8.030058">
        <ele>758.529635</ele>
        <time>2021-11-20T18:14:07.555Z</time>
      </trkpt>
      <trkpt lat="47.621181" lon="8.030963">
        <ele>760.836455</ele>
        <time>2021-11-20T18:14:28.281Z</time>
      </trkpt>
      <trkpt lat="47.621187" lon="8.031301">
        <ele>761.448755</ele>
        <time>2021-11-20T18:14:35.117Z</time>
      </trkpt>
      <trkpt lat="47.621208" lon="8.031497">
        <ele>761.808150</ele>
        <time>2021-11-20T18:14:38.252Z</time>
      </trkpt>
      <trkpt lat="47.621242" lon="8.031732">
        <ele>762.243407</ele>
        <time>2021-11-20T18:14:42.351Z</time>
      </trkpt>
      <trkpt lat="47.621283" lon="8.031958">
        <ele>762.667237</ele>
        <time>2021-11-20T18:14:45.593Z</time>
      </trkpt>
      <trkpt lat="47.621424" lon="8.032671">
        <ele>764.012838</ele>
        <time>2021-11-20T18:14:54.730Z</time>
      </trkpt>
      <trkpt lat="47.621459" lon="8.033020">
        <ele>764.442893</ele>
        <time>2021-11-20T18:14:58.161Z</time>
      </trkpt>
      <trkpt lat="47.621518" lon="8.033887">
        <ele>765.029317</ele>
        <time>2021-11-20T18:15:06.729Z</time>
      </trkpt>
      <trkpt lat="47.621602" lon="8.034723">
        <ele>765.598130</ele>
        <time>2021-11-20T18:15:17.605Z</time>
      </trkpt>
      <trkpt lat="47.621739" lon="8.035537">
        <ele>766.316045</ele>
        <time>2021-11-20T18:15:29.644Z</time>
      </trkpt>
      <trkpt lat="47.621800" lon="8.035504">
        <ele>766.589726</ele>
        <time>2021-11-20T18:15:31.443Z</time>
      </trkpt>
      <trkpt lat="47.621839" lon="8.035483">
        <ele>766.764606</ele>
        <time>2021-11-20T18:15:32.730Z</time>
      </trkpt>
      <trkpt lat="47.621895" lon="8.035427">
        <ele>767.049264</ele>
        <time>2021-11-20T18:15:33.982Z</time>
      </trkpt>
      <trkpt lat="47.621969" lon="8.035336">
        <ele>767.454398</ele>
        <time>2021-11-20T18:15:36.240Z</time>
      </trkpt>
      <trkpt lat="47.622096" lon="8.035332">
        <ele>767.989836</ele>
        <time>2021-11-20T18:15:39.897Z</time>
      </trkpt>
      <trkpt lat="47.622386" lon="8.035423">
        <ele>769.239255</ele>
        <time>2021-11-20T18:15:47.780Z</time>
      </trkpt>
      <trkpt lat="47.622869" lon="8.035745">
        <ele>771.471233</ele>
        <time>2021-11-20T18:16:05.700Z</time>
      </trkpt>
      <trkpt lat="47.623318" lon="8.036520">
        <ele>774.590339</ele>
        <time>2021-11-20T18:16:33.428Z</time>
      </trkpt>
      <trkpt lat="47.623403" lon="8.036595">
        <ele>775.139822</ele>
        <time>2021-11-20T18:16:36.780Z</time>
      </trkpt>
      <trkpt lat="47.623595" lon="8.036595">
        <ele>776.206612</ele>
        <time>2021-11-20T18:16:44.112Z</time>
      </trkpt>
      <trkpt lat="47.623756" lon="8.036342">
        <ele>777.509638</ele>
        <time>2021-11-20T18:16:52.515Z</time>
      </trkpt>
      <trkpt lat="47.623843" lon="8.036111">
        <ele>778.500595</ele>
        <time>2021-11-20T18:16:59.752Z</time>
      </trkpt>
      <trkpt lat="47.623966" lon="8.035861">
        <ele>779.659708</ele>
        <time>2021-11-20T18:17:07.031Z</time>
      </trkpt>
      <trkpt lat="47.624178" lon="8.035535">
        <ele>781.356137</ele>
        <time>2021-11-20T18:17:18.282Z</time>
      </trkpt>
      <trkpt lat="47.624637" lon="8.034880">
        <ele>784.599628</ele>
        <time>2021-11-20T18:17:41.658Z</time>
      </trkpt>
      <trkpt lat="47.625181" lon="8.033903">
        <ele>788.183120</ele>
        <time>2021-11-20T18:18:10.110Z</time>
      </trkpt>
      <trkpt lat="47.625662" lon="8.032528">
        <ele>792.217780</ele>
        <time>2021-11-20T18:18:39.205Z</time>
      </trkpt>
      <trkpt lat="47.625665" lon="8.032516">
        <ele>792.244539</ele>
        <time>2021-11-20T18:18:39.606Z</time>
      </trkpt>
      <trkpt lat="47.625752" lon="8.032184">
        <ele>792.989275</ele>
        <time>2021-11-20T18:18:45.764Z</time>
      </trkpt>
      <trkpt lat="47.625909" lon="8.031070">
        <ele>795.368696</ele>
        <time>2021-11-20T18:19:06.943Z</time>
      </trkpt>
      <trkpt lat="47.626015" lon="8.029714">
        <ele>798.094251</ele>
        <time>2021-11-20T18:19:31.176Z</time>
      </trkpt>
      <trkpt lat="47.626062" lon="8.029503">
        <ele>798.516436</ele>
        <time>2021-11-20T18:19:35.142Z</time>
      </trkpt>
      <trkpt lat="47.626144" lon="8.029180">
        <ele>799.172164</ele>
        <time>2021-11-20T18:19:41.328Z</time>
      </trkpt>
      <trkpt lat="47.626471" lon="8.028423">
        <ele>800.880352</ele>
        <time>2021-11-20T18:19:57.129Z</time>
      </trkpt>
      <trkpt lat="47.627024" lon="8.027948">
        <ele>802.474555</ele>
        <time>2021-11-20T18:20:13.466Z</time>
      </trkpt>
      <trkpt lat="47.627092" lon="8.027815">
        <ele>802.709184</ele>
        <time>2021-11-20T18:20:16.568Z</time>
      </trkpt>
      <trkpt lat="47.627459" lon="8.027072">
        <ele>804.003871</ele>
        <time>2021-11-20T18:20:30.548Z</time>
      </trkpt>
      <trkpt lat="47.627933" lon="8.026393">
        <ele>805.377835</ele>
        <time>2021-11-20T18:20:45.442Z</time>
      </trkpt>
      <trkpt lat="47.628621" lon="8.025193">
        <ele>807.468887</ele>
        <time>2021-11-20T18:21:07.898Z</time>
      </trkpt>
      <trkpt lat="47.629730" lon="8.023556">
        <ele>812.013779</ele>
        <time>2021-11-20T18:21:45.332Z</time>
      </trkpt>
      <trkpt lat="47.629855" lon="8.023421">
        <ele>812.643101</ele>
        <time>2021-11-20T18:21:50.209Z</time>
      </trkpt>
      <trkpt lat="47.630151" lon="8.023101">
        <ele>814.133851</ele>
        <time>2021-11-20T18:22:02.412Z</time>
      </trkpt>
      <trkpt lat="47.630575" lon="8.022696">
        <ele>816.186436</ele>
        <time>2021-11-20T18:22:20.424Z</time>
      </trkpt>
      <trkpt lat="47.630871" lon="8.022367">
        <ele>818.639147</ele>
        <time>2021-11-20T18:22:36.213Z</time>
      </trkpt>
      <trkpt lat="47.631045" lon="8.021856">
        <ele>821.430318</ele>
        <time>2021-11-20T18:22:51.578Z</time>
      </trkpt>
      <trkpt lat="47.631199" lon="8.021557">
        <ele>823.264977</ele>
        <time>2021-11-20T18:23:00.685Z</time>
      </trkpt>
      <trkpt lat="47.631791" lon="8.020888">
        <ele>828.648137</ele>
        <time>2021-11-20T18:23:37.745Z</time>
      </trkpt>
      <trkpt lat="47.631812" lon="8.020823">
        <ele>828.999553</ele>
        <time>2021-11-20T18:23:42.683Z</time>
      </trkpt>
      <trkpt lat="47.631911" lon="8.020538">
        <ele>830.673691</ele>
        <time>2021-11-20T18:23:48.779Z</time>
      </trkpt>
      <trkpt lat="47.632121" lon="8.020405">
        <ele>832.495580</ele>
        <time>2021-11-20T18:24:02.793Z</time>
      </trkpt>
      <trkpt lat="47.632672" lon="8.020161">
        <ele>837.083772</ele>
        <time>2021-11-20T18:24:28.952Z</time>
      </trkpt>
      <trkpt lat="47.632993" lon="8.020133">
        <ele>839.649553</ele>
        <time>2021-11-20T18:24:44.180Z</time>
      </trkpt>
      <trkpt lat="47.633881" lon="8.020216">
        <ele>845.301825</ele>
        <time>2021-11-20T18:25:25.304Z</time>
      </trkpt>
      <trkpt lat="47.634199" lon="8.020336">
        <ele>846.618852</ele>
        <time>2021-11-20T18:25:36.747Z</time>
      </trkpt>
      <trkpt lat="47.634527" lon="8.020460">
        <ele>847.977445</ele>
        <time>2021-11-20T18:25:47.012Z</time>
      </trkpt>
      <trkpt lat="47.635655" lon="8.020130">
        <ele>851.220371</ele>
        <time>2021-11-20T18:26:12.085Z</time>
      </trkpt>
      <trkpt lat="47.636612" lon="8.020110">
        <ele>851.630853</ele>
        <time>2021-11-20T18:26:24.694Z</time>
      </trkpt>
      <trkpt lat="47.636951" lon="8.020194">
        <ele>851.778257</ele>
        <time>2021-11-20T18:26:30.284Z</time>
      </trkpt>
      <trkpt lat="47.638017" lon="8.020680">
        <ele>853.398972</ele>
        <time>2021-11-20T18:26:51.999Z</time>
      </trkpt>
      <trkpt lat="47.638217" lon="8.020729">
        <ele>853.717495</ele>
        <time>2021-11-20T18:26:56.814Z</time>
      </trkpt>
      <trkpt lat="47.638589" lon="8.020822">
        <ele>854.310273</ele>
        <time>2021-11-20T18:27:05.611Z</time>
      </trkpt>
      <trkpt lat="47.638879" lon="8.020839">
        <ele>854.834259</ele>
        <time>2021-11-20T18:27:12.617Z</time>
      </trkpt>
      <trkpt lat="47.640449" lon="8.020635">
        <ele>858.808104</ele>
        <time>2021-11-20T18:27:52.616Z</time>
      </trkpt>
      <trkpt lat="47.640905" lon="8.020708">
        <ele>859.747922</ele>
        <time>2021-11-20T18:28:03.770Z</time>
      </trkpt>
      <trkpt lat="47.641659" lon="8.020956">
        <ele>861.151163</ele>
        <time>2021-11-20T18:28:21.631Z</time>
      </trkpt>
      <trkpt lat="47.642591" lon="8.021203">
        <ele>862.707998</ele>
        <time>2021-11-20T18:28:40.306Z</time>
      </trkpt>
      <trkpt lat="47.642776" lon="8.021243">
        <ele>862.913670</ele>
        <time>2021-11-20T18:28:44.152Z</time>
      </trkpt>
      <trkpt lat="47.642903" lon="8.021271">
        <ele>863.054919</ele>
        <time>2021-11-20T18:28:46.657Z</time>
      </trkpt>
      <trkpt lat="47.643038" lon="8.021286">
        <ele>863.203851</ele>
        <time>2021-11-20T18:28:49.203Z</time>
      </trkpt>
      <trkpt lat="47.643353" lon="8.021179">
        <ele>863.559351</ele>
        <time>2021-11-20T18:28:55.428Z</time>
      </trkpt>
      <trkpt lat="47.643502" lon="8.021159">
        <ele>863.723938</ele>
        <time>2021-11-20T18:28:58.523Z</time>
      </trkpt>
      <trkpt lat="47.643877" lon="8.021077">
        <ele>864.140939</ele>
        <time>2021-11-20T18:29:06.135Z</time>
      </trkpt>
      <trkpt lat="47.644076" lon="8.020964">
        <ele>864.375338</ele>
        <time>2021-11-20T18:29:09.836Z</time>
      </trkpt>
      <trkpt lat="47.644214" lon="8.020840">
        <ele>864.280617</ele>
        <time>2021-11-20T18:29:12.820Z</time>
      </trkpt>
      <trkpt lat="47.644608" lon="8.020567">
        <ele>863.644212</ele>
        <time>2021-11-20T18:29:19.874Z</time>
      </trkpt>
      <trkpt lat="47.644824" lon="8.020484">
        <ele>863.317649</ele>
        <time>2021-11-20T18:29:23.152Z</time>
      </trkpt>
      <trkpt lat="47.645147" lon="8.020353">
        <ele>862.827570</ele>
        <time>2021-11-20T18:29:27.124Z</time>
      </trkpt>
      <trkpt lat="47.645411" lon="8.019621">
        <ele>862.008854</ele>
        <time>2021-11-20T18:29:32.924Z</time>
      </trkpt>
      <trkpt lat="47.645623" lon="8.019107">
        <ele>860.103182</ele>
        <time>2021-11-20T18:29:36.801Z</time>
      </trkpt>
      <trkpt lat="47.645749" lon="8.018850">
        <ele>858.732916</ele>
        <time>2021-11-20T18:29:38.824Z</time>
      </trkpt>
      <trkpt lat="47.645855" lon="8.018654">
        <ele>857.649376</ele>
        <time>2021-11-20T18:29:40.397Z</time>
      </trkpt>
      <trkpt lat="47.646127" lon="8.018327">
        <ele>855.409570</ele>
        <time>2021-11-20T18:29:43.594Z</time>
      </trkpt>
      <trkpt lat="47.646226" lon="8.018221">
        <ele>854.628452</ele>
        <time>2021-11-20T18:29:44.680Z</time>
      </trkpt>
      <trkpt lat="47.646408" lon="8.018030">
        <ele>853.202151</ele>
        <time>2021-11-20T18:29:46.669Z</time>
      </trkpt>
      <trkpt lat="47.647186" lon="8.017085">
        <ele>845.746124</ele>
        <time>2021-11-20T18:29:55.484Z</time>
      </trkpt>
      <trkpt lat="47.647422" lon="8.016743">
        <ele>843.022924</ele>
        <time>2021-11-20T18:29:58.368Z</time>
      </trkpt>
      <trkpt lat="47.647491" lon="8.016643">
        <ele>842.226703</ele>
        <time>2021-11-20T18:29:59.233Z</time>
      </trkpt>
      <trkpt lat="47.647585" lon="8.016520">
        <ele>841.192072</ele>
        <time>2021-11-20T18:30:00.345Z</time>
      </trkpt>
      <trkpt lat="47.648185" lon="8.015807">
        <ele>834.785854</ele>
        <time>2021-11-20T18:30:07.147Z</time>
      </trkpt>
      <trkpt lat="47.648216" lon="8.015785">
        <ele>834.473500</ele>
        <time>2021-11-20T18:30:07.435Z</time>
      </trkpt>
      <trkpt lat="47.648579" lon="8.015348">
        <ele>830.224868</ele>
        <time>2021-11-20T18:30:11.536Z</time>
      </trkpt>
      <trkpt lat="47.648715" lon="8.015087">
        <ele>828.204176</ele>
        <time>2021-11-20T18:30:13.537Z</time>
      </trkpt>
      <trkpt lat="47.648720" lon="8.015000">
        <ele>827.669454</ele>
        <time>2021-11-20T18:30:14.024Z</time>
      </trkpt>
      <trkpt lat="47.648655" lon="8.014964">
        <ele>827.038787</ele>
        <time>2021-11-20T18:30:14.633Z</time>
      </trkpt>
      <trkpt lat="47.648510" lon="8.015003">
        <ele>825.699212</ele>
        <time>2021-11-20T18:30:15.909Z</time>
      </trkpt>
      <trkpt lat="47.648217" lon="8.015082">
        <ele>822.992136</ele>
        <time>2021-11-20T18:30:18.476Z</time>
      </trkpt>
      <trkpt lat="47.647867" lon="8.015060">
        <ele>819.807635</ele>
        <time>2021-11-20T18:30:21.496Z</time>
      </trkpt>
      <trkpt lat="47.647702" lon="8.015006">
        <ele>818.334286</ele>
        <time>2021-11-20T18:30:23.004Z</time>
      </trkpt>
      <trkpt lat="47.647576" lon="8.014936">
        <ele>817.204523</ele>
        <time>2021-11-20T18:30:24.163Z</time>
      </trkpt>
      <trkpt lat="47.647547" lon="8.014920">
        <ele>816.944718</ele>
        <time>2021-11-20T18:30:24.422Z</time>
      </trkpt>
      <trkpt lat="47.647420" lon="8.014808">
        <ele>815.704213</ele>
        <time>2021-11-20T18:30:25.737Z</time>
      </trkpt>
      <trkpt lat="47.647310" lon="8.014651">
        <ele>814.422745</ele>
        <time>2021-11-20T18:30:27.032Z</time>
      </trkpt>
      <trkpt lat="47.647255" lon="8.014451">
        <ele>813.200645</ele>
        <time>2021-11-20T18:30:28.278Z</time>
      </trkpt>
      <trkpt lat="47.647151" lon="8.013658">
        <ele>808.630164</ele>
        <time>2021-11-20T18:30:33.047Z</time>
      </trkpt>
      <trkpt lat="47.647267" lon="8.012798">
        <ele>803.906323</ele>
        <time>2021-11-20T18:30:38.315Z</time>
      </trkpt>
      <trkpt lat="47.647267" lon="8.012758">
        <ele>803.848109</ele>
        <time>2021-11-20T18:30:38.536Z</time>
      </trkpt>
      <trkpt lat="47.647270" lon="8.012447">
        <ele>803.395448</ele>
        <time>2021-11-20T18:30:40.564Z</time>
      </trkpt>
      <trkpt lat="47.647269" lon="8.012183">
        <ele>803.011229</ele>
        <time>2021-11-20T18:30:42.195Z</time>
      </trkpt>
      <trkpt lat="47.647253" lon="8.011894">
        <ele>802.589214</ele>
        <time>2021-11-20T18:30:44.615Z</time>
      </trkpt>
      <trkpt lat="47.647254" lon="8.011528">
        <ele>802.056551</ele>
        <time>2021-11-20T18:30:47.161Z</time>
      </trkpt>
      <trkpt lat="47.647461" lon="8.011563">
        <ele>801.606485</ele>
        <time>2021-11-20T18:30:50.412Z</time>
      </trkpt>
      <trkpt lat="47.647700" lon="8.011578">
        <ele>801.089721</ele>
        <time>2021-11-20T18:30:53.090Z</time>
      </trkpt>
      <trkpt lat="47.647931" lon="8.011553">
        <ele>800.589377</ele>
        <time>2021-11-20T18:30:55.856Z</time>
      </trkpt>
      <trkpt lat="47.648139" lon="8.011511">
        <ele>800.135904</ele>
        <time>2021-11-20T18:31:00.679Z</time>
      </trkpt>
      <trkpt lat="47.648498" lon="8.011376">
        <ele>801.188245</ele>
        <time>2021-11-20T18:31:09.906Z</time>
      </trkpt>
      <trkpt lat="47.648808" lon="8.011136">
        <ele>802.256212</ele>
        <time>2021-11-20T18:31:19.327Z</time>
      </trkpt>
      <trkpt lat="47.650285" lon="8.009248">
        <ele>809.189688</ele>
        <time>2021-11-20T18:32:17.497Z</time>
      </trkpt>
      <trkpt lat="47.650513" lon="8.009097">
        <ele>810.238243</ele>
        <time>2021-11-20T18:32:26.478Z</time>
      </trkpt>
      <trkpt lat="47.651119" lon="8.008974">
        <ele>812.807058</ele>
        <time>2021-11-20T18:32:45.473Z</time>
      </trkpt>
      <trkpt lat="47.651195" lon="8.008934">
        <ele>813.145718</ele>
        <time>2021-11-20T18:32:49.391Z</time>
      </trkpt>
      <trkpt lat="47.651195" lon="8.008934">
        <ele>813.145718</ele>
        <time>2021-11-20T18:32:49.452Z</time>
      </trkpt>
      <trkpt lat="47.651228" lon="8.008918">
        <ele>813.276361</ele>
        <time>2021-11-20T18:32:50.656Z</time>
      </trkpt>
      <trkpt lat="47.651438" lon="8.008748">
        <ele>814.172272</ele>
        <time>2021-11-20T18:32:57.224Z</time>
      </trkpt>
      <trkpt lat="47.651879" lon="8.008189">
        <ele>816.344284</ele>
        <time>2021-11-20T18:33:17.352Z</time>
      </trkpt>
      <trkpt lat="47.652087" lon="8.008133">
        <ele>817.136060</ele>
        <time>2021-11-20T18:33:24.110Z</time>
      </trkpt>
      <trkpt lat="47.652247" lon="8.008164">
        <ele>817.740425</ele>
        <time>2021-11-20T18:33:29.459Z</time>
      </trkpt>
      <trkpt lat="47.652284" lon="8.008111">
        <ele>817.933006</ele>
        <time>2021-11-20T18:33:30.951Z</time>
      </trkpt>
      <trkpt lat="47.652540" lon="8.008064">
        <ele>818.899163</ele>
        <time>2021-11-20T18:33:39.294Z</time>
      </trkpt>
      <trkpt lat="47.653130" lon="8.008132">
        <ele>819.758836</ele>
        <time>2021-11-20T18:33:49.726Z</time>
      </trkpt>
      <trkpt lat="47.653304" lon="8.008178">
        <ele>819.689042</ele>
        <time>2021-11-20T18:33:53.348Z</time>
      </trkpt>
      <trkpt lat="47.653352" lon="8.008195">
        <ele>819.669555</ele>
        <time>2021-11-20T18:33:54.586Z</time>
      </trkpt>
      <trkpt lat="47.653604" lon="8.008244">
        <ele>819.569189</ele>
        <time>2021-11-20T18:33:57.763Z</time>
      </trkpt>
      <trkpt lat="47.653985" lon="8.008295">
        <ele>819.418120</ele>
        <time>2021-11-20T18:34:02.694Z</time>
      </trkpt>
      <trkpt lat="47.654099" lon="8.008291">
        <ele>819.373089</ele>
        <time>2021-11-20T18:34:04.283Z</time>
      </trkpt>
      <trkpt lat="47.654227" lon="8.008287">
        <ele>819.322530</ele>
        <time>2021-11-20T18:34:05.554Z</time>
      </trkpt>
      <trkpt lat="47.655113" lon="8.008121">
        <ele>818.204397</ele>
        <time>2021-11-20T18:34:15.433Z</time>
      </trkpt>
      <trkpt lat="47.656018" lon="8.007672">
        <ele>816.441417</ele>
        <time>2021-11-20T18:34:25.514Z</time>
      </trkpt>
      <trkpt lat="47.656969" lon="8.006897">
        <ele>817.183336</ele>
        <time>2021-11-20T18:34:39.987Z</time>
      </trkpt>
      <trkpt lat="47.657247" lon="8.006589">
        <ele>817.783911</ele>
        <time>2021-11-20T18:34:46.537Z</time>
      </trkpt>
      <trkpt lat="47.657452" lon="8.006244">
        <ele>818.320430</ele>
        <time>2021-11-20T18:34:54.664Z</time>
      </trkpt>
      <trkpt lat="47.657550" lon="8.006001">
        <ele>818.650728</ele>
        <time>2021-11-20T18:35:00.844Z</time>
      </trkpt>
      <trkpt lat="47.657644" lon="8.005702">
        <ele>819.317085</ele>
        <time>2021-11-20T18:35:09.139Z</time>
      </trkpt>
      <trkpt lat="47.657938" lon="8.004946">
        <ele>824.638045</ele>
        <time>2021-11-20T18:35:33.255Z</time>
      </trkpt>
      <trkpt lat="47.657834" lon="8.004898">
        <ele>825.623615</ele>
        <time>2021-11-20T18:35:38.157Z</time>
      </trkpt>
      <trkpt lat="47.657420" lon="8.004739">
        <ele>829.493405</ele>
        <time>2021-11-20T18:36:00.346Z</time>
      </trkpt>
      <trkpt lat="47.657324" lon="8.004684">
        <ele>830.424592</ele>
        <time>2021-11-20T18:36:07.607Z</time>
      </trkpt>
      <trkpt lat="47.657247" lon="8.004590">
        <ele>831.326716</ele>
        <time>2021-11-20T18:36:12.488Z</time>
      </trkpt>
      <trkpt lat="47.657132" lon="8.004275">
        <ele>833.510657</ele>
        <time>2021-11-20T18:36:29.175Z</time>
      </trkpt>
      <trkpt lat="47.656969" lon="8.003741">
        <ele>837.725134</ele>
        <time>2021-11-20T18:36:54.089Z</time>
      </trkpt>
      <trkpt lat="47.656953" lon="8.003197">
        <ele>842.201149</ele>
        <time>2021-11-20T18:37:19.044Z</time>
      </trkpt>
      <trkpt lat="47.656935" lon="8.002898">
        <ele>844.668767</ele>
        <time>2021-11-20T18:37:31.499Z</time>
      </trkpt>
      <trkpt lat="47.656897" lon="8.002752">
        <ele>845.955390</ele>
        <time>2021-11-20T18:37:40.475Z</time>
      </trkpt>
      <trkpt lat="47.656674" lon="8.001968">
        <ele>852.951055</ele>
        <time>2021-11-20T18:38:15.520Z</time>
      </trkpt>
      <trkpt lat="47.656351" lon="8.000403">
        <ele>863.840580</ele>
        <time>2021-11-20T18:39:22.171Z</time>
      </trkpt>
      <trkpt lat="47.656187" lon="8.000024">
        <ele>866.512075</ele>
        <time>2021-11-20T18:39:36.442Z</time>
      </trkpt>
      <trkpt lat="47.656041" lon="7.999637">
        <ele>869.142642</ele>
        <time>2021-11-20T18:39:49.659Z</time>
      </trkpt>
      <trkpt lat="47.655852" lon="7.999176">
        <ele>872.343209</ele>
        <time>2021-11-20T18:40:04.640Z</time>
      </trkpt>
      <trkpt lat="47.655398" lon="7.998167">
        <ele>876.315585</ele>
        <time>2021-11-20T18:40:34.615Z</time>
      </trkpt>
      <trkpt lat="47.655114" lon="7.997327">
        <ele>879.128139</ele>
        <time>2021-11-20T18:40:53.971Z</time>
      </trkpt>
      <trkpt lat="47.654874" lon="7.996741">
        <ele>881.037805</ele>
        <time>2021-11-20T18:41:07.556Z</time>
      </trkpt>
      <trkpt lat="47.654743" lon="7.996535">
        <ele>881.118802</ele>
        <time>2021-11-20T18:41:12.757Z</time>
      </trkpt>
      <trkpt lat="47.654647" lon="7.996410">
        <ele>881.173001</ele>
        <time>2021-11-20T18:41:15.666Z</time>
      </trkpt>
      <trkpt lat="47.654449" lon="7.996225">
        <ele>881.272302</ele>
        <time>2021-11-20T18:41:20.169Z</time>
      </trkpt>
      <trkpt lat="47.654183" lon="7.996088">
        <ele>881.391806</ele>
        <time>2021-11-20T18:41:25.876Z</time>
      </trkpt>
      <trkpt lat="47.654162" lon="7.996083">
        <ele>881.400834</ele>
        <time>2021-11-20T18:41:26.334Z</time>
      </trkpt>
      <trkpt lat="47.653925" lon="7.996027">
        <ele>881.502694</ele>
        <time>2021-11-20T18:41:29.577Z</time>
      </trkpt>
      <trkpt lat="47.653643" lon="7.996009">
        <ele>881.622500</ele>
        <time>2021-11-20T18:41:33.422Z</time>
      </trkpt>
      <trkpt lat="47.653510" lon="7.996035">
        <ele>881.679439</ele>
        <time>2021-11-20T18:41:35.215Z</time>
      </trkpt>
      <trkpt lat="47.653330" lon="7.996073">
        <ele>881.756608</ele>
        <time>2021-11-20T18:41:37.146Z</time>
      </trkpt>
      <trkpt lat="47.653098" lon="7.996155">
        <ele>880.951792</ele>
        <time>2021-11-20T18:41:39.978Z</time>
      </trkpt>
      <trkpt lat="47.653036" lon="7.996181">
        <ele>880.633403</ele>
        <time>2021-11-20T18:41:40.568Z</time>
      </trkpt>
      <trkpt lat="47.652710" lon="7.996359">
        <ele>878.916821</ele>
        <time>2021-11-20T18:41:44.071Z</time>
      </trkpt>
      <trkpt lat="47.652354" lon="7.996461">
        <ele>877.125031</ele>
        <time>2021-11-20T18:41:47.470Z</time>
      </trkpt>
      <trkpt lat="47.652053" lon="7.996547">
        <ele>875.610214</ele>
        <time>2021-11-20T18:41:50.316Z</time>
      </trkpt>
      <trkpt lat="47.651969" lon="7.996551">
        <ele>875.194880</ele>
        <time>2021-11-20T18:41:51.048Z</time>
      </trkpt>
      <trkpt lat="47.651930" lon="7.996553">
        <ele>875.002031</ele>
        <time>2021-11-20T18:41:51.400Z</time>
      </trkpt>
      <trkpt lat="47.651743" lon="7.996494">
        <ele>874.057251</ele>
        <time>2021-11-20T18:41:53.175Z</time>
      </trkpt>
      <trkpt lat="47.651491" lon="7.996362">
        <ele>872.655780</ele>
        <time>2021-11-20T18:41:55.547Z</time>
      </trkpt>
      <trkpt lat="47.651192" lon="7.996204">
        <ele>870.298653</ele>
        <time>2021-11-20T18:41:58.391Z</time>
      </trkpt>
      <trkpt lat="47.651064" lon="7.996154">
        <ele>869.315654</ele>
        <time>2021-11-20T18:41:59.572Z</time>
      </trkpt>
      <trkpt lat="47.650943" lon="7.996107">
        <ele>868.386751</ele>
        <time>2021-11-20T18:42:00.675Z</time>
      </trkpt>
      <trkpt lat="47.650884" lon="7.996084">
        <ele>867.933709</ele>
        <time>2021-11-20T18:42:01.218Z</time>
      </trkpt>
      <trkpt lat="47.650180" lon="7.995826">
        <ele>862.548228</ele>
        <time>2021-11-20T18:42:07.682Z</time>
      </trkpt>
      <trkpt lat="47.650100" lon="7.995767">
        <ele>861.884793</ele>
        <time>2021-11-20T18:42:08.464Z</time>
      </trkpt>
      <trkpt lat="47.649880" lon="7.995727">
        <ele>860.238675</ele>
        <time>2021-11-20T18:42:10.431Z</time>
      </trkpt>
      <trkpt lat="47.649633" lon="7.995910">
        <ele>858.199204</ele>
        <time>2021-11-20T18:42:12.879Z</time>
      </trkpt>
      <trkpt lat="47.649501" lon="7.996119">
        <ele>856.777266</ele>
        <time>2021-11-20T18:42:14.603Z</time>
      </trkpt>
      <trkpt lat="47.649446" lon="7.996217">
        <ele>856.144178</ele>
        <time>2021-11-20T18:42:15.364Z</time>
      </trkpt>
      <trkpt lat="47.649267" lon="7.996359">
        <ele>854.648843</ele>
        <time>2021-11-20T18:42:17.197Z</time>
      </trkpt>
      <trkpt lat="47.649036" lon="7.996383">
        <ele>852.942738</ele>
        <time>2021-11-20T18:42:19.272Z</time>
      </trkpt>
      <trkpt lat="47.649000" lon="7.996557">
        <ele>852.039293</ele>
        <time>2021-11-20T18:42:20.379Z</time>
      </trkpt>
      <trkpt lat="47.648943" lon="7.996727">
        <ele>851.096780</ele>
        <time>2021-11-20T18:42:21.518Z</time>
      </trkpt>
      <trkpt lat="47.648740" lon="7.996562">
        <ele>849.391595</ele>
        <time>2021-11-20T18:42:24.389Z</time>
      </trkpt>
      <trkpt lat="47.648425" lon="7.996532">
        <ele>847.065994</ele>
        <time>2021-11-20T18:42:28.401Z</time>
      </trkpt>
      <trkpt lat="47.648000" lon="7.996491">
        <ele>844.653712</ele>
        <time>2021-11-20T18:42:33.841Z</time>
      </trkpt>
      <trkpt lat="47.647514" lon="7.996025">
        <ele>841.701998</ele>
        <time>2021-11-20T18:42:41.514Z</time>
      </trkpt>
      <trkpt lat="47.647380" lon="7.995955">
        <ele>840.977275</ele>
        <time>2021-11-20T18:42:43.304Z</time>
      </trkpt>
      <trkpt lat="47.647323" lon="7.995930">
        <ele>840.674052</ele>
        <time>2021-11-20T18:42:44.062Z</time>
      </trkpt>
      <trkpt lat="47.647101" lon="7.995779">
        <ele>839.428236</ele>
        <time>2021-11-20T18:42:47.529Z</time>
      </trkpt>
      <trkpt lat="47.647045" lon="7.995675">
        <ele>838.970647</ele>
        <time>2021-11-20T18:42:48.714Z</time>
      </trkpt>
      <trkpt lat="47.647053" lon="7.995177">
        <ele>837.258549</ele>
        <time>2021-11-20T18:42:53.538Z</time>
      </trkpt>
      <trkpt lat="47.647038" lon="7.995032">
        <ele>837.238409</ele>
        <time>2021-11-20T18:42:55.650Z</time>
      </trkpt>
      <trkpt lat="47.646980" lon="7.994940">
        <ele>837.392755</ele>
        <time>2021-11-20T18:42:57.800Z</time>
      </trkpt>
      <trkpt lat="47.646888" lon="7.994902">
        <ele>837.566393</ele>
        <time>2021-11-20T18:42:59.167Z</time>
      </trkpt>
      <trkpt lat="47.646605" lon="7.994992">
        <ele>838.092646</ele>
        <time>2021-11-20T18:43:05.030Z</time>
      </trkpt>
      <trkpt lat="47.646196" lon="7.995247">
        <ele>838.899265</ele>
        <time>2021-11-20T18:43:14.785Z</time>
      </trkpt>
      <trkpt lat="47.645787" lon="7.995224">
        <ele>839.643477</ele>
        <time>2021-11-20T18:43:29.563Z</time>
      </trkpt>
      <trkpt lat="47.645698" lon="7.995252">
        <ele>839.808900</ele>
        <time>2021-11-20T18:43:33.856Z</time>
      </trkpt>
      <trkpt lat="47.645653" lon="7.995348">
        <ele>839.952165</ele>
        <time>2021-11-20T18:43:37.403Z</time>
      </trkpt>
      <trkpt lat="47.645591" lon="7.995851">
        <ele>840.873351</ele>
        <time>2021-11-20T18:43:51.743Z</time>
      </trkpt>
      <trkpt lat="47.645309" lon="7.996241">
        <ele>842.623382</ele>
        <time>2021-11-20T18:44:07.868Z</time>
      </trkpt>
      <trkpt lat="47.645055" lon="7.996521">
        <ele>844.059908</ele>
        <time>2021-11-20T18:44:21.163Z</time>
      </trkpt>
      <trkpt lat="47.644740" lon="7.996888">
        <ele>845.878110</ele>
        <time>2021-11-20T18:44:35.761Z</time>
      </trkpt>
      <trkpt lat="47.644596" lon="7.997035">
        <ele>846.671632</ele>
        <time>2021-11-20T18:44:40.898Z</time>
      </trkpt>
      <trkpt lat="47.644438" lon="7.997158">
        <ele>847.481696</ele>
        <time>2021-11-20T18:44:45.882Z</time>
      </trkpt>
      <trkpt lat="47.643844" lon="7.997483">
        <ele>849.180944</ele>
        <time>2021-11-20T18:45:02.930Z</time>
      </trkpt>
      <trkpt lat="47.642552" lon="7.998017">
        <ele>851.312164</ele>
        <time>2021-11-20T18:45:27.142Z</time>
      </trkpt>
      <trkpt lat="47.641770" lon="7.998048">
        <ele>853.278680</ele>
        <time>2021-11-20T18:45:44.345Z</time>
      </trkpt>
      <trkpt lat="47.641036" lon="7.997873">
        <ele>855.203878</ele>
        <time>2021-11-20T18:46:04.222Z</time>
      </trkpt>
      <trkpt lat="47.640815" lon="7.997823">
        <ele>855.782810</ele>
        <time>2021-11-20T18:46:10.559Z</time>
      </trkpt>
      <trkpt lat="47.640625" lon="7.997779">
        <ele>856.298252</ele>
        <time>2021-11-20T18:46:16.750Z</time>
      </trkpt>
      <trkpt lat="47.640155" lon="7.997748">
        <ele>857.614804</ele>
        <time>2021-11-20T18:46:31.452Z</time>
      </trkpt>
      <trkpt lat="47.639647" lon="7.997807">
        <ele>859.040743</ele>
        <time>2021-11-20T18:46:46.449Z</time>
      </trkpt>
      <trkpt lat="47.638986" lon="7.997647">
        <ele>860.914934</ele>
        <time>2021-11-20T18:47:03.343Z</time>
      </trkpt>
      <trkpt lat="47.638786" lon="7.997622">
        <ele>860.787807</ele>
        <time>2021-11-20T18:47:07.334Z</time>
      </trkpt>
      <trkpt lat="47.638668" lon="7.997624">
        <ele>860.517763</ele>
        <time>2021-11-20T18:47:08.674Z</time>
      </trkpt>
      <trkpt lat="47.637663" lon="7.997243">
        <ele>858.144110</ele>
        <time>2021-11-20T18:47:19.805Z</time>
      </trkpt>
      <trkpt lat="47.637224" lon="7.997041">
        <ele>857.092341</ele>
        <time>2021-11-20T18:47:24.227Z</time>
      </trkpt>
      <trkpt lat="47.637201" lon="7.997016">
        <ele>857.027101</ele>
        <time>2021-11-20T18:47:24.495Z</time>
      </trkpt>
      <trkpt lat="47.636864" lon="7.996812">
        <ele>855.115018</ele>
        <time>2021-11-20T18:47:27.924Z</time>
      </trkpt>
      <trkpt lat="47.636310" lon="7.996180">
        <ele>851.324579</ele>
        <time>2021-11-20T18:47:34.439Z</time>
      </trkpt>
      <trkpt lat="47.636073" lon="7.995739">
        <ele>849.262749</ele>
        <time>2021-11-20T18:47:37.957Z</time>
      </trkpt>
      <trkpt lat="47.635961" lon="7.995376">
        <ele>847.803427</ele>
        <time>2021-11-20T18:47:40.449Z</time>
      </trkpt>
      <trkpt lat="47.635644" lon="7.993534">
        <ele>838.902516</ele>
        <time>2021-11-20T18:47:52.061Z</time>
      </trkpt>
      <trkpt lat="47.635496" lon="7.992462">
        <ele>833.534855</ele>
        <time>2021-11-20T18:47:58.572Z</time>
      </trkpt>
      <trkpt lat="47.635416" lon="7.991898">
        <ele>830.294005</ele>
        <time>2021-11-20T18:48:01.942Z</time>
      </trkpt>
      <trkpt lat="47.635223" lon="7.991120">
        <ele>825.632298</ele>
        <time>2021-11-20T18:48:06.826Z</time>
      </trkpt>
      <trkpt lat="47.635172" lon="7.990723">
        <ele>823.359767</ele>
        <time>2021-11-20T18:48:09.206Z</time>
      </trkpt>
      <trkpt lat="47.635190" lon="7.990009">
        <ele>819.361810</ele>
        <time>2021-11-20T18:48:13.465Z</time>
      </trkpt>
      <trkpt lat="47.635202" lon="7.989852">
        <ele>818.609890</ele>
        <time>2021-11-20T18:48:14.383Z</time>
      </trkpt>
      <trkpt lat="47.635201" lon="7.989572">
        <ele>817.277413</ele>
        <time>2021-11-20T18:48:16.147Z</time>
      </trkpt>
      <trkpt lat="47.635279" lon="7.988526">
        <ele>812.269344</ele>
        <time>2021-11-20T18:48:22.570Z</time>
      </trkpt>
      <trkpt lat="47.635335" lon="7.988011">
        <ele>809.786873</ele>
        <time>2021-11-20T18:48:25.708Z</time>
      </trkpt>
      <trkpt lat="47.635440" lon="7.987355">
        <ele>806.555699</ele>
        <time>2021-11-20T18:48:31.505Z</time>
      </trkpt>
      <trkpt lat="47.635457" lon="7.987129">
        <ele>805.344789</ele>
        <time>2021-11-20T18:48:33.415Z</time>
      </trkpt>
      <trkpt lat="47.635422" lon="7.986299">
        <ele>800.916449</ele>
        <time>2021-11-20T18:48:40.755Z</time>
      </trkpt>
      <trkpt lat="47.635370" lon="7.985930">
        <ele>798.909039</ele>
        <time>2021-11-20T18:48:43.893Z</time>
      </trkpt>
      <trkpt lat="47.635166" lon="7.986036">
        <ele>797.201009</ele>
        <time>2021-11-20T18:48:45.758Z</time>
      </trkpt>
      <trkpt lat="47.634870" lon="7.986311">
        <ele>794.441356</ele>
        <time>2021-11-20T18:48:48.808Z</time>
      </trkpt>
      <trkpt lat="47.634415" lon="7.986884">
        <ele>790.528971</ele>
        <time>2021-11-20T18:48:54.089Z</time>
      </trkpt>
      <trkpt lat="47.634339" lon="7.986935">
        <ele>790.057024</ele>
        <time>2021-11-20T18:48:54.804Z</time>
      </trkpt>
      <trkpt lat="47.634251" lon="7.986971">
        <ele>789.540527</ele>
        <time>2021-11-20T18:48:55.612Z</time>
      </trkpt>
      <trkpt lat="47.634102" lon="7.987026">
        <ele>788.671762</ele>
        <time>2021-11-20T18:48:57.014Z</time>
      </trkpt>
      <trkpt lat="47.633835" lon="7.987140">
        <ele>787.099729</ele>
        <time>2021-11-20T18:48:59.549Z</time>
      </trkpt>
      <trkpt lat="47.633562" lon="7.987139">
        <ele>785.555030</ele>
        <time>2021-11-20T18:49:02.126Z</time>
      </trkpt>
      <trkpt lat="47.633095" lon="7.986989">
        <ele>782.851452</ele>
        <time>2021-11-20T18:49:06.889Z</time>
      </trkpt>
      <trkpt lat="47.633007" lon="7.986924">
        <ele>782.380894</ele>
        <time>2021-11-20T18:49:07.816Z</time>
      </trkpt>
      <trkpt lat="47.633442" lon="7.986219">
        <ele>782.537400</ele>
        <time>2021-11-20T18:49:15.208Z</time>
      </trkpt>
      <trkpt lat="47.633741" lon="7.985722">
        <ele>782.646483</ele>
        <time>2021-11-20T18:49:24.533Z</time>
      </trkpt>
      <trkpt lat="47.634382" lon="7.984814">
        <ele>782.907962</ele>
        <time>2021-11-20T18:49:45.061Z</time>
      </trkpt>
      <trkpt lat="47.634468" lon="7.984733">
        <ele>782.956813</ele>
        <time>2021-11-20T18:49:48.414Z</time>
      </trkpt>
      <trkpt lat="47.634506" lon="7.984696">
        <ele>782.978610</ele>
        <time>2021-11-20T18:49:48.927Z</time>
      </trkpt>
      <trkpt lat="47.634638" lon="7.984601">
        <ele>783.048968</ele>
        <time>2021-11-20T18:49:51.308Z</time>
      </trkpt>
      <trkpt lat="47.634817" lon="7.984495">
        <ele>783.141398</ele>
        <time>2021-11-20T18:49:55.903Z</time>
      </trkpt>
      <trkpt lat="47.635138" lon="7.984322">
        <ele>783.305186</ele>
        <time>2021-11-20T18:50:01.946Z</time>
      </trkpt>
      <trkpt lat="47.635100" lon="7.984285">
        <ele>783.326983</ele>
        <time>2021-11-20T18:50:06.300Z</time>
      </trkpt>
      <trkpt lat="47.634615" lon="7.984545">
        <ele>783.574298</ele>
        <time>2021-11-20T18:51:02.913Z</time>
      </trkpt>
      <trkpt lat="47.634230" lon="7.984918">
        <ele>783.454831</ele>
        <time>2021-11-20T18:51:52.550Z</time>
      </trkpt>
      <trkpt lat="47.633227" lon="7.986501">
        <ele>782.130576</ele>
        <time>2021-11-20T18:54:27.219Z</time>
      </trkpt>
      <trkpt lat="47.634230" lon="7.984918">
        <ele>784.101868</ele>
        <time>2021-11-20T18:57:20.130Z</time>
      </trkpt>
      <trkpt lat="47.634615" lon="7.984545">
        <ele>784.770933</ele>
        <time>2021-11-20T18:58:15.588Z</time>
      </trkpt>
      <trkpt lat="47.635100" lon="7.984285">
        <ele>785.304005</ele>
        <time>2021-11-20T18:59:16.496Z</time>
      </trkpt>
      <trkpt lat="47.635138" lon="7.984322">
        <ele>785.350987</ele>
        <time>2021-11-20T18:59:22.838Z</time>
      </trkpt>
      <trkpt lat="47.635311" lon="7.984184">
        <ele>785.554022</ele>
        <time>2021-11-20T18:59:26.025Z</time>
      </trkpt>
      <trkpt lat="47.635363" lon="7.984125">
        <ele>785.621688</ele>
        <time>2021-11-20T18:59:27.268Z</time>
      </trkpt>
      <trkpt lat="47.635550" lon="7.983913">
        <ele>785.864949</ele>
        <time>2021-11-20T18:59:31.794Z</time>
      </trkpt>
      <trkpt lat="47.636167" lon="7.983425">
        <ele>786.587694</ele>
        <time>2021-11-20T18:59:43.296Z</time>
      </trkpt>
      <trkpt lat="47.636362" lon="7.983140">
        <ele>786.739103</ele>
        <time>2021-11-20T18:59:47.435Z</time>
      </trkpt>
      <trkpt lat="47.636470" lon="7.982623">
        <ele>786.937881</ele>
        <time>2021-11-20T18:59:51.641Z</time>
      </trkpt>
      <trkpt lat="47.636685" lon="7.980585">
        <ele>788.302134</ele>
        <time>2021-11-20T19:00:17.070Z</time>
      </trkpt>
      <trkpt lat="47.636717" lon="7.980417">
        <ele>788.683216</ele>
        <time>2021-11-20T19:00:19.898Z</time>
      </trkpt>
      <trkpt lat="47.636749" lon="7.980255">
        <ele>789.051712</ele>
        <time>2021-11-20T19:00:23.326Z</time>
      </trkpt>
      <trkpt lat="47.636898" lon="7.979438">
        <ele>790.899228</ele>
        <time>2021-11-20T19:00:38.650Z</time>
      </trkpt>
      <trkpt lat="47.636860" lon="7.978383">
        <ele>793.205372</ele>
        <time>2021-11-20T19:01:01.408Z</time>
      </trkpt>
      <trkpt lat="47.637178" lon="7.977129">
        <ele>797.178629</ele>
        <time>2021-11-20T19:01:32.655Z</time>
      </trkpt>
      <trkpt lat="47.637166" lon="7.976669">
        <ele>798.569319</ele>
        <time>2021-11-20T19:01:42.726Z</time>
      </trkpt>
      <trkpt lat="47.637104" lon="7.976387">
        <ele>799.465436</ele>
        <time>2021-11-20T19:01:48.953Z</time>
      </trkpt>
      <trkpt lat="47.636964" lon="7.975901">
        <ele>801.062174</ele>
        <time>2021-11-20T19:02:00.064Z</time>
      </trkpt>
      <trkpt lat="47.636945" lon="7.975599">
        <ele>801.968157</ele>
        <time>2021-11-20T19:02:06.451Z</time>
      </trkpt>
      <trkpt lat="47.637015" lon="7.975296">
        <ele>802.916435</ele>
        <time>2021-11-20T19:02:13.183Z</time>
      </trkpt>
      <trkpt lat="47.637233" lon="7.974898">
        <ele>804.434873</ele>
        <time>2021-11-20T19:02:24.447Z</time>
      </trkpt>
      <trkpt lat="47.638035" lon="7.974142">
        <ele>808.609171</ele>
        <time>2021-11-20T19:02:56.610Z</time>
      </trkpt>
      <trkpt lat="47.638252" lon="7.973962">
        <ele>809.669339</ele>
        <time>2021-11-20T19:03:04.053Z</time>
      </trkpt>
      <trkpt lat="47.638636" lon="7.973699">
        <ele>811.350184</ele>
        <time>2021-11-20T19:03:16.745Z</time>
      </trkpt>
      <trkpt lat="47.638659" lon="7.973682">
        <ele>811.452304</ele>
        <time>2021-11-20T19:03:17.882Z</time>
      </trkpt>
      <trkpt lat="47.638981" lon="7.973418">
        <ele>812.914356</ele>
        <time>2021-11-20T19:03:29.101Z</time>
      </trkpt>
      <trkpt lat="47.639090" lon="7.973306">
        <ele>813.441260</ele>
        <time>2021-11-20T19:03:33.127Z</time>
      </trkpt>
      <trkpt lat="47.639276" lon="7.972938">
        <ele>814.673187</ele>
        <time>2021-11-20T19:03:42.763Z</time>
      </trkpt>
      <trkpt lat="47.639406" lon="7.972397">
        <ele>816.211321</ele>
        <time>2021-11-20T19:03:54.844Z</time>
      </trkpt>
      <trkpt lat="47.639559" lon="7.972018">
        <ele>817.422491</ele>
        <time>2021-11-20T19:04:03.658Z</time>
      </trkpt>
      <trkpt lat="47.640091" lon="7.971291">
        <ele>820.388110</ele>
        <time>2021-11-20T19:04:23.499Z</time>
      </trkpt>
      <trkpt lat="47.640810" lon="7.969935">
        <ele>825.668856</ele>
        <time>2021-11-20T19:05:02.785Z</time>
      </trkpt>
      <trkpt lat="47.640891" lon="7.969731">
        <ele>826.588237</ele>
        <time>2021-11-20T19:05:09.278Z</time>
      </trkpt>
      <trkpt lat="47.640944" lon="7.969376">
        <ele>828.000033</ele>
        <time>2021-11-20T19:05:17.432Z</time>
      </trkpt>
      <trkpt lat="47.640935" lon="7.969224">
        <ele>828.592480</ele>
        <time>2021-11-20T19:05:22.276Z</time>
      </trkpt>
      <trkpt lat="47.640883" lon="7.969015">
        <ele>829.457527</ele>
        <time>2021-11-20T19:05:27.560Z</time>
      </trkpt>
      <trkpt lat="47.640375" lon="7.968035">
        <ele>834.258765</ele>
        <time>2021-11-20T19:06:00.314Z</time>
      </trkpt>
      <trkpt lat="47.640078" lon="7.967066">
        <ele>838.828530</ele>
        <time>2021-11-20T19:06:30.691Z</time>
      </trkpt>
      <trkpt lat="47.639789" lon="7.965749">
        <ele>844.774296</ele>
        <time>2021-11-20T19:07:09.270Z</time>
      </trkpt>
      <trkpt lat="47.639729" lon="7.964910">
        <ele>846.877756</ele>
        <time>2021-11-20T19:07:30.256Z</time>
      </trkpt>
      <trkpt lat="47.639730" lon="7.964417">
        <ele>847.795940</ele>
        <time>2021-11-20T19:07:40.336Z</time>
      </trkpt>
      <trkpt lat="47.639767" lon="7.964127">
        <ele>848.345643</ele>
        <time>2021-11-20T19:07:45.455Z</time>
      </trkpt>
      <trkpt lat="47.639823" lon="7.963883">
        <ele>848.825716</ele>
        <time>2021-11-20T19:07:49.884Z</time>
      </trkpt>
      <trkpt lat="47.639917" lon="7.963604">
        <ele>849.406674</ele>
        <time>2021-11-20T19:07:54.537Z</time>
      </trkpt>
      <trkpt lat="47.640083" lon="7.963229">
        <ele>850.242324</ele>
        <time>2021-11-20T19:07:59.769Z</time>
      </trkpt>
      <trkpt lat="47.640149" lon="7.963092">
        <ele>850.555986</ele>
        <time>2021-11-20T19:08:01.868Z</time>
      </trkpt>
      <trkpt lat="47.640333" lon="7.962705">
        <ele>849.884051</ele>
        <time>2021-11-20T19:08:05.817Z</time>
      </trkpt>
      <trkpt lat="47.640559" lon="7.962232">
        <ele>848.733080</ele>
        <time>2021-11-20T19:08:09.979Z</time>
      </trkpt>
      <trkpt lat="47.640628" lon="7.962020">
        <ele>848.265755</ele>
        <time>2021-11-20T19:08:11.608Z</time>
      </trkpt>
      <trkpt lat="47.640752" lon="7.961642">
        <ele>847.431259</ele>
        <time>2021-11-20T19:08:14.396Z</time>
      </trkpt>
      <trkpt lat="47.640767" lon="7.961523">
        <ele>847.190957</ele>
        <time>2021-11-20T19:08:15.172Z</time>
      </trkpt>
      <trkpt lat="47.640787" lon="7.961359">
        <ele>846.860144</ele>
        <time>2021-11-20T19:08:16.195Z</time>
      </trkpt>
      <trkpt lat="47.640808" lon="7.961104">
        <ele>846.350227</ele>
        <time>2021-11-20T19:08:17.966Z</time>
      </trkpt>
      <trkpt lat="47.640798" lon="7.960852">
        <ele>845.849165</ele>
        <time>2021-11-20T19:08:19.525Z</time>
      </trkpt>
      <trkpt lat="47.640720" lon="7.960375">
        <ele>844.693843</ele>
        <time>2021-11-20T19:08:22.781Z</time>
      </trkpt>
      <trkpt lat="47.640711" lon="7.960295">
        <ele>844.475957</ele>
        <time>2021-11-20T19:08:23.257Z</time>
      </trkpt>
      <trkpt lat="47.640685" lon="7.960045">
        <ele>843.796404</ele>
        <time>2021-11-20T19:08:25.128Z</time>
      </trkpt>
      <trkpt lat="47.640685" lon="7.959821">
        <ele>843.194651</ele>
        <time>2021-11-20T19:08:26.540Z</time>
      </trkpt>
      <trkpt lat="47.640685" lon="7.959768">
        <ele>843.052272</ele>
        <time>2021-11-20T19:08:26.852Z</time>
      </trkpt>
      <trkpt lat="47.640717" lon="7.959400">
        <ele>842.055479</ele>
        <time>2021-11-20T19:08:29.436Z</time>
      </trkpt>
      <trkpt lat="47.640762" lon="7.959173">
        <ele>841.419822</ele>
        <time>2021-11-20T19:08:30.929Z</time>
      </trkpt>
      <trkpt lat="47.640856" lon="7.958970">
        <ele>840.758115</ele>
        <time>2021-11-20T19:08:32.686Z</time>
      </trkpt>
      <trkpt lat="47.640871" lon="7.958934">
        <ele>840.644407</ele>
        <time>2021-11-20T19:08:32.949Z</time>
      </trkpt>
      <trkpt lat="47.640964" lon="7.958802">
        <ele>840.131344</ele>
        <time>2021-11-20T19:08:34.101Z</time>
      </trkpt>
      <trkpt lat="47.641188" lon="7.958634">
        <ele>839.130686</ele>
        <time>2021-11-20T19:08:36.713Z</time>
      </trkpt>
      <trkpt lat="47.641294" lon="7.958578">
        <ele>838.682081</ele>
        <time>2021-11-20T19:08:37.733Z</time>
      </trkpt>
      <trkpt lat="47.641418" lon="7.958516">
        <ele>838.178654</ele>
        <time>2021-11-20T19:08:39.263Z</time>
      </trkpt>
      <trkpt lat="47.641482" lon="7.958477">
        <ele>837.993709</ele>
        <time>2021-11-20T19:08:39.964Z</time>
      </trkpt>
      <trkpt lat="47.641574" lon="7.958423">
        <ele>837.729239</ele>
        <time>2021-11-20T19:08:40.904Z</time>
      </trkpt>
      <trkpt lat="47.641842" lon="7.958150">
        <ele>836.860310</ele>
        <time>2021-11-20T19:08:44.228Z</time>
      </trkpt>
      <trkpt lat="47.641947" lon="7.957833">
        <ele>836.224092</ele>
        <time>2021-11-20T19:08:46.732Z</time>
      </trkpt>
      <trkpt lat="47.641955" lon="7.957683">
        <ele>835.953080</ele>
        <time>2021-11-20T19:08:47.734Z</time>
      </trkpt>
      <trkpt lat="47.641947" lon="7.957536">
        <ele>835.687454</ele>
        <time>2021-11-20T19:08:48.677Z</time>
      </trkpt>
      <trkpt lat="47.641798" lon="7.957096">
        <ele>834.800496</ele>
        <time>2021-11-20T19:08:52.221Z</time>
      </trkpt>
      <trkpt lat="47.641550" lon="7.956851">
        <ele>834.004106</ele>
        <time>2021-11-20T19:08:55.520Z</time>
      </trkpt>
      <trkpt lat="47.641084" lon="7.956545">
        <ele>833.634603</ele>
        <time>2021-11-20T19:09:01.190Z</time>
      </trkpt>
      <trkpt lat="47.640991" lon="7.956380">
        <ele>833.749436</ele>
        <time>2021-11-20T19:09:03.290Z</time>
      </trkpt>
      <trkpt lat="47.640998" lon="7.956247">
        <ele>833.820649</ele>
        <time>2021-11-20T19:09:04.357Z</time>
      </trkpt>
      <trkpt lat="47.641056" lon="7.956097">
        <ele>833.912969</ele>
        <time>2021-11-20T19:09:05.695Z</time>
      </trkpt>
      <trkpt lat="47.640501" lon="7.955695">
        <ele>834.402248</ele>
        <time>2021-11-20T19:09:19.291Z</time>
      </trkpt>
      <trkpt lat="47.640167" lon="7.955381">
        <ele>834.715486</ele>
        <time>2021-11-20T19:09:28.473Z</time>
      </trkpt>
      <trkpt lat="47.639795" lon="7.954985">
        <ele>835.839790</ele>
        <time>2021-11-20T19:09:39.745Z</time>
      </trkpt>
      <trkpt lat="47.639696" lon="7.954882">
        <ele>836.232712</ele>
        <time>2021-11-20T19:09:43.345Z</time>
      </trkpt>
      <trkpt lat="47.639497" lon="7.954714">
        <ele>836.976753</ele>
        <time>2021-11-20T19:09:49.606Z</time>
      </trkpt>
      <trkpt lat="47.639207" lon="7.954547">
        <ele>837.987686</ele>
        <time>2021-11-20T19:09:58.538Z</time>
      </trkpt>
      <trkpt lat="47.638760" lon="7.954525">
        <ele>839.441192</ele>
        <time>2021-11-20T19:10:11.512Z</time>
      </trkpt>
      <trkpt lat="47.637932" lon="7.954791">
        <ele>842.658503</ele>
        <time>2021-11-20T19:10:36.592Z</time>
      </trkpt>
      <trkpt lat="47.637714" lon="7.954725">
        <ele>843.602864</ele>
        <time>2021-11-20T19:10:42.872Z</time>
      </trkpt>
      <trkpt lat="47.637492" lon="7.954483">
        <ele>844.772023</ele>
        <time>2021-11-20T19:10:50.730Z</time>
      </trkpt>
      <trkpt lat="47.637400" lon="7.954079">
        <ele>845.991679</ele>
        <time>2021-11-20T19:10:59.481Z</time>
      </trkpt>
      <trkpt lat="47.637300" lon="7.951504">
        <ele>854.587433</ele>
        <time>2021-11-20T19:12:03.874Z</time>
      </trkpt>
      <trkpt lat="47.637306" lon="7.951326">
        <ele>855.220044</ele>
        <time>2021-11-20T19:12:09.157Z</time>
      </trkpt>
      <trkpt lat="47.637337" lon="7.951149">
        <ele>855.869190</ele>
        <time>2021-11-20T19:12:13.296Z</time>
      </trkpt>
      <trkpt lat="47.637383" lon="7.950993">
        <ele>856.473619</ele>
        <time>2021-11-20T19:12:16.579Z</time>
      </trkpt>
      <trkpt lat="47.637451" lon="7.950859">
        <ele>857.069057</ele>
        <time>2021-11-20T19:12:21.268Z</time>
      </trkpt>
      <trkpt lat="47.637598" lon="7.950642">
        <ele>857.969726</ele>
        <time>2021-11-20T19:12:27.552Z</time>
      </trkpt>
      <trkpt lat="47.637813" lon="7.950431">
        <ele>858.632041</ele>
        <time>2021-11-20T19:12:36.225Z</time>
      </trkpt>
      <trkpt lat="47.638433" lon="7.949786">
        <ele>860.577573</ele>
        <time>2021-11-20T19:12:57.562Z</time>
      </trkpt>
      <trkpt lat="47.638845" lon="7.949151">
        <ele>862.103823</ele>
        <time>2021-11-20T19:13:09.250Z</time>
      </trkpt>
      <trkpt lat="47.639038" lon="7.948758">
        <ele>862.205387</ele>
        <time>2021-11-20T19:13:14.143Z</time>
      </trkpt>
      <trkpt lat="47.639170" lon="7.948455">
        <ele>861.968451</ele>
        <time>2021-11-20T19:13:17.407Z</time>
      </trkpt>
      <trkpt lat="47.639254" lon="7.948202">
        <ele>861.783239</ele>
        <time>2021-11-20T19:13:19.957Z</time>
      </trkpt>
      <trkpt lat="47.639305" lon="7.947792">
        <ele>861.509456</ele>
        <time>2021-11-20T19:13:23.279Z</time>
      </trkpt>
      <trkpt lat="47.639245" lon="7.947417">
        <ele>861.256358</ele>
        <time>2021-11-20T19:13:26.234Z</time>
      </trkpt>
      <trkpt lat="47.639171" lon="7.947230">
        <ele>861.113949</ele>
        <time>2021-11-20T19:13:28.081Z</time>
      </trkpt>
      <trkpt lat="47.639079" lon="7.947097">
        <ele>860.988782</ele>
        <time>2021-11-20T19:13:29.342Z</time>
      </trkpt>
      <trkpt lat="47.638801" lon="7.946735">
        <ele>860.622229</ele>
        <time>2021-11-20T19:13:33.435Z</time>
      </trkpt>
      <trkpt lat="47.638633" lon="7.946522">
        <ele>860.359359</ele>
        <time>2021-11-20T19:13:36.182Z</time>
      </trkpt>
      <trkpt lat="47.638601" lon="7.946470">
        <ele>860.302906</ele>
        <time>2021-11-20T19:13:36.737Z</time>
      </trkpt>
      <trkpt lat="47.638490" lon="7.946296">
        <ele>860.110829</ele>
        <time>2021-11-20T19:13:38.403Z</time>
      </trkpt>
      <trkpt lat="47.638187" lon="7.945494">
        <ele>859.373765</ele>
        <time>2021-11-20T19:13:45.912Z</time>
      </trkpt>
      <trkpt lat="47.638180" lon="7.945471">
        <ele>859.353534</ele>
        <time>2021-11-20T19:13:46.054Z</time>
      </trkpt>
      <trkpt lat="47.638087" lon="7.945165">
        <ele>859.084439</ele>
        <time>2021-11-20T19:13:49.012Z</time>
      </trkpt>
      <trkpt lat="47.637977" lon="7.944887">
        <ele>858.826004</ele>
        <time>2021-11-20T19:13:51.478Z</time>
      </trkpt>
      <trkpt lat="47.637846" lon="7.944700">
        <ele>858.609763</ele>
        <time>2021-11-20T19:13:54.187Z</time>
      </trkpt>
      <trkpt lat="47.637690" lon="7.944520">
        <ele>858.520848</ele>
        <time>2021-11-20T19:13:56.723Z</time>
      </trkpt>
      <trkpt lat="47.637583" lon="7.944404">
        <ele>858.525975</ele>
        <time>2021-11-20T19:13:58.905Z</time>
      </trkpt>
      <trkpt lat="47.637442" lon="7.944256">
        <ele>858.532658</ele>
        <time>2021-11-20T19:14:01.465Z</time>
      </trkpt>
      <trkpt lat="47.637316" lon="7.944402">
        <ele>858.538845</ele>
        <time>2021-11-20T19:14:04.304Z</time>
      </trkpt>
      <trkpt lat="47.636926" lon="7.944520">
        <ele>858.554247</ele>
        <time>2021-11-20T19:14:10.604Z</time>
      </trkpt>
      <trkpt lat="47.636517" lon="7.944381">
        <ele>858.570484</ele>
        <time>2021-11-20T19:14:17.407Z</time>
      </trkpt>
      <trkpt lat="47.636440" lon="7.944352">
        <ele>858.573558</ele>
        <time>2021-11-20T19:14:18.860Z</time>
      </trkpt>
      <trkpt lat="47.636341" lon="7.944314">
        <ele>858.577515</ele>
        <time>2021-11-20T19:14:20.611Z</time>
      </trkpt>
      <trkpt lat="47.636224" lon="7.944307">
        <ele>858.582046</ele>
        <time>2021-11-20T19:14:22.099Z</time>
      </trkpt>
      <trkpt lat="47.636029" lon="7.944437">
        <ele>858.560159</ele>
        <time>2021-11-20T19:14:25.334Z</time>
      </trkpt>
      <trkpt lat="47.635520" lon="7.945990">
        <ele>858.301562</ele>
        <time>2021-11-20T19:14:40.943Z</time>
      </trkpt>
      <trkpt lat="47.635305" lon="7.946397">
        <ele>858.224122</ele>
        <time>2021-11-20T19:14:45.451Z</time>
      </trkpt>
      <trkpt lat="47.634967" lon="7.946762">
        <ele>858.730751</ele>
        <time>2021-11-20T19:14:51.109Z</time>
      </trkpt>
      <trkpt lat="47.634741" lon="7.946805">
        <ele>859.232827</ele>
        <time>2021-11-20T19:14:55.844Z</time>
      </trkpt>
      <trkpt lat="47.634598" lon="7.946753">
        <ele>859.557255</ele>
        <time>2021-11-20T19:14:59.037Z</time>
      </trkpt>
      <trkpt lat="47.634437" lon="7.946594">
        <ele>859.983402</ele>
        <time>2021-11-20T19:15:04.095Z</time>
      </trkpt>
      <trkpt lat="47.634304" lon="7.946352">
        <ele>860.447100</ele>
        <time>2021-11-20T19:15:09.207Z</time>
      </trkpt>
      <trkpt lat="47.633987" lon="7.945419">
        <ele>861.998630</ele>
        <time>2021-11-20T19:15:29.220Z</time>
      </trkpt>
      <trkpt lat="47.633902" lon="7.945296">
        <ele>862.305624</ele>
        <time>2021-11-20T19:15:32.276Z</time>
      </trkpt>
      <trkpt lat="47.633818" lon="7.945221">
        <ele>862.610196</ele>
        <time>2021-11-20T19:15:36.628Z</time>
      </trkpt>
      <trkpt lat="47.633720" lon="7.945173">
        <ele>862.930824</ele>
        <time>2021-11-20T19:15:39.013Z</time>
      </trkpt>
      <trkpt lat="47.633664" lon="7.945157">
        <ele>863.108003</ele>
        <time>2021-11-20T19:15:40.181Z</time>
      </trkpt>
      <trkpt lat="47.633591" lon="7.945179">
        <ele>863.339434</ele>
        <time>2021-11-20T19:15:41.955Z</time>
      </trkpt>
      <trkpt lat="47.633591" lon="7.945179">
        <ele>863.339434</ele>
        <time>2021-11-20T19:15:41.999Z</time>
      </trkpt>
      <trkpt lat="47.633498" lon="7.945219">
        <ele>863.640263</ele>
        <time>2021-11-20T19:15:46.037Z</time>
      </trkpt>
      <trkpt lat="47.632250" lon="7.946421">
        <ele>867.675033</ele>
        <time>2021-11-20T19:16:27.266Z</time>
      </trkpt>
      <trkpt lat="47.632015" lon="7.946574">
        <ele>867.579930</ele>
        <time>2021-11-20T19:16:31.049Z</time>
      </trkpt>
      <trkpt lat="47.631252" lon="7.946953">
        <ele>867.281748</ele>
        <time>2021-11-20T19:16:41.491Z</time>
      </trkpt>
      <trkpt lat="47.630971" lon="7.947084">
        <ele>867.172593</ele>
        <time>2021-11-20T19:16:44.929Z</time>
      </trkpt>
      <trkpt lat="47.630672" lon="7.947236">
        <ele>866.920828</ele>
        <time>2021-11-20T19:16:48.462Z</time>
      </trkpt>
      <trkpt lat="47.629991" lon="7.947744">
        <ele>864.206033</ele>
        <time>2021-11-20T19:16:56.155Z</time>
      </trkpt>
      <trkpt lat="47.629363" lon="7.948362">
        <ele>861.522069</ele>
        <time>2021-11-20T19:17:03.514Z</time>
      </trkpt>
      <trkpt lat="47.629285" lon="7.948439">
        <ele>861.188388</ele>
        <time>2021-11-20T19:17:04.388Z</time>
      </trkpt>
      <trkpt lat="47.629252" lon="7.948471">
        <ele>861.047977</ele>
        <time>2021-11-20T19:17:04.774Z</time>
      </trkpt>
      <trkpt lat="47.629112" lon="7.948574">
        <ele>860.456810</ele>
        <time>2021-11-20T19:17:06.315Z</time>
      </trkpt>
      <trkpt lat="47.629018" lon="7.948689">
        <ele>859.936298</ele>
        <time>2021-11-20T19:17:07.479Z</time>
      </trkpt>
      <trkpt lat="47.628909" lon="7.948921">
        <ele>859.121987</ele>
        <time>2021-11-20T19:17:09.309Z</time>
      </trkpt>
      <trkpt lat="47.628855" lon="7.948997">
        <ele>858.804003</ele>
        <time>2021-11-20T19:17:10.007Z</time>
      </trkpt>
      <trkpt lat="47.628255" lon="7.949609">
        <ele>855.693283</ele>
        <time>2021-11-20T19:17:16.844Z</time>
      </trkpt>
      <trkpt lat="47.628154" lon="7.949804">
        <ele>854.985143</ele>
        <time>2021-11-20T19:17:18.430Z</time>
      </trkpt>
      <trkpt lat="47.628018" lon="7.949775">
        <ele>854.398121</ele>
        <time>2021-11-20T19:17:19.836Z</time>
      </trkpt>
      <trkpt lat="47.627819" lon="7.949787">
        <ele>853.547202</ele>
        <time>2021-11-20T19:17:21.791Z</time>
      </trkpt>
      <trkpt lat="47.627702" lon="7.949801">
        <ele>853.045703</ele>
        <time>2021-11-20T19:17:23.099Z</time>
      </trkpt>
      <trkpt lat="47.627474" lon="7.949828">
        <ele>852.222274</ele>
        <time>2021-11-20T19:17:25.422Z</time>
      </trkpt>
      <trkpt lat="47.627472" lon="7.949828">
        <ele>852.215170</ele>
        <time>2021-11-20T19:17:25.441Z</time>
      </trkpt>
      <trkpt lat="47.627309" lon="7.949824">
        <ele>851.636154</ele>
        <time>2021-11-20T19:17:27.275Z</time>
      </trkpt>
      <trkpt lat="47.627208" lon="7.949813">
        <ele>851.276461</ele>
        <time>2021-11-20T19:17:28.268Z</time>
      </trkpt>
      <trkpt lat="47.627110" lon="7.949777">
        <ele>850.917879</ele>
        <time>2021-11-20T19:17:29.373Z</time>
      </trkpt>
      <trkpt lat="47.626859" lon="7.949688">
        <ele>850.001284</ele>
        <time>2021-11-20T19:17:32.082Z</time>
      </trkpt>
      <trkpt lat="47.626752" lon="7.949657">
        <ele>849.614069</ele>
        <time>2021-11-20T19:17:33.215Z</time>
      </trkpt>
      <trkpt lat="47.626683" lon="7.949637">
        <ele>849.364365</ele>
        <time>2021-11-20T19:17:33.882Z</time>
      </trkpt>
      <trkpt lat="47.626401" lon="7.949689">
        <ele>848.355062</ele>
        <time>2021-11-20T19:17:36.655Z</time>
      </trkpt>
      <trkpt lat="47.626137" lon="7.949956">
        <ele>847.220290</ele>
        <time>2021-11-20T19:17:39.768Z</time>
      </trkpt>
      <trkpt lat="47.626078" lon="7.950083">
        <ele>846.851055</ele>
        <time>2021-11-20T19:17:40.805Z</time>
      </trkpt>
      <trkpt lat="47.626026" lon="7.950244">
        <ele>846.364605</ele>
        <time>2021-11-20T19:17:41.911Z</time>
      </trkpt>
      <trkpt lat="47.625896" lon="7.950889">
        <ele>844.186753</ele>
        <time>2021-11-20T19:17:46.432Z</time>
      </trkpt>
      <trkpt lat="47.625850" lon="7.951040">
        <ele>843.650692</ele>
        <time>2021-11-20T19:17:47.445Z</time>
      </trkpt>
      <trkpt lat="47.625812" lon="7.951163">
        <ele>843.212978</ele>
        <time>2021-11-20T19:17:48.266Z</time>
      </trkpt>
      <trkpt lat="47.625460" lon="7.951852">
        <ele>840.416089</ele>
        <time>2021-11-20T19:17:53.685Z</time>
      </trkpt>
      <trkpt lat="47.625338" lon="7.952002">
        <ele>839.655579</ele>
        <time>2021-11-20T19:17:55.190Z</time>
      </trkpt>
      <trkpt lat="47.625089" lon="7.952131">
        <ele>838.389649</ele>
        <time>2021-11-20T19:17:57.666Z</time>
      </trkpt>
      <trkpt lat="47.624864" lon="7.952108">
        <ele>837.729385</ele>
        <time>2021-11-20T19:17:59.943Z</time>
      </trkpt>
      <trkpt lat="47.624794" lon="7.952070">
        <ele>837.603518</ele>
        <time>2021-11-20T19:18:00.575Z</time>
      </trkpt>
      <trkpt lat="47.624692" lon="7.951963">
        <ele>837.392577</ele>
        <time>2021-11-20T19:18:01.793Z</time>
      </trkpt>
      <trkpt lat="47.624014" lon="7.951018">
        <ele>835.821747</ele>
        <time>2021-11-20T19:18:11.973Z</time>
      </trkpt>
      <trkpt lat="47.623553" lon="7.950603">
        <ele>834.941399</ele>
        <time>2021-11-20T19:18:20.313Z</time>
      </trkpt>
      <trkpt lat="47.623105" lon="7.950303">
        <ele>836.585347</ele>
        <time>2021-11-20T19:18:33.250Z</time>
      </trkpt>
      <trkpt lat="47.622946" lon="7.950255">
        <ele>837.128042</ele>
        <time>2021-11-20T19:18:38.416Z</time>
      </trkpt>
      <trkpt lat="47.622642" lon="7.950331">
        <ele>838.159147</ele>
        <time>2021-11-20T19:18:47.155Z</time>
      </trkpt>
      <trkpt lat="47.622427" lon="7.950567">
        <ele>839.053657</ele>
        <time>2021-11-20T19:18:55.235Z</time>
      </trkpt>
      <trkpt lat="47.622278" lon="7.951027">
        <ele>840.204184</ele>
        <time>2021-11-20T19:19:05.668Z</time>
      </trkpt>
      <trkpt lat="47.622272" lon="7.951112">
        <ele>840.396851</ele>
        <time>2021-11-20T19:19:07.921Z</time>
      </trkpt>
      <trkpt lat="47.622265" lon="7.951206">
        <ele>840.610049</ele>
        <time>2021-11-20T19:19:09.479Z</time>
      </trkpt>
      <trkpt lat="47.622185" lon="7.951242">
        <ele>840.889657</ele>
        <time>2021-11-20T19:19:12.949Z</time>
      </trkpt>
      <trkpt lat="47.622076" lon="7.951302">
        <ele>841.471074</ele>
        <time>2021-11-20T19:19:15.939Z</time>
      </trkpt>
      <trkpt lat="47.621962" lon="7.951311">
        <ele>842.068306</ele>
        <time>2021-11-20T19:19:20.263Z</time>
      </trkpt>
      <trkpt lat="47.621546" lon="7.951345">
        <ele>844.247896</ele>
        <time>2021-11-20T19:19:35.553Z</time>
      </trkpt>
      <trkpt lat="47.621172" lon="7.951487">
        <ele>846.267519</ele>
        <time>2021-11-20T19:19:50.509Z</time>
      </trkpt>
      <trkpt lat="47.620663" lon="7.951396">
        <ele>848.949600</ele>
        <time>2021-11-20T19:20:10.157Z</time>
      </trkpt>
      <trkpt lat="47.620471" lon="7.951390">
        <ele>849.954265</ele>
        <time>2021-11-20T19:20:17.025Z</time>
      </trkpt>
      <trkpt lat="47.620184" lon="7.951444">
        <ele>851.030059</ele>
        <time>2021-11-20T19:20:26.667Z</time>
      </trkpt>
      <trkpt lat="47.618671" lon="7.951343">
        <ele>855.859945</ele>
        <time>2021-11-20T19:21:10.321Z</time>
      </trkpt>
      <trkpt lat="47.618483" lon="7.951366">
        <ele>855.766867</ele>
        <time>2021-11-20T19:21:13.370Z</time>
      </trkpt>
      <trkpt lat="47.618278" lon="7.951491">
        <ele>855.177819</ele>
        <time>2021-11-20T19:21:15.967Z</time>
      </trkpt>
      <trkpt lat="47.618199" lon="7.951419">
        <ele>854.931408</ele>
        <time>2021-11-20T19:21:17.207Z</time>
      </trkpt>
      <trkpt lat="47.617993" lon="7.951246">
        <ele>854.302292</ele>
        <time>2021-11-20T19:21:19.744Z</time>
      </trkpt>
      <trkpt lat="47.617931" lon="7.951183">
        <ele>854.102571</ele>
        <time>2021-11-20T19:21:20.720Z</time>
      </trkpt>
      <trkpt lat="47.617570" lon="7.950854">
        <ele>852.976573</ele>
        <time>2021-11-20T19:21:25.053Z</time>
      </trkpt>
      <trkpt lat="47.616863" lon="7.950415">
        <ele>850.441165</ele>
        <time>2021-11-20T19:21:32.272Z</time>
      </trkpt>
      <trkpt lat="47.616253" lon="7.949690">
        <ele>845.509460</ele>
        <time>2021-11-20T19:21:39.305Z</time>
      </trkpt>
      <trkpt lat="47.615966" lon="7.949509">
        <ele>843.541778</ele>
        <time>2021-11-20T19:21:42.112Z</time>
      </trkpt>
      <trkpt lat="47.615810" lon="7.949499">
        <ele>842.556573</ele>
        <time>2021-11-20T19:21:43.553Z</time>
      </trkpt>
      <trkpt lat="47.615702" lon="7.949521">
        <ele>841.868749</ele>
        <time>2021-11-20T19:21:44.521Z</time>
      </trkpt>
      <trkpt lat="47.614682" lon="7.949596">
        <ele>835.650720</ele>
        <time>2021-11-20T19:21:57.996Z</time>
      </trkpt>
      <trkpt lat="47.614487" lon="7.949642">
        <ele>834.466961</ele>
        <time>2021-11-20T19:22:00.558Z</time>
      </trkpt>
      <trkpt lat="47.613749" lon="7.950023">
        <ele>829.782196</ele>
        <time>2021-11-20T19:22:10.809Z</time>
      </trkpt>
      <trkpt lat="47.613296" lon="7.950348">
        <ele>826.824440</ele>
        <time>2021-11-20T19:22:17.445Z</time>
      </trkpt>
      <trkpt lat="47.612472" lon="7.951053">
        <ele>821.261548</ele>
        <time>2021-11-20T19:22:29.957Z</time>
      </trkpt>
      <trkpt lat="47.610709" lon="7.952777">
        <ele>809.776876</ele>
        <time>2021-11-20T19:22:57.897Z</time>
      </trkpt>
      <trkpt lat="47.610490" lon="7.952871">
        <ele>808.850855</ele>
        <time>2021-11-20T19:23:01.115Z</time>
      </trkpt>
      <trkpt lat="47.609926" lon="7.952845">
        <ele>807.564651</ele>
        <time>2021-11-20T19:23:09.482Z</time>
      </trkpt>
      <trkpt lat="47.609848" lon="7.952864">
        <ele>807.384476</ele>
        <time>2021-11-20T19:23:10.628Z</time>
      </trkpt>
      <trkpt lat="47.609390" lon="7.951204">
        <ele>804.795339</ele>
        <time>2021-11-20T19:23:24.622Z</time>
      </trkpt>
      <trkpt lat="47.609119" lon="7.950532">
        <ele>804.185756</ele>
        <time>2021-11-20T19:23:31.853Z</time>
      </trkpt>
      <trkpt lat="47.608916" lon="7.950126">
        <ele>803.792258</ele>
        <time>2021-11-20T19:23:36.350Z</time>
      </trkpt>
      <trkpt lat="47.608814" lon="7.949946">
        <ele>803.609207</ele>
        <time>2021-11-20T19:23:38.462Z</time>
      </trkpt>
      <trkpt lat="47.608598" lon="7.949608">
        <ele>803.246655</ele>
        <time>2021-11-20T19:23:42.204Z</time>
      </trkpt>
      <trkpt lat="47.608258" lon="7.949098">
        <ele>802.322766</ele>
        <time>2021-11-20T19:23:47.502Z</time>
      </trkpt>
      <trkpt lat="47.607428" lon="7.947861">
        <ele>798.503069</ele>
        <time>2021-11-20T19:23:59.400Z</time>
      </trkpt>
      <trkpt lat="47.607177" lon="7.947456">
        <ele>797.299036</ele>
        <time>2021-11-20T19:24:02.997Z</time>
      </trkpt>
      <trkpt lat="47.607053" lon="7.947037">
        <ele>796.250797</ele>
        <time>2021-11-20T19:24:05.970Z</time>
      </trkpt>
      <trkpt lat="47.607026" lon="7.946800">
        <ele>795.692110</ele>
        <time>2021-11-20T19:24:07.538Z</time>
      </trkpt>
      <trkpt lat="47.607053" lon="7.946387">
        <ele>794.727640</ele>
        <time>2021-11-20T19:24:10.262Z</time>
      </trkpt>
      <trkpt lat="47.607219" lon="7.945696">
        <ele>793.022584</ele>
        <time>2021-11-20T19:24:15.138Z</time>
      </trkpt>
      <trkpt lat="47.607532" lon="7.944721">
        <ele>790.380887</ele>
        <time>2021-11-20T19:24:22.773Z</time>
      </trkpt>
      <trkpt lat="47.607673" lon="7.944452">
        <ele>789.280102</ele>
        <time>2021-11-20T19:24:25.307Z</time>
      </trkpt>
      <trkpt lat="47.607934" lon="7.944298">
        <ele>787.934121</ele>
        <time>2021-11-20T19:24:28.479Z</time>
      </trkpt>
      <trkpt lat="47.608484" lon="7.944152">
        <ele>785.256764</ele>
        <time>2021-11-20T19:24:33.819Z</time>
      </trkpt>
      <trkpt lat="47.609294" lon="7.943637">
        <ele>779.589994</ele>
        <time>2021-11-20T19:24:41.778Z</time>
      </trkpt>
      <trkpt lat="47.609350" lon="7.943593">
        <ele>778.920226</ele>
        <time>2021-11-20T19:24:42.314Z</time>
      </trkpt>
      <trkpt lat="47.609814" lon="7.943160">
        <ele>773.126456</ele>
        <time>2021-11-20T19:24:47.007Z</time>
      </trkpt>
      <trkpt lat="47.610014" lon="7.942918">
        <ele>770.398574</ele>
        <time>2021-11-20T19:24:49.174Z</time>
      </trkpt>
      <trkpt lat="47.610065" lon="7.942722">
        <ele>768.901613</ele>
        <time>2021-11-20T19:24:50.367Z</time>
      </trkpt>
      <trkpt lat="47.610075" lon="7.942547">
        <ele>767.650221</ele>
        <time>2021-11-20T19:24:51.350Z</time>
      </trkpt>
      <trkpt lat="47.609950" lon="7.942351">
        <ele>765.727802</ele>
        <time>2021-11-20T19:24:52.941Z</time>
      </trkpt>
      <trkpt lat="47.609824" lon="7.942206">
        <ele>764.042332</ele>
        <time>2021-11-20T19:24:54.262Z</time>
      </trkpt>
      <trkpt lat="47.609660" lon="7.942072">
        <ele>762.359727</ele>
        <time>2021-11-20T19:24:55.886Z</time>
      </trkpt>
      <trkpt lat="47.609328" lon="7.941802">
        <ele>759.381570</ele>
        <time>2021-11-20T19:24:59.144Z</time>
      </trkpt>
      <trkpt lat="47.609231" lon="7.941717">
        <ele>758.495400</ele>
        <time>2021-11-20T19:25:00.096Z</time>
      </trkpt>
      <trkpt lat="47.608985" lon="7.941282">
        <ele>755.484546</ele>
        <time>2021-11-20T19:25:03.482Z</time>
      </trkpt>
      <trkpt lat="47.608976" lon="7.941180">
        <ele>754.939034</ele>
        <time>2021-11-20T19:25:04.069Z</time>
      </trkpt>
      <trkpt lat="47.608986" lon="7.941047">
        <ele>754.229372</ele>
        <time>2021-11-20T19:25:05.483Z</time>
      </trkpt>
      <trkpt lat="47.609156" lon="7.940638">
        <ele>751.681408</ele>
        <time>2021-11-20T19:25:08.357Z</time>
      </trkpt>
      <trkpt lat="47.609697" lon="7.940207">
        <ele>747.779603</ele>
        <time>2021-11-20T19:25:14.354Z</time>
      </trkpt>
      <trkpt lat="47.610427" lon="7.939448">
        <ele>743.696060</ele>
        <time>2021-11-20T19:25:23.389Z</time>
      </trkpt>
      <trkpt lat="47.610663" lon="7.939057">
        <ele>742.075391</ele>
        <time>2021-11-20T19:25:26.700Z</time>
      </trkpt>
      <trkpt lat="47.611668" lon="7.937036">
        <ele>731.991937</ele>
        <time>2021-11-20T19:25:41.987Z</time>
      </trkpt>
      <trkpt lat="47.612157" lon="7.936591">
        <ele>728.745374</ele>
        <time>2021-11-20T19:25:47.323Z</time>
      </trkpt>
      <trkpt lat="47.612760" lon="7.936192">
        <ele>725.711999</ele>
        <time>2021-11-20T19:25:53.734Z</time>
      </trkpt>
      <trkpt lat="47.613611" lon="7.935811">
        <ele>721.628215</ele>
        <time>2021-11-20T19:26:02.396Z</time>
      </trkpt>
      <trkpt lat="47.613843" lon="7.935758">
        <ele>720.136648</ele>
        <time>2021-11-20T19:26:04.648Z</time>
      </trkpt>
      <trkpt lat="47.614095" lon="7.935725">
        <ele>718.402134</ele>
        <time>2021-11-20T19:26:06.999Z</time>
      </trkpt>
      <trkpt lat="47.615166" lon="7.935713">
        <ele>711.058795</ele>
        <time>2021-11-20T19:26:16.617Z</time>
      </trkpt>
      <trkpt lat="47.615451" lon="7.935602">
        <ele>709.032147</ele>
        <time>2021-11-20T19:26:19.181Z</time>
      </trkpt>
      <trkpt lat="47.615705" lon="7.935396">
        <ele>706.355361</ele>
        <time>2021-11-20T19:26:21.687Z</time>
      </trkpt>
      <trkpt lat="47.616262" lon="7.934487">
        <ele>698.698247</ele>
        <time>2021-11-20T19:26:28.867Z</time>
      </trkpt>
      <trkpt lat="47.616672" lon="7.934051">
        <ele>694.033597</ele>
        <time>2021-11-20T19:26:33.240Z</time>
      </trkpt>
      <trkpt lat="47.616878" lon="7.934048">
        <ele>692.112784</ele>
        <time>2021-11-20T19:26:35.021Z</time>
      </trkpt>
      <trkpt lat="47.617409" lon="7.934240">
        <ele>686.788301</ele>
        <time>2021-11-20T19:26:39.772Z</time>
      </trkpt>
      <trkpt lat="47.617581" lon="7.934210">
        <ele>685.101122</ele>
        <time>2021-11-20T19:26:41.273Z</time>
      </trkpt>
      <trkpt lat="47.618969" lon="7.933585">
        <ele>670.306124</ele>
        <time>2021-11-20T19:26:53.763Z</time>
      </trkpt>
      <trkpt lat="47.619096" lon="7.933469">
        <ele>668.607923</ele>
        <time>2021-11-20T19:26:55.030Z</time>
      </trkpt>
      <trkpt lat="47.619255" lon="7.933163">
        <ele>665.642489</ele>
        <time>2021-11-20T19:26:57.262Z</time>
      </trkpt>
      <trkpt lat="47.619818" lon="7.932353">
        <ele>656.712416</ele>
        <time>2021-11-20T19:27:03.885Z</time>
      </trkpt>
      <trkpt lat="47.620106" lon="7.931975">
        <ele>652.618566</ele>
        <time>2021-11-20T19:27:07.118Z</time>
      </trkpt>
      <trkpt lat="47.620440" lon="7.931519">
        <ele>648.154628</ele>
        <time>2021-11-20T19:27:10.976Z</time>
      </trkpt>
      <trkpt lat="47.620523" lon="7.931338">
        <ele>646.703464</ele>
        <time>2021-11-20T19:27:12.216Z</time>
      </trkpt>
      <trkpt lat="47.620633" lon="7.930854">
        <ele>643.317621</ele>
        <time>2021-11-20T19:27:15.186Z</time>
      </trkpt>
      <trkpt lat="47.620770" lon="7.930392">
        <ele>639.971820</ele>
        <time>2021-11-20T19:27:18.156Z</time>
      </trkpt>
      <trkpt lat="47.621014" lon="7.929789">
        <ele>635.979388</ele>
        <time>2021-11-20T19:27:22.433Z</time>
      </trkpt>
      <trkpt lat="47.621153" lon="7.929574">
        <ele>634.933672</ele>
        <time>2021-11-20T19:27:24.280Z</time>
      </trkpt>
      <trkpt lat="47.621561" lon="7.929312">
        <ele>632.618455</ele>
        <time>2021-11-20T19:27:28.541Z</time>
      </trkpt>
      <trkpt lat="47.622199" lon="7.929159">
        <ele>629.252837</ele>
        <time>2021-11-20T19:27:34.815Z</time>
      </trkpt>
      <trkpt lat="47.622516" lon="7.929178">
        <ele>627.600659</ele>
        <time>2021-11-20T19:27:37.835Z</time>
      </trkpt>
      <trkpt lat="47.622878" lon="7.929322">
        <ele>624.619353</ele>
        <time>2021-11-20T19:27:41.331Z</time>
      </trkpt>
      <trkpt lat="47.622967" lon="7.929237">
        <ele>623.737734</ele>
        <time>2021-11-20T19:27:42.329Z</time>
      </trkpt>
      <trkpt lat="47.622989" lon="7.929175">
        <ele>623.344376</ele>
        <time>2021-11-20T19:27:42.816Z</time>
      </trkpt>
      <trkpt lat="47.622990" lon="7.929067">
        <ele>622.738006</ele>
        <time>2021-11-20T19:27:43.422Z</time>
      </trkpt>
      <trkpt lat="47.622913" lon="7.928884">
        <ele>621.526883</ele>
        <time>2021-11-20T19:27:44.765Z</time>
      </trkpt>
      <trkpt lat="47.621861" lon="7.928723">
        <ele>612.717942</ele>
        <time>2021-11-20T19:27:53.902Z</time>
      </trkpt>
      <trkpt lat="47.620569" lon="7.928919">
        <ele>599.106584</ele>
        <time>2021-11-20T19:28:04.949Z</time>
      </trkpt>
      <trkpt lat="47.619928" lon="7.929124">
        <ele>592.500723</ele>
        <time>2021-11-20T19:28:10.615Z</time>
      </trkpt>
      <trkpt lat="47.619604" lon="7.929315">
        <ele>589.759684</ele>
        <time>2021-11-20T19:28:13.653Z</time>
      </trkpt>
      <trkpt lat="47.619329" lon="7.929527">
        <ele>587.323142</ele>
        <time>2021-11-20T19:28:16.381Z</time>
      </trkpt>
      <trkpt lat="47.618921" lon="7.930073">
        <ele>583.003204</ele>
        <time>2021-11-20T19:28:21.274Z</time>
      </trkpt>
      <trkpt lat="47.618761" lon="7.930033">
        <ele>581.727539</ele>
        <time>2021-11-20T19:28:22.780Z</time>
      </trkpt>
      <trkpt lat="47.618733" lon="7.929945">
        <ele>581.211836</ele>
        <time>2021-11-20T19:28:23.369Z</time>
      </trkpt>
      <trkpt lat="47.618734" lon="7.929873">
        <ele>580.830191</ele>
        <time>2021-11-20T19:28:23.780Z</time>
      </trkpt>
      <trkpt lat="47.618861" lon="7.929607">
        <ele>579.104050</ele>
        <time>2021-11-20T19:28:25.851Z</time>
      </trkpt>
      <trkpt lat="47.619053" lon="7.929381">
        <ele>577.192299</ele>
        <time>2021-11-20T19:28:28.079Z</time>
      </trkpt>
      <trkpt lat="47.620384" lon="7.928242">
        <ele>565.189389</ele>
        <time>2021-11-20T19:28:41.753Z</time>
      </trkpt>
      <trkpt lat="47.620796" lon="7.927816">
        <ele>559.224095</ele>
        <time>2021-11-20T19:28:46.026Z</time>
      </trkpt>
      <trkpt lat="47.620873" lon="7.927631">
        <ele>557.483236</ele>
        <time>2021-11-20T19:28:47.265Z</time>
      </trkpt>
      <trkpt lat="47.620930" lon="7.927423">
        <ele>555.685493</ele>
        <time>2021-11-20T19:28:48.528Z</time>
      </trkpt>
      <trkpt lat="47.620993" lon="7.927078">
        <ele>552.823654</ele>
        <time>2021-11-20T19:28:50.564Z</time>
      </trkpt>
      <trkpt lat="47.621010" lon="7.926916">
        <ele>551.510968</ele>
        <time>2021-11-20T19:28:51.493Z</time>
      </trkpt>
      <trkpt lat="47.621008" lon="7.926716">
        <ele>549.909482</ele>
        <time>2021-11-20T19:28:52.630Z</time>
      </trkpt>
      <trkpt lat="47.621092" lon="7.926230">
        <ele>545.892407</ele>
        <time>2021-11-20T19:28:55.472Z</time>
      </trkpt>
      <trkpt lat="47.621290" lon="7.925709">
        <ele>541.183478</ele>
        <time>2021-11-20T19:28:58.857Z</time>
      </trkpt>
      <trkpt lat="47.621339" lon="7.925596">
        <ele>540.138672</ele>
        <time>2021-11-20T19:28:59.609Z</time>
      </trkpt>
      <trkpt lat="47.621723" lon="7.924936">
        <ele>533.359071</ele>
        <time>2021-11-20T19:29:04.550Z</time>
      </trkpt>
      <trkpt lat="47.623053" lon="7.924259">
        <ele>517.476452</ele>
        <time>2021-11-20T19:29:16.653Z</time>
      </trkpt>
      <trkpt lat="47.623206" lon="7.923969">
        <ele>514.774872</ele>
        <time>2021-11-20T19:29:18.818Z</time>
      </trkpt>
      <trkpt lat="47.623246" lon="7.923768">
        <ele>513.237475</ele>
        <time>2021-11-20T19:29:20.014Z</time>
      </trkpt>
      <trkpt lat="47.623227" lon="7.922954">
        <ele>507.262663</ele>
        <time>2021-11-20T19:29:24.683Z</time>
      </trkpt>
      <trkpt lat="47.623251" lon="7.922713">
        <ele>505.475575</ele>
        <time>2021-11-20T19:29:26.061Z</time>
      </trkpt>
      <trkpt lat="47.623298" lon="7.922501">
        <ele>503.838446</ele>
        <time>2021-11-20T19:29:27.344Z</time>
      </trkpt>
      <trkpt lat="47.623564" lon="7.921962">
        <ele>498.776621</ele>
        <time>2021-11-20T19:29:31.152Z</time>
      </trkpt>
      <trkpt lat="47.623626" lon="7.921633">
        <ele>496.182975</ele>
        <time>2021-11-20T19:29:33.111Z</time>
      </trkpt>
      <trkpt lat="47.623611" lon="7.921528">
        <ele>495.368080</ele>
        <time>2021-11-20T19:29:33.714Z</time>
      </trkpt>
      <trkpt lat="47.623588" lon="7.921368">
        <ele>494.126000</ele>
        <time>2021-11-20T19:29:34.648Z</time>
      </trkpt>
      <trkpt lat="47.623561" lon="7.920975">
        <ele>491.126786</ele>
        <time>2021-11-20T19:29:36.903Z</time>
      </trkpt>
      <trkpt lat="47.623430" lon="7.919875">
        <ele>482.729732</ele>
        <time>2021-11-20T19:29:43.370Z</time>
      </trkpt>
      <trkpt lat="47.623255" lon="7.919315">
        <ele>478.654186</ele>
        <time>2021-11-20T19:29:46.944Z</time>
      </trkpt>
      <trkpt lat="47.623010" lon="7.918947">
        <ele>475.238926</ele>
        <time>2021-11-20T19:29:49.926Z</time>
      </trkpt>
      <trkpt lat="47.622446" lon="7.918652">
        <ele>469.380629</ele>
        <time>2021-11-20T19:29:55.148Z</time>
      </trkpt>
      <trkpt lat="47.622366" lon="7.918470">
        <ele>467.945973</ele>
        <time>2021-11-20T19:29:56.401Z</time>
      </trkpt>
      <trkpt lat="47.622381" lon="7.918164">
        <ele>465.920204</ele>
        <time>2021-11-20T19:29:58.212Z</time>
      </trkpt>
      <trkpt lat="47.622424" lon="7.918069">
        <ele>465.153625</ele>
        <time>2021-11-20T19:29:58.868Z</time>
      </trkpt>
      <trkpt lat="47.622587" lon="7.917873">
        <ele>463.053436</ele>
        <time>2021-11-20T19:30:00.682Z</time>
      </trkpt>
      <trkpt lat="47.622656" lon="7.917625">
        <ele>461.243292</ele>
        <time>2021-11-20T19:30:02.245Z</time>
      </trkpt>
      <trkpt lat="47.622677" lon="7.917170">
        <ele>458.166333</ele>
        <time>2021-11-20T19:30:04.901Z</time>
      </trkpt>
      <trkpt lat="47.622647" lon="7.916647">
        <ele>454.625029</ele>
        <time>2021-11-20T19:30:07.937Z</time>
      </trkpt>
      <trkpt lat="47.622576" lon="7.916379">
        <ele>452.682240</ele>
        <time>2021-11-20T19:30:09.592Z</time>
      </trkpt>
      <trkpt lat="47.622393" lon="7.916077">
        <ele>449.942347</ele>
        <time>2021-11-20T19:30:11.927Z</time>
      </trkpt>
      <trkpt lat="47.621809" lon="7.915582">
        <ele>443.266915</ele>
        <time>2021-11-20T19:30:17.741Z</time>
      </trkpt>
      <trkpt lat="47.621530" lon="7.915222">
        <ele>439.613111</ele>
        <time>2021-11-20T19:30:20.947Z</time>
      </trkpt>
      <trkpt lat="47.621037" lon="7.914355">
        <ele>432.057982</ele>
        <time>2021-11-20T19:30:27.576Z</time>
      </trkpt>
      <trkpt lat="47.620869" lon="7.913635">
        <ele>427.036312</ele>
        <time>2021-11-20T19:30:31.940Z</time>
      </trkpt>
      <trkpt lat="47.620841" lon="7.913331">
        <ele>425.030034</ele>
        <time>2021-11-20T19:30:33.718Z</time>
      </trkpt>
      <trkpt lat="47.620822" lon="7.912670">
        <ele>420.703935</ele>
        <time>2021-11-20T19:30:37.547Z</time>
      </trkpt>
      <trkpt lat="47.620858" lon="7.912289">
        <ele>418.188280</ele>
        <time>2021-11-20T19:30:39.807Z</time>
      </trkpt>
      <trkpt lat="47.620910" lon="7.911951">
        <ele>415.921316</ele>
        <time>2021-11-20T19:30:41.822Z</time>
      </trkpt>
      <trkpt lat="47.620953" lon="7.911653">
        <ele>413.928596</ele>
        <time>2021-11-20T19:30:43.611Z</time>
      </trkpt>
      <trkpt lat="47.620946" lon="7.911321">
        <ele>411.961163</ele>
        <time>2021-11-20T19:30:45.582Z</time>
      </trkpt>
      <trkpt lat="47.620846" lon="7.911023">
        <ele>410.433502</ele>
        <time>2021-11-20T19:30:47.554Z</time>
      </trkpt>
      <trkpt lat="47.620625" lon="7.910808">
        <ele>408.634193</ele>
        <time>2021-11-20T19:30:49.883Z</time>
      </trkpt>
      <trkpt lat="47.620181" lon="7.910694">
        <ele>405.566314</ele>
        <time>2021-11-20T19:30:53.890Z</time>
      </trkpt>
      <trkpt lat="47.620162" lon="7.910587">
        <ele>405.058519</ele>
        <time>2021-11-20T19:30:54.558Z</time>
      </trkpt>
      <trkpt lat="47.620245" lon="7.910440">
        <ele>404.178501</ele>
        <time>2021-11-20T19:30:55.730Z</time>
      </trkpt>
      <trkpt lat="47.620712" lon="7.910483">
        <ele>400.992846</ele>
        <time>2021-11-20T19:31:00.184Z</time>
      </trkpt>
      <trkpt lat="47.621308" lon="7.910162">
        <ele>397.658453</ele>
        <time>2021-11-20T19:31:06.238Z</time>
      </trkpt>
      <trkpt lat="47.621461" lon="7.910146">
        <ele>396.905612</ele>
        <time>2021-11-20T19:31:07.650Z</time>
      </trkpt>
      <trkpt lat="47.622368" lon="7.910396">
        <ele>392.377558</ele>
        <time>2021-11-20T19:31:16.348Z</time>
      </trkpt>
      <trkpt lat="47.622666" lon="7.910254">
        <ele>390.841926</ele>
        <time>2021-11-20T19:31:19.363Z</time>
      </trkpt>
      <trkpt lat="47.622755" lon="7.910176">
        <ele>390.335182</ele>
        <time>2021-11-20T19:31:20.314Z</time>
      </trkpt>
      <trkpt lat="47.622850" lon="7.910055">
        <ele>389.721386</ele>
        <time>2021-11-20T19:31:21.527Z</time>
      </trkpt>
      <trkpt lat="47.623414" lon="7.909173">
        <ele>385.704183</ele>
        <time>2021-11-20T19:31:29.371Z</time>
      </trkpt>
      <trkpt lat="47.623851" lon="7.909030">
        <ele>383.510375</ele>
        <time>2021-11-20T19:31:33.544Z</time>
      </trkpt>
      <trkpt lat="47.624367" lon="7.909092">
        <ele>380.092629</ele>
        <time>2021-11-20T19:31:38.462Z</time>
      </trkpt>
      <trkpt lat="47.624823" lon="7.909229">
        <ele>376.540198</ele>
        <time>2021-11-20T19:31:42.674Z</time>
      </trkpt>
      <trkpt lat="47.624962" lon="7.909272">
        <ele>375.456046</ele>
        <time>2021-11-20T19:31:43.904Z</time>
      </trkpt>
      <trkpt lat="47.625366" lon="7.909623">
        <ele>371.881385</ele>
        <time>2021-11-20T19:31:48.024Z</time>
      </trkpt>
      <trkpt lat="47.625586" lon="7.909712">
        <ele>370.140266</ele>
        <time>2021-11-20T19:31:50.011Z</time>
      </trkpt>
      <trkpt lat="47.625630" lon="7.909700">
        <ele>369.798678</ele>
        <time>2021-11-20T19:31:50.383Z</time>
      </trkpt>
      <trkpt lat="47.625660" lon="7.909693">
        <ele>369.566799</ele>
        <time>2021-11-20T19:31:50.639Z</time>
      </trkpt>
      <trkpt lat="47.625738" lon="7.909657">
        <ele>368.943085</ele>
        <time>2021-11-20T19:31:51.386Z</time>
      </trkpt>
      <trkpt lat="47.625820" lon="7.909530">
        <ele>367.916000</ele>
        <time>2021-11-20T19:31:52.422Z</time>
      </trkpt>
      <trkpt lat="47.625875" lon="7.909372">
        <ele>366.857565</ele>
        <time>2021-11-20T19:31:53.427Z</time>
      </trkpt>
      <trkpt lat="47.626074" lon="7.908682">
        <ele>362.390515</ele>
        <time>2021-11-20T19:31:57.796Z</time>
      </trkpt>
      <trkpt lat="47.626373" lon="7.908242">
        <ele>358.671555</ele>
        <time>2021-11-20T19:32:01.428Z</time>
      </trkpt>
      <trkpt lat="47.626436" lon="7.907974">
        <ele>356.982207</ele>
        <time>2021-11-20T19:32:03.056Z</time>
      </trkpt>
      <trkpt lat="47.626446" lon="7.907798">
        <ele>355.930961</ele>
        <time>2021-11-20T19:32:04.137Z</time>
      </trkpt>
      <trkpt lat="47.626442" lon="7.907543">
        <ele>354.412822</ele>
        <time>2021-11-20T19:32:05.626Z</time>
      </trkpt>
      <trkpt lat="47.626436" lon="7.907187">
        <ele>352.768225</ele>
        <time>2021-11-20T19:32:07.857Z</time>
      </trkpt>
      <trkpt lat="47.626436" lon="7.907061">
        <ele>352.574994</ele>
        <time>2021-11-20T19:32:08.680Z</time>
      </trkpt>
      <trkpt lat="47.626436" lon="7.906623">
        <ele>351.903286</ele>
        <time>2021-11-20T19:32:11.546Z</time>
      </trkpt>
      <trkpt lat="47.626439" lon="7.906299">
        <ele>351.406359</ele>
        <time>2021-11-20T19:32:13.699Z</time>
      </trkpt>
      <trkpt lat="47.626443" lon="7.905945">
        <ele>350.863395</ele>
        <time>2021-11-20T19:32:16.252Z</time>
      </trkpt>
      <trkpt lat="47.626460" lon="7.905124">
        <ele>349.603731</ele>
        <time>2021-11-20T19:32:23.157Z</time>
      </trkpt>
      <trkpt lat="47.626440" lon="7.905007">
        <ele>349.418621</ele>
        <time>2021-11-20T19:32:24.954Z</time>
      </trkpt>
      <trkpt lat="47.626399" lon="7.904961">
        <ele>349.301658</ele>
        <time>2021-11-20T19:32:25.754Z</time>
      </trkpt>
      <trkpt lat="47.626221" lon="7.904920">
        <ele>348.891773</ele>
        <time>2021-11-20T19:32:28.786Z</time>
      </trkpt>
      <trkpt lat="47.626086" lon="7.904879">
        <ele>348.948733</ele>
        <time>2021-11-20T19:32:31.974Z</time>
      </trkpt>
      <trkpt lat="47.625742" lon="7.904774">
        <ele>349.279320</ele>
        <time>2021-11-20T19:32:39.598Z</time>
      </trkpt>
      <trkpt lat="47.625516" lon="7.904701">
        <ele>349.497036</ele>
        <time>2021-11-20T19:32:44.230Z</time>
      </trkpt>
      <trkpt lat="47.625088" lon="7.904563">
        <ele>349.909314</ele>
        <time>2021-11-20T19:32:53.553Z</time>
      </trkpt>
      <trkpt lat="47.624956" lon="7.904522">
        <ele>350.036258</ele>
        <time>2021-11-20T19:32:56.309Z</time>
      </trkpt>
      <trkpt lat="47.624761" lon="7.904481">
        <ele>350.221645</ele>
        <time>2021-11-20T19:32:59.480Z</time>
      </trkpt>
      <trkpt lat="47.624565" lon="7.904455">
        <ele>350.406875</ele>
        <time>2021-11-20T19:33:02.539Z</time>
      </trkpt>
      <trkpt lat="47.624472" lon="7.904367">
        <ele>350.510703</ele>
        <time>2021-11-20T19:33:04.226Z</time>
      </trkpt>
      <trkpt lat="47.624451" lon="7.904332">
        <ele>350.528430</ele>
        <time>2021-11-20T19:33:04.747Z</time>
      </trkpt>
      <trkpt lat="47.624399" lon="7.904386">
        <ele>350.486660</ele>
        <time>2021-11-20T19:33:05.664Z</time>
      </trkpt>
      <trkpt lat="47.624263" lon="7.904484">
        <ele>350.387160</ele>
        <time>2021-11-20T19:33:07.886Z</time>
      </trkpt>
      <trkpt lat="47.624120" lon="7.904530">
        <ele>350.290865</ele>
        <time>2021-11-20T19:33:10.058Z</time>
      </trkpt>
      <trkpt lat="47.623650" lon="7.904642">
        <ele>349.977592</ele>
        <time>2021-11-20T19:33:16.336Z</time>
      </trkpt>
      <trkpt lat="47.622648" lon="7.904863">
        <ele>349.245837</ele>
        <time>2021-11-20T19:33:28.746Z</time>
      </trkpt>
      <trkpt lat="47.622424" lon="7.904919">
        <ele>348.845226</ele>
        <time>2021-11-20T19:33:31.354Z</time>
      </trkpt>
      <trkpt lat="47.622235" lon="7.904957">
        <ele>348.508863</ele>
        <time>2021-11-20T19:33:33.516Z</time>
      </trkpt>
      <trkpt lat="47.621248" lon="7.905159">
        <ele>346.751729</ele>
        <time>2021-11-20T19:33:44.640Z</time>
      </trkpt>
      <trkpt lat="47.621107" lon="7.905191">
        <ele>346.500172</ele>
        <time>2021-11-20T19:33:46.195Z</time>
      </trkpt>
      <trkpt lat="47.620699" lon="7.905223">
        <ele>345.552700</ele>
        <time>2021-11-20T19:33:50.623Z</time>
      </trkpt>
      <trkpt lat="47.620699" lon="7.905223">
        <ele>345.552700</ele>
        <time>2021-11-20T19:33:50.627Z</time>
      </trkpt>
      <trkpt lat="47.620426" lon="7.905244">
        <ele>344.795717</ele>
        <time>2021-11-20T19:33:53.692Z</time>
      </trkpt>
      <trkpt lat="47.620426" lon="7.905244">
        <ele>344.795717</ele>
        <time>2021-11-20T19:33:53.697Z</time>
      </trkpt>
      <trkpt lat="47.619447" lon="7.905300">
        <ele>342.082743</ele>
        <time>2021-11-20T19:34:03.835Z</time>
      </trkpt>
      <trkpt lat="47.619299" lon="7.905308">
        <ele>341.672642</ele>
        <time>2021-11-20T19:34:05.233Z</time>
      </trkpt>
      <trkpt lat="47.619155" lon="7.905319">
        <ele>341.273362</ele>
        <time>2021-11-20T19:34:06.801Z</time>
      </trkpt>
      <trkpt lat="47.618976" lon="7.905535">
        <ele>340.505853</ele>
        <time>2021-11-20T19:34:09.052Z</time>
      </trkpt>
      <trkpt lat="47.618920" lon="7.906208">
        <ele>338.950851</ele>
        <time>2021-11-20T19:34:13.746Z</time>
      </trkpt>
      <trkpt lat="47.618888" lon="7.906392">
        <ele>338.515094</ele>
        <time>2021-11-20T19:34:15.005Z</time>
      </trkpt>
      <trkpt lat="47.618867" lon="7.906514">
        <ele>338.226352</ele>
        <time>2021-11-20T19:34:15.790Z</time>
      </trkpt>
      <trkpt lat="47.618719" lon="7.906838">
        <ele>337.328839</ele>
        <time>2021-11-20T19:34:18.503Z</time>
      </trkpt>
      <trkpt lat="47.618579" lon="7.906988">
        <ele>336.741335</ele>
        <time>2021-11-20T19:34:20.162Z</time>
      </trkpt>
      <trkpt lat="47.618470" lon="7.907083">
        <ele>336.311260</ele>
        <time>2021-11-20T19:34:21.461Z</time>
      </trkpt>
      <trkpt lat="47.617957" lon="7.907285">
        <ele>334.706285</ele>
        <time>2021-11-20T19:34:26.770Z</time>
      </trkpt>
      <trkpt lat="47.617238" lon="7.908130">
        <ele>332.679773</ele>
        <time>2021-11-20T19:34:36.589Z</time>
      </trkpt>
      <trkpt lat="47.617086" lon="7.908230">
        <ele>332.312423</ele>
        <time>2021-11-20T19:34:38.479Z</time>
      </trkpt>
      <trkpt lat="47.616832" lon="7.908284">
        <ele>331.745536</ele>
        <time>2021-11-20T19:34:41.356Z</time>
      </trkpt>
      <trkpt lat="47.616604" lon="7.908203">
        <ele>331.227580</ele>
        <time>2021-11-20T19:34:43.982Z</time>
      </trkpt>
      <trkpt lat="47.616124" lon="7.907729">
        <ele>330.997244</ele>
        <time>2021-11-20T19:34:50.803Z</time>
      </trkpt>
      <trkpt lat="47.616009" lon="7.907686">
        <ele>330.972863</ele>
        <time>2021-11-20T19:34:52.366Z</time>
      </trkpt>
      <trkpt lat="47.615946" lon="7.907692">
        <ele>330.959885</ele>
        <time>2021-11-20T19:34:53.133Z</time>
      </trkpt>
      <trkpt lat="47.615821" lon="7.907747">
        <ele>330.933081</ele>
        <time>2021-11-20T19:34:55.212Z</time>
      </trkpt>
      <trkpt lat="47.615669" lon="7.907870">
        <ele>330.897487</ele>
        <time>2021-11-20T19:34:57.891Z</time>
      </trkpt>
      <trkpt lat="47.615460" lon="7.908111">
        <ele>330.843068</ele>
        <time>2021-11-20T19:35:02.262Z</time>
      </trkpt>
      <trkpt lat="47.615374" lon="7.908222">
        <ele>330.819633</ele>
        <time>2021-11-20T19:35:04.181Z</time>
      </trkpt>
      <trkpt lat="47.615246" lon="7.908385">
        <ele>330.784953</ele>
        <time>2021-11-20T19:35:07.204Z</time>
      </trkpt>
      <trkpt lat="47.615085" lon="7.908567">
        <ele>330.743341</ele>
        <time>2021-11-20T19:35:10.615Z</time>
      </trkpt>
      <trkpt lat="47.614876" lon="7.908760">
        <ele>330.950995</ele>
        <time>2021-11-20T19:35:14.933Z</time>
      </trkpt>
      <trkpt lat="47.614784" lon="7.908839">
        <ele>331.064089</ele>
        <time>2021-11-20T19:35:16.738Z</time>
      </trkpt>
      <trkpt lat="47.614412" lon="7.909095">
        <ele>331.500367</ele>
        <time>2021-11-20T19:35:24.009Z</time>
      </trkpt>
      <trkpt lat="47.614063" lon="7.909285">
        <ele>331.895879</ele>
        <time>2021-11-20T19:35:31.113Z</time>
      </trkpt>
      <trkpt lat="47.613934" lon="7.909339">
        <ele>332.038480</ele>
        <time>2021-11-20T19:35:33.687Z</time>
      </trkpt>
      <trkpt lat="47.613360" lon="7.909602">
        <ele>332.674821</ele>
        <time>2021-11-20T19:35:46.504Z</time>
      </trkpt>
      <trkpt lat="47.613280" lon="7.909624">
        <ele>332.753175</ele>
        <time>2021-11-20T19:35:48.184Z</time>
      </trkpt>
      <trkpt lat="47.612897" lon="7.909812">
        <ele>333.141679</ele>
        <time>2021-11-20T19:35:56.736Z</time>
      </trkpt>
      <trkpt lat="47.612657" lon="7.909926">
        <ele>333.384364</ele>
        <time>2021-11-20T19:36:01.771Z</time>
      </trkpt>
      <trkpt lat="47.612216" lon="7.910134">
        <ele>333.830006</ele>
        <time>2021-11-20T19:36:09.747Z</time>
      </trkpt>
      <trkpt lat="47.612131" lon="7.910214">
        <ele>333.926949</ele>
        <time>2021-11-20T19:36:11.643Z</time>
      </trkpt>
      <trkpt lat="47.612082" lon="7.910269">
        <ele>333.986123</ele>
        <time>2021-11-20T19:36:12.726Z</time>
      </trkpt>
      <trkpt lat="47.612020" lon="7.910364">
        <ele>334.071965</ele>
        <time>2021-11-20T19:36:14.289Z</time>
      </trkpt>
      <trkpt lat="47.611986" lon="7.910466">
        <ele>334.145838</ele>
        <time>2021-11-20T19:36:15.551Z</time>
      </trkpt>
      <trkpt lat="47.611981" lon="7.910534">
        <ele>334.190246</ele>
        <time>2021-11-20T19:36:16.175Z</time>
      </trkpt>
      <trkpt lat="47.611988" lon="7.910610">
        <ele>334.240045</ele>
        <time>2021-11-20T19:36:17.136Z</time>
      </trkpt>
      <trkpt lat="47.611994" lon="7.910676">
        <ele>334.283281</ele>
        <time>2021-11-20T19:36:18.066Z</time>
      </trkpt>
      <trkpt lat="47.612005" lon="7.910790">
        <ele>334.358046</ele>
        <time>2021-11-20T19:36:19.334Z</time>
      </trkpt>
      <trkpt lat="47.612029" lon="7.910940">
        <ele>334.360111</ele>
        <time>2021-11-20T19:36:21.221Z</time>
      </trkpt>
      <trkpt lat="47.611260" lon="7.911383">
        <ele>334.154918</ele>
        <time>2021-11-20T19:36:34.338Z</time>
      </trkpt>
      <trkpt lat="47.610416" lon="7.911983">
        <ele>333.873528</ele>
        <time>2021-11-20T19:36:46.251Z</time>
      </trkpt>
      <trkpt lat="47.610054" lon="7.912196">
        <ele>333.337879</ele>
        <time>2021-11-20T19:36:50.725Z</time>
      </trkpt>
      <trkpt lat="47.609914" lon="7.912278">
        <ele>333.130850</ele>
        <time>2021-11-20T19:36:52.453Z</time>
      </trkpt>
      <trkpt lat="47.608679" lon="7.912703">
        <ele>331.388123</ele>
        <time>2021-11-20T19:37:07.180Z</time>
      </trkpt>
      <trkpt lat="47.607663" lon="7.913198">
        <ele>329.938644</ele>
        <time>2021-11-20T19:37:19.505Z</time>
      </trkpt>
      <trkpt lat="47.607292" lon="7.913435">
        <ele>329.391133</ele>
        <time>2021-11-20T19:37:24.203Z</time>
      </trkpt>
      <trkpt lat="47.606938" lon="7.913697">
        <ele>328.875389</ele>
        <time>2021-11-20T19:37:28.977Z</time>
      </trkpt>
      <trkpt lat="47.606706" lon="7.913869">
        <ele>328.567188</ele>
        <time>2021-11-20T19:37:32.165Z</time>
      </trkpt>
      <trkpt lat="47.606558" lon="7.913988">
        <ele>328.367143</ele>
        <time>2021-11-20T19:37:34.256Z</time>
      </trkpt>
      <trkpt lat="47.606450" lon="7.914067">
        <ele>328.224051</ele>
        <time>2021-11-20T19:37:35.755Z</time>
      </trkpt>
      <trkpt lat="47.606200" lon="7.914255">
        <ele>327.890981</ele>
        <time>2021-11-20T19:37:39.169Z</time>
      </trkpt>
      <trkpt lat="47.605929" lon="7.914457">
        <ele>327.530579</ele>
        <time>2021-11-20T19:37:42.852Z</time>
      </trkpt>
      <trkpt lat="47.605648" lon="7.914613">
        <ele>327.174049</ele>
        <time>2021-11-20T19:37:46.416Z</time>
      </trkpt>
      <trkpt lat="47.605408" lon="7.914750">
        <ele>326.844824</ele>
        <time>2021-11-20T19:37:49.367Z</time>
      </trkpt>
      <trkpt lat="47.605105" lon="7.914869">
        <ele>325.896679</ele>
        <time>2021-11-20T19:37:52.938Z</time>
      </trkpt>
      <trkpt lat="47.604722" lon="7.914915">
        <ele>324.734334</ele>
        <time>2021-11-20T19:37:57.109Z</time>
      </trkpt>
      <trkpt lat="47.604393" lon="7.914885">
        <ele>323.737250</ele>
        <time>2021-11-20T19:38:00.527Z</time>
      </trkpt>
      <trkpt lat="47.604062" lon="7.914772">
        <ele>322.709813</ele>
        <time>2021-11-20T19:38:03.917Z</time>
      </trkpt>
      <trkpt lat="47.603884" lon="7.914671">
        <ele>322.133314</ele>
        <time>2021-11-20T19:38:05.705Z</time>
      </trkpt>
      <trkpt lat="47.603615" lon="7.914449">
        <ele>321.080648</ele>
        <time>2021-11-20T19:38:08.653Z</time>
      </trkpt>
      <trkpt lat="47.603373" lon="7.914188">
        <ele>319.719093</ele>
        <time>2021-11-20T19:38:11.497Z</time>
      </trkpt>
      <trkpt lat="47.603038" lon="7.913754">
        <ele>317.695057</ele>
        <time>2021-11-20T19:38:15.688Z</time>
      </trkpt>
      <trkpt lat="47.602861" lon="7.913538">
        <ele>316.652046</ele>
        <time>2021-11-20T19:38:17.892Z</time>
      </trkpt>
      <trkpt lat="47.602742" lon="7.913448">
        <ele>316.044214</ele>
        <time>2021-11-20T19:38:19.128Z</time>
      </trkpt>
      <trkpt lat="47.602118" lon="7.913280">
        <ele>313.188823</ele>
        <time>2021-11-20T19:38:25.183Z</time>
      </trkpt>
      <trkpt lat="47.600086" lon="7.913316">
        <ele>307.001745</ele>
        <time>2021-11-20T19:38:45.996Z</time>
      </trkpt>
      <trkpt lat="47.599361" lon="7.913211">
        <ele>305.410851</ele>
        <time>2021-11-20T19:38:53.846Z</time>
      </trkpt>
      <trkpt lat="47.598263" lon="7.912768">
        <ele>303.156144</ele>
        <time>2021-11-20T19:39:06.482Z</time>
      </trkpt>
      <trkpt lat="47.597324" lon="7.912182">
        <ele>301.657493</ele>
        <time>2021-11-20T19:39:18.290Z</time>
      </trkpt>
      <trkpt lat="47.596928" lon="7.912047">
        <ele>301.059760</ele>
        <time>2021-11-20T19:39:23.115Z</time>
      </trkpt>
      <trkpt lat="47.596657" lon="7.912027">
        <ele>300.793666</ele>
        <time>2021-11-20T19:39:26.386Z</time>
      </trkpt>
      <trkpt lat="47.596383" lon="7.912050">
        <ele>300.555172</ele>
        <time>2021-11-20T19:39:29.714Z</time>
      </trkpt>
      <trkpt lat="47.595919" lon="7.912182">
        <ele>300.144590</ele>
        <time>2021-11-20T19:39:35.534Z</time>
      </trkpt>
      <trkpt lat="47.595049" lon="7.912419">
        <ele>299.428865</ele>
        <time>2021-11-20T19:39:46.820Z</time>
      </trkpt>
      <trkpt lat="47.594246" lon="7.912426">
        <ele>299.521415</ele>
        <time>2021-11-20T19:39:57.943Z</time>
      </trkpt>
      <trkpt lat="47.593192" lon="7.912179">
        <ele>299.699165</ele>
        <time>2021-11-20T19:40:15.830Z</time>
      </trkpt>
      <trkpt lat="47.592198" lon="7.912030">
        <ele>300.251052</ele>
        <time>2021-11-20T19:40:34.748Z</time>
      </trkpt>
      <trkpt lat="47.591524" lon="7.911777">
        <ele>300.590533</ele>
        <time>2021-11-20T19:40:46.045Z</time>
      </trkpt>
      <trkpt lat="47.591361" lon="7.911643">
        <ele>300.297101</ele>
        <time>2021-11-20T19:40:49.407Z</time>
      </trkpt>
      <trkpt lat="47.591227" lon="7.911486">
        <ele>300.028217</ele>
        <time>2021-11-20T19:40:51.416Z</time>
      </trkpt>
      <trkpt lat="47.590486" lon="7.910371">
        <ele>298.366078</ele>
        <time>2021-11-20T19:41:03.142Z</time>
      </trkpt>
      <trkpt lat="47.590199" lon="7.910097">
        <ele>297.828660</ele>
        <time>2021-11-20T19:41:06.724Z</time>
      </trkpt>
      <trkpt lat="47.589984" lon="7.909953">
        <ele>297.363004</ele>
        <time>2021-11-20T19:41:09.214Z</time>
      </trkpt>
      <trkpt lat="47.589984" lon="7.909953">
        <ele>297.363004</ele>
        <time>2021-11-20T19:41:09.225Z</time>
      </trkpt>
      <trkpt lat="47.589846" lon="7.909880">
        <ele>297.067343</ele>
        <time>2021-11-20T19:41:10.817Z</time>
      </trkpt>
      <trkpt lat="47.589453" lon="7.909790">
        <ele>296.264906</ele>
        <time>2021-11-20T19:41:15.040Z</time>
      </trkpt>
      <trkpt lat="47.589186" lon="7.909798">
        <ele>295.726018</ele>
        <time>2021-11-20T19:41:17.877Z</time>
      </trkpt>
      <trkpt lat="47.588985" lon="7.909827">
        <ele>295.318505</ele>
        <time>2021-11-20T19:41:20.163Z</time>
      </trkpt>
      <trkpt lat="47.587926" lon="7.910125">
        <ele>293.693453</ele>
        <time>2021-11-20T19:41:32.671Z</time>
      </trkpt>
      <trkpt lat="47.587479" lon="7.910228">
        <ele>293.273430</ele>
        <time>2021-11-20T19:41:38.729Z</time>
      </trkpt>
      <trkpt lat="47.587167" lon="7.910236">
        <ele>292.983694</ele>
        <time>2021-11-20T19:41:42.843Z</time>
      </trkpt>
      <trkpt lat="47.586813" lon="7.910134">
        <ele>292.648854</ele>
        <time>2021-11-20T19:41:47.276Z</time>
      </trkpt>
      <trkpt lat="47.586540" lon="7.909941">
        <ele>292.412588</ele>
        <time>2021-11-20T19:41:50.963Z</time>
      </trkpt>
      <trkpt lat="47.586265" lon="7.909589">
        <ele>292.196288</ele>
        <time>2021-11-20T19:41:55.342Z</time>
      </trkpt>
      <trkpt lat="47.586062" lon="7.909215">
        <ele>292.003512</ele>
        <time>2021-11-20T19:41:59.420Z</time>
      </trkpt>
      <trkpt lat="47.585956" lon="7.908983">
        <ele>291.890986</ele>
        <time>2021-11-20T19:42:01.864Z</time>
      </trkpt>
      <trkpt lat="47.585899" lon="7.908777">
        <ele>291.801573</ele>
        <time>2021-11-20T19:42:03.917Z</time>
      </trkpt>
      <trkpt lat="47.585750" lon="7.908439">
        <ele>291.639425</ele>
        <time>2021-11-20T19:42:07.522Z</time>
      </trkpt>
      <trkpt lat="47.585760" lon="7.908367">
        <ele>291.609906</ele>
        <time>2021-11-20T19:42:08.237Z</time>
      </trkpt>
      <trkpt lat="47.585751" lon="7.908295">
        <ele>291.580501</ele>
        <time>2021-11-20T19:42:09.015Z</time>
      </trkpt>
      <trkpt lat="47.585761" lon="7.908160">
        <ele>291.525963</ele>
        <time>2021-11-20T19:42:10.799Z</time>
      </trkpt>
      <trkpt lat="47.585759" lon="7.908093">
        <ele>291.499032</ele>
        <time>2021-11-20T19:42:11.592Z</time>
      </trkpt>
      <trkpt lat="47.585745" lon="7.907994">
        <ele>291.458412</ele>
        <time>2021-11-20T19:42:12.904Z</time>
      </trkpt>
      <trkpt lat="47.585709" lon="7.907887">
        <ele>291.435745</ele>
        <time>2021-11-20T19:42:14.448Z</time>
      </trkpt>
      <trkpt lat="47.585496" lon="7.906982">
        <ele>291.940289</ele>
        <time>2021-11-20T19:42:24.590Z</time>
      </trkpt>
      <trkpt lat="47.585477" lon="7.906769">
        <ele>292.053385</ele>
        <time>2021-11-20T19:42:27.134Z</time>
      </trkpt>
      <trkpt lat="47.585522" lon="7.905992">
        <ele>292.463889</ele>
        <time>2021-11-20T19:42:37.318Z</time>
      </trkpt>
      <trkpt lat="47.585585" lon="7.905551">
        <ele>292.701173</ele>
        <time>2021-11-20T19:42:43.649Z</time>
      </trkpt>
      <trkpt lat="47.585693" lon="7.905272">
        <ele>292.896256</ele>
        <time>2021-11-20T19:42:48.250Z</time>
      </trkpt>
      <trkpt lat="47.585762" lon="7.905099">
        <ele>293.062007</ele>
        <time>2021-11-20T19:42:51.078Z</time>
      </trkpt>
      <trkpt lat="47.585958" lon="7.904606">
        <ele>293.533956</ele>
        <time>2021-11-20T19:42:59.040Z</time>
      </trkpt>
      <trkpt lat="47.586407" lon="7.903407">
        <ele>294.664943</ele>
        <time>2021-11-20T19:43:16.974Z</time>
      </trkpt>
      <trkpt lat="47.586847" lon="7.902221">
        <ele>295.532924</ele>
        <time>2021-11-20T19:43:33.978Z</time>
      </trkpt>
      <trkpt lat="47.587029" lon="7.901746">
        <ele>295.835665</ele>
        <time>2021-11-20T19:43:40.592Z</time>
      </trkpt>
      <trkpt lat="47.587506" lon="7.900489">
        <ele>296.646600</ele>
        <time>2021-11-20T19:43:57.623Z</time>
      </trkpt>
      <trkpt lat="47.587961" lon="7.899254">
        <ele>297.494906</ele>
        <time>2021-11-20T19:44:15.064Z</time>
      </trkpt>
      <trkpt lat="47.588436" lon="7.898021">
        <ele>298.381695</ele>
        <time>2021-11-20T19:44:33.133Z</time>
      </trkpt>
      <trkpt lat="47.588506" lon="7.897839">
        <ele>298.524131</ele>
        <time>2021-11-20T19:44:35.605Z</time>
      </trkpt>
      <trkpt lat="47.588808" lon="7.897009">
        <ele>299.165274</ele>
        <time>2021-11-20T19:44:47.889Z</time>
      </trkpt>
      <trkpt lat="47.589118" lon="7.896174">
        <ele>299.813258</ele>
        <time>2021-11-20T19:45:00.286Z</time>
      </trkpt>
      <trkpt lat="47.589590" lon="7.894990">
        <ele>300.212607</ele>
        <time>2021-11-20T19:45:16.708Z</time>
      </trkpt>
      <trkpt lat="47.589932" lon="7.894260">
        <ele>300.424797</ele>
        <time>2021-11-20T19:45:26.273Z</time>
      </trkpt>
      <trkpt lat="47.589960" lon="7.894201">
        <ele>300.442019</ele>
        <time>2021-11-20T19:45:26.965Z</time>
      </trkpt>
      <trkpt lat="47.590704" lon="7.892594">
        <ele>300.031530</ele>
        <time>2021-11-20T19:45:45.062Z</time>
      </trkpt>
      <trkpt lat="47.591003" lon="7.891941">
        <ele>299.745736</ele>
        <time>2021-11-20T19:45:51.735Z</time>
      </trkpt>
      <trkpt lat="47.591247" lon="7.891264">
        <ele>299.293085</ele>
        <time>2021-11-20T19:45:58.229Z</time>
      </trkpt>
      <trkpt lat="47.591381" lon="7.890797">
        <ele>298.854274</ele>
        <time>2021-11-20T19:46:02.216Z</time>
      </trkpt>
      <trkpt lat="47.591692" lon="7.889232">
        <ele>297.443609</ele>
        <time>2021-11-20T19:46:14.920Z</time>
      </trkpt>
      <trkpt lat="47.591728" lon="7.889070">
        <ele>297.296131</ele>
        <time>2021-11-20T19:46:16.282Z</time>
      </trkpt>
      <trkpt lat="47.591763" lon="7.888925">
        <ele>297.203448</ele>
        <time>2021-11-20T19:46:17.498Z</time>
      </trkpt>
      <trkpt lat="47.591709" lon="7.888913">
        <ele>297.156158</ele>
        <time>2021-11-20T19:46:18.104Z</time>
      </trkpt>
      <trkpt lat="47.591826" lon="7.888492">
        <ele>296.890199</ele>
        <time>2021-11-20T19:46:21.823Z</time>
      </trkpt>
      <trkpt lat="47.591875" lon="7.888327">
        <ele>296.784895</ele>
        <time>2021-11-20T19:46:23.272Z</time>
      </trkpt>
      <trkpt lat="47.592704" lon="7.885535">
        <ele>295.068350</ele>
        <time>2021-11-20T19:46:49.957Z</time>
      </trkpt>
      <trkpt lat="47.593108" lon="7.884664">
        <ele>294.506344</ele>
        <time>2021-11-20T19:46:58.640Z</time>
      </trkpt>
      <trkpt lat="47.593166" lon="7.884637">
        <ele>294.458422</ele>
        <time>2021-11-20T19:46:59.876Z</time>
      </trkpt>
      <trkpt lat="47.593037" lon="7.884537">
        <ele>294.343670</ele>
        <time>2021-11-20T19:47:01.591Z</time>
      </trkpt>
      <trkpt lat="47.592977" lon="7.884463">
        <ele>294.275434</ele>
        <time>2021-11-20T19:47:02.432Z</time>
      </trkpt>
      <trkpt lat="47.592959" lon="7.884237">
        <ele>294.127295</ele>
        <time>2021-11-20T19:47:04.529Z</time>
      </trkpt>
      <trkpt lat="47.592917" lon="7.883969">
        <ele>293.948190</ele>
        <time>2021-11-20T19:47:06.688Z</time>
      </trkpt>
      <trkpt lat="47.592842" lon="7.883686">
        <ele>293.750255</ele>
        <time>2021-11-20T19:47:09.352Z</time>
      </trkpt>
      <trkpt lat="47.592487" lon="7.882778">
        <ele>293.067040</ele>
        <time>2021-11-20T19:47:18.108Z</time>
      </trkpt>
      <trkpt lat="47.592493" lon="7.882622">
        <ele>292.965325</ele>
        <time>2021-11-20T19:47:19.383Z</time>
      </trkpt>
      <trkpt lat="47.592531" lon="7.882114">
        <ele>292.632608</ele>
        <time>2021-11-20T19:47:23.437Z</time>
      </trkpt>
      <trkpt lat="47.592592" lon="7.881680">
        <ele>292.266039</ele>
        <time>2021-11-20T19:47:27.163Z</time>
      </trkpt>
      <trkpt lat="47.592680" lon="7.881162">
        <ele>291.801382</ele>
        <time>2021-11-20T19:47:31.726Z</time>
      </trkpt>
      <trkpt lat="47.592855" lon="7.880299">
        <ele>291.017504</ele>
        <time>2021-11-20T19:47:39.105Z</time>
      </trkpt>
      <trkpt lat="47.592558" lon="7.880084">
        <ele>290.591215</ele>
        <time>2021-11-20T19:47:42.861Z</time>
      </trkpt>
      <trkpt lat="47.592176" lon="7.879859">
        <ele>289.929878</ele>
        <time>2021-11-20T19:47:47.424Z</time>
      </trkpt>
      <trkpt lat="47.591747" lon="7.879696">
        <ele>288.974326</ele>
        <time>2021-11-20T19:47:52.189Z</time>
      </trkpt>
      <trkpt lat="47.591433" lon="7.879589">
        <ele>288.279152</ele>
        <time>2021-11-20T19:47:55.623Z</time>
      </trkpt>
      <trkpt lat="47.591348" lon="7.879568">
        <ele>288.093221</ele>
        <time>2021-11-20T19:47:56.538Z</time>
      </trkpt>
      <trkpt lat="47.591318" lon="7.879563">
        <ele>288.028083</ele>
        <time>2021-11-20T19:47:56.863Z</time>
      </trkpt>
      <trkpt lat="47.591234" lon="7.879550">
        <ele>287.845853</ele>
        <time>2021-11-20T19:47:57.747Z</time>
      </trkpt>
      <trkpt lat="47.591201" lon="7.878391">
        <ele>286.231270</ele>
        <time>2021-11-20T19:48:06.184Z</time>
      </trkpt>
      <trkpt lat="47.591165" lon="7.877839">
        <ele>285.697098</ele>
        <time>2021-11-20T19:48:10.287Z</time>
      </trkpt>
      <trkpt lat="47.591021" lon="7.877714">
        <ele>285.458784</ele>
        <time>2021-11-20T19:48:12.204Z</time>
      </trkpt>
      <trkpt lat="47.590631" lon="7.877615">
        <ele>284.893677</ele>
        <time>2021-11-20T19:48:16.899Z</time>
      </trkpt>
      <trkpt lat="47.590500" lon="7.877526">
        <ele>284.687876</ele>
        <time>2021-11-20T19:48:18.578Z</time>
      </trkpt>
      <trkpt lat="47.590479" lon="7.877434">
        <ele>284.594322</ele>
        <time>2021-11-20T19:48:19.350Z</time>
      </trkpt>
      <trkpt lat="47.590532" lon="7.877177">
        <ele>284.335459</ele>
        <time>2021-11-20T19:48:21.657Z</time>
      </trkpt>
      <trkpt lat="47.590592" lon="7.876946">
        <ele>284.097024</ele>
        <time>2021-11-20T19:48:23.613Z</time>
      </trkpt>
      <trkpt lat="47.590643" lon="7.876593">
        <ele>283.780748</ele>
        <time>2021-11-20T19:48:26.682Z</time>
      </trkpt>
      <trkpt lat="47.590771" lon="7.875667">
        <ele>283.372956</ele>
        <time>2021-11-20T19:48:34.712Z</time>
      </trkpt>
      <trkpt lat="47.590851" lon="7.875195">
        <ele>283.162998</ele>
        <time>2021-11-20T19:48:38.879Z</time>
      </trkpt>
      <trkpt lat="47.591067" lon="7.874101">
        <ele>282.671226</ele>
        <time>2021-11-20T19:48:49.209Z</time>
      </trkpt>
      <trkpt lat="47.591105" lon="7.873760">
        <ele>282.517278</ele>
        <time>2021-11-20T19:48:52.397Z</time>
      </trkpt>
      <trkpt lat="47.591074" lon="7.872343">
        <ele>281.883476</ele>
        <time>2021-11-20T19:49:04.887Z</time>
      </trkpt>
      <trkpt lat="47.590993" lon="7.871168">
        <ele>281.377057</ele>
        <time>2021-11-20T19:49:14.824Z</time>
      </trkpt>
      <trkpt lat="47.590885" lon="7.870375">
        <ele>281.087727</ele>
        <time>2021-11-20T19:49:21.643Z</time>
      </trkpt>
      <trkpt lat="47.590882" lon="7.870356">
        <ele>281.080748</ele>
        <time>2021-11-20T19:49:21.825Z</time>
      </trkpt>
      <trkpt lat="47.590872" lon="7.870300">
        <ele>281.060030</ele>
        <time>2021-11-20T19:49:22.409Z</time>
      </trkpt>
      <trkpt lat="47.590870" lon="7.870288">
        <ele>281.055610</ele>
        <time>2021-11-20T19:49:22.556Z</time>
      </trkpt>
      <trkpt lat="47.590773" lon="7.869984">
        <ele>280.935334</ele>
        <time>2021-11-20T19:49:25.455Z</time>
      </trkpt>
      <trkpt lat="47.590705" lon="7.869768">
        <ele>280.850083</ele>
        <time>2021-11-20T19:49:27.675Z</time>
      </trkpt>
      <trkpt lat="47.590470" lon="7.869069">
        <ele>280.570755</ele>
        <time>2021-11-20T19:49:34.706Z</time>
      </trkpt>
      <trkpt lat="47.590421" lon="7.868927">
        <ele>280.513709</ele>
        <time>2021-11-20T19:49:36.173Z</time>
      </trkpt>
      <trkpt lat="47.590348" lon="7.868680">
        <ele>280.546601</ele>
        <time>2021-11-20T19:49:39.047Z</time>
      </trkpt>
      <trkpt lat="47.590292" lon="7.868520">
        <ele>280.572379</ele>
        <time>2021-11-20T19:49:40.675Z</time>
      </trkpt>
      <trkpt lat="47.590365" lon="7.868441">
        <ele>280.591541</ele>
        <time>2021-11-20T19:49:42.065Z</time>
      </trkpt>
      <trkpt lat="47.590348" lon="7.868400">
        <ele>280.598424</ele>
        <time>2021-11-20T19:49:42.730Z</time>
      </trkpt>
      <trkpt lat="47.590333" lon="7.867008">
        <ele>280.797507</ele>
        <time>2021-11-20T19:49:57.723Z</time>
      </trkpt>
      <trkpt lat="47.590274" lon="7.866644">
        <ele>280.851041</ele>
        <time>2021-11-20T19:50:02.222Z</time>
      </trkpt>
      <trkpt lat="47.590266" lon="7.866595">
        <ele>280.858251</ele>
        <time>2021-11-20T19:50:02.759Z</time>
      </trkpt>
      <trkpt lat="47.590251" lon="7.866509">
        <ele>280.870954</ele>
        <time>2021-11-20T19:50:03.637Z</time>
      </trkpt>
      <trkpt lat="47.589823" lon="7.864422">
        <ele>281.154989</ele>
        <time>2021-11-20T19:50:26.908Z</time>
      </trkpt>
      <trkpt lat="47.589471" lon="7.862994">
        <ele>281.190683</ele>
        <time>2021-11-20T19:50:41.653Z</time>
      </trkpt>
      <trkpt lat="47.587447" lon="7.853842">
        <ele>280.784196</ele>
        <time>2021-11-20T19:52:16.302Z</time>
      </trkpt>
      <trkpt lat="47.587300" lon="7.853345">
        <ele>280.833999</ele>
        <time>2021-11-20T19:52:21.872Z</time>
      </trkpt>
      <trkpt lat="47.586757" lon="7.850579">
        <ele>281.273819</ele>
        <time>2021-11-20T19:52:52.628Z</time>
      </trkpt>
      <trkpt lat="47.586522" lon="7.848600">
        <ele>281.743500</ele>
        <time>2021-11-20T19:53:14.779Z</time>
      </trkpt>
      <trkpt lat="47.586484" lon="7.848370">
        <ele>281.779845</ele>
        <time>2021-11-20T19:53:17.429Z</time>
      </trkpt>
      <trkpt lat="47.586486" lon="7.847936">
        <ele>281.838948</ele>
        <time>2021-11-20T19:53:22.139Z</time>
      </trkpt>
      <trkpt lat="47.586452" lon="7.845634">
        <ele>282.101501</ele>
        <time>2021-11-20T19:53:46.396Z</time>
      </trkpt>
      <trkpt lat="47.586790" lon="7.842637">
        <ele>281.854328</ele>
        <time>2021-11-20T19:54:15.689Z</time>
      </trkpt>
      <trkpt lat="47.586802" lon="7.842180">
        <ele>281.774351</ele>
        <time>2021-11-20T19:54:19.966Z</time>
      </trkpt>
      <trkpt lat="47.586809" lon="7.842018">
        <ele>281.745964</ele>
        <time>2021-11-20T19:54:21.469Z</time>
      </trkpt>
      <trkpt lat="47.586920" lon="7.841604">
        <ele>281.668057</ele>
        <time>2021-11-20T19:54:25.641Z</time>
      </trkpt>
      <trkpt lat="47.587628" lon="7.835942">
        <ele>280.488843</ele>
        <time>2021-11-20T19:55:19.050Z</time>
      </trkpt>
      <trkpt lat="47.587848" lon="7.834235">
        <ele>280.182825</ele>
        <time>2021-11-20T19:55:34.909Z</time>
      </trkpt>
      <trkpt lat="47.586496" lon="7.833050">
        <ele>280.838981</ele>
        <time>2021-11-20T19:55:57.275Z</time>
      </trkpt>
      <trkpt lat="47.586276" lon="7.833601">
        <ele>281.501890</ele>
        <time>2021-11-20T19:56:05.528Z</time>
      </trkpt>
      <trkpt lat="47.585278" lon="7.832688">
        <ele>284.213094</ele>
        <time>2021-11-20T19:56:37.078Z</time>
      </trkpt>
      <trkpt lat="47.585247" lon="7.832651">
        <ele>284.368191</ele>
        <time>2021-11-20T19:56:38.337Z</time>
      </trkpt>
      <trkpt lat="47.585195" lon="7.832588">
        <ele>284.629903</ele>
        <time>2021-11-20T19:56:40.463Z</time>
      </trkpt>
      <trkpt lat="47.585027" lon="7.832425">
        <ele>285.412369</ele>
        <time>2021-11-20T19:56:45.950Z</time>
      </trkpt>
      <trkpt lat="47.584717" lon="7.832264">
        <ele>286.692480</ele>
        <time>2021-11-20T19:56:55.551Z</time>
      </trkpt>
      <trkpt lat="47.584658" lon="7.832261">
        <ele>286.922550</ele>
        <time>2021-11-20T19:56:57.320Z</time>
      </trkpt>
      <trkpt lat="47.584427" lon="7.832250">
        <ele>287.823265</ele>
        <time>2021-11-20T19:57:04.465Z</time>
      </trkpt>
      <trkpt lat="47.584367" lon="7.832247">
        <ele>288.057229</ele>
        <time>2021-11-20T19:57:06.652Z</time>
      </trkpt>
      <trkpt lat="47.584156" lon="7.832334">
        <ele>288.910746</ele>
        <time>2021-11-20T19:57:14.323Z</time>
      </trkpt>
      <trkpt lat="47.584029" lon="7.832543">
        <ele>289.650207</ele>
        <time>2021-11-20T19:57:21.176Z</time>
      </trkpt>
      <trkpt lat="47.583849" lon="7.832883">
        <ele>290.654932</ele>
        <time>2021-11-20T19:57:31.446Z</time>
      </trkpt>
      <trkpt lat="47.583696" lon="7.833171">
        <ele>291.499878</ele>
        <time>2021-11-20T19:57:40.145Z</time>
      </trkpt>
      <trkpt lat="47.583523" lon="7.833509">
        <ele>292.477802</ele>
        <time>2021-11-20T19:57:48.681Z</time>
      </trkpt>
      <trkpt lat="47.583401" lon="7.833658">
        <ele>293.017915</ele>
        <time>2021-11-20T19:57:52.428Z</time>
      </trkpt>
      <trkpt lat="47.583327" lon="7.833750">
        <ele>293.347915</ele>
        <time>2021-11-20T19:57:55.648Z</time>
      </trkpt>
      <trkpt lat="47.583163" lon="7.833942">
        <ele>294.061966</ele>
        <time>2021-11-20T19:58:01.141Z</time>
      </trkpt>
      <trkpt lat="47.582828" lon="7.834117">
        <ele>295.275647</ele>
        <time>2021-11-20T19:58:09.588Z</time>
      </trkpt>
      <trkpt lat="47.580816" lon="7.834599">
        <ele>298.672406</ele>
        <time>2021-11-20T19:58:53.468Z</time>
      </trkpt>
      <trkpt lat="47.580667" lon="7.834627">
        <ele>298.684306</ele>
        <time>2021-11-20T19:58:55.849Z</time>
      </trkpt>
      <trkpt lat="47.579073" lon="7.834987">
        <ele>298.772711</ele>
        <time>2021-11-20T19:59:19.810Z</time>
      </trkpt>
      <trkpt lat="47.576219" lon="7.835650">
        <ele>295.429172</ele>
        <time>2021-11-20T19:59:53.470Z</time>
      </trkpt>
      <trkpt lat="47.575959" lon="7.835718">
        <ele>295.141134</ele>
        <time>2021-11-20T19:59:56.626Z</time>
      </trkpt>
      <trkpt lat="47.575033" lon="7.835907">
        <ele>294.699731</ele>
        <time>2021-11-20T20:00:09.079Z</time>
      </trkpt>
      <trkpt lat="47.574568" lon="7.836025">
        <ele>294.708693</ele>
        <time>2021-11-20T20:00:16.066Z</time>
      </trkpt>
      <trkpt lat="47.574158" lon="7.836106">
        <ele>294.716551</ele>
        <time>2021-11-20T20:00:22.739Z</time>
      </trkpt>
      <trkpt lat="47.573815" lon="7.836215">
        <ele>294.723215</ele>
        <time>2021-11-20T20:00:30.418Z</time>
      </trkpt>
      <trkpt lat="47.573348" lon="7.836386">
        <ele>294.944056</ele>
        <time>2021-11-20T20:00:41.270Z</time>
      </trkpt>
      <trkpt lat="47.572760" lon="7.836606">
        <ele>295.247592</ele>
        <time>2021-11-20T20:00:54.881Z</time>
      </trkpt>
      <trkpt lat="47.572296" lon="7.836777">
        <ele>295.486903</ele>
        <time>2021-11-20T20:01:05.306Z</time>
      </trkpt>
      <trkpt lat="47.572139" lon="7.836834">
        <ele>295.567808</ele>
        <time>2021-11-20T20:01:08.792Z</time>
      </trkpt>
      <trkpt lat="47.571871" lon="7.836932">
        <ele>295.789898</ele>
        <time>2021-11-20T20:01:14.829Z</time>
      </trkpt>
      <trkpt lat="47.571771" lon="7.836971">
        <ele>295.894814</ele>
        <time>2021-11-20T20:01:17.066Z</time>
      </trkpt>
      <trkpt lat="47.571254" lon="7.837161">
        <ele>296.435256</ele>
        <time>2021-11-20T20:01:29.516Z</time>
      </trkpt>
      <trkpt lat="47.570985" lon="7.837265">
        <ele>296.717321</ele>
        <time>2021-11-20T20:01:36.470Z</time>
      </trkpt>
      <trkpt lat="47.570872" lon="7.837307">
        <ele>296.835523</ele>
        <time>2021-11-20T20:01:39.486Z</time>
      </trkpt>
      <trkpt lat="47.570298" lon="7.837528">
        <ele>297.437244</ele>
        <time>2021-11-20T20:01:54.808Z</time>
      </trkpt>
      <trkpt lat="47.570038" lon="7.837643">
        <ele>297.817501</ele>
        <time>2021-11-20T20:02:01.931Z</time>
      </trkpt>
      <trkpt lat="47.569907" lon="7.837696">
        <ele>298.010193</ele>
        <time>2021-11-20T20:02:05.452Z</time>
      </trkpt>
      <trkpt lat="47.569814" lon="7.837733">
        <ele>298.146834</ele>
        <time>2021-11-20T20:02:08.014Z</time>
      </trkpt>
      <trkpt lat="47.569665" lon="7.837789">
        <ele>298.364959</ele>
        <time>2021-11-20T20:02:11.978Z</time>
      </trkpt>
      <trkpt lat="47.569522" lon="7.837844">
        <ele>298.574599</ele>
        <time>2021-11-20T20:02:15.833Z</time>
      </trkpt>
      <trkpt lat="47.569310" lon="7.837922">
        <ele>298.884561</ele>
        <time>2021-11-20T20:02:21.580Z</time>
      </trkpt>
      <trkpt lat="47.568988" lon="7.838054">
        <ele>299.358639</ele>
        <time>2021-11-20T20:02:30.357Z</time>
      </trkpt>
      <trkpt lat="47.568420" lon="7.838300">
        <ele>300.119199</ele>
        <time>2021-11-20T20:02:45.615Z</time>
      </trkpt>
      <trkpt lat="47.568160" lon="7.838415">
        <ele>300.349412</ele>
        <time>2021-11-20T20:02:52.374Z</time>
      </trkpt>
      <trkpt lat="47.568042" lon="7.838436">
        <ele>300.450250</ele>
        <time>2021-11-20T20:02:55.119Z</time>
      </trkpt>
      <trkpt lat="47.567936" lon="7.838380">
        <ele>300.545729</ele>
        <time>2021-11-20T20:02:57.939Z</time>
      </trkpt>
      <trkpt lat="47.567846" lon="7.838609">
        <ele>300.697443</ele>
        <time>2021-11-20T20:03:00.820Z</time>
      </trkpt>
      <trkpt lat="47.567823" lon="7.838648">
        <ele>300.727096</ele>
        <time>2021-11-20T20:03:01.436Z</time>
      </trkpt>
      <trkpt lat="47.567634" lon="7.839037">
        <ele>301.001516</ele>
        <time>2021-11-20T20:03:06.893Z</time>
      </trkpt>
      <trkpt lat="47.567626" lon="7.839064">
        <ele>301.018397</ele>
        <time>2021-11-20T20:03:07.284Z</time>
      </trkpt>
      <trkpt lat="47.567564" lon="7.839283">
        <ele>301.154358</ele>
        <time>2021-11-20T20:03:10.165Z</time>
      </trkpt>
      <trkpt lat="47.567530" lon="7.839459">
        <ele>301.259161</ele>
        <time>2021-11-20T20:03:12.276Z</time>
      </trkpt>
      <trkpt lat="47.567510" lon="7.839548">
        <ele>301.312863</ele>
        <time>2021-11-20T20:03:13.327Z</time>
      </trkpt>
      <trkpt lat="47.567481" lon="7.839664">
        <ele>301.383682</ele>
        <time>2021-11-20T20:03:14.572Z</time>
      </trkpt>
      <trkpt lat="47.567406" lon="7.839778">
        <ele>301.474833</ele>
        <time>2021-11-20T20:03:16.903Z</time>
      </trkpt>
      <trkpt lat="47.567179" lon="7.839947">
        <ele>301.700894</ele>
        <time>2021-11-20T20:03:21.095Z</time>
      </trkpt>
      <trkpt lat="47.567111" lon="7.839998">
        <ele>301.769738</ele>
        <time>2021-11-20T20:03:22.827Z</time>
      </trkpt>
      <trkpt lat="47.566964" lon="7.840091">
        <ele>301.914119</ele>
        <time>2021-11-20T20:03:25.666Z</time>
      </trkpt>
      <trkpt lat="47.566826" lon="7.840179">
        <ele>302.049827</ele>
        <time>2021-11-20T20:03:28.182Z</time>
      </trkpt>
      <trkpt lat="47.566592" lon="7.840279">
        <ele>302.269817</ele>
        <time>2021-11-20T20:03:32.855Z</time>
      </trkpt>
      <trkpt lat="47.566515" lon="7.840312">
        <ele>302.342223</ele>
        <time>2021-11-20T20:03:34.052Z</time>
      </trkpt>
      <trkpt lat="47.566450" lon="7.840326">
        <ele>302.401556</ele>
        <time>2021-11-20T20:03:35.436Z</time>
      </trkpt>
      <trkpt lat="47.566350" lon="7.840350">
        <ele>302.493066</ele>
        <time>2021-11-20T20:03:37.414Z</time>
      </trkpt>
      <trkpt lat="47.566221" lon="7.840340">
        <ele>302.609754</ele>
        <time>2021-11-20T20:03:39.605Z</time>
      </trkpt>
      <trkpt lat="47.566142" lon="7.840322">
        <ele>302.681955</ele>
        <time>2021-11-20T20:03:40.773Z</time>
      </trkpt>
      <trkpt lat="47.566081" lon="7.840309">
        <ele>302.737625</ele>
        <time>2021-11-20T20:03:42.165Z</time>
      </trkpt>
      <trkpt lat="47.565906" lon="7.840272">
        <ele>302.897308</ele>
        <time>2021-11-20T20:03:45.549Z</time>
      </trkpt>
      <trkpt lat="47.565343" lon="7.840185">
        <ele>303.483269</ele>
        <time>2021-11-20T20:03:56.347Z</time>
      </trkpt>
      <trkpt lat="47.565233" lon="7.840176">
        <ele>303.611765</ele>
        <time>2021-11-20T20:03:58.684Z</time>
      </trkpt>
      <trkpt lat="47.565168" lon="7.840179">
        <ele>303.687616</ele>
        <time>2021-11-20T20:04:00.060Z</time>
      </trkpt>
      <trkpt lat="47.565057" lon="7.840213">
        <ele>303.819819</ele>
        <time>2021-11-20T20:04:02.303Z</time>
      </trkpt>
      <trkpt lat="47.564936" lon="7.840261">
        <ele>303.965917</ele>
        <time>2021-11-20T20:04:05.019Z</time>
      </trkpt>
      <trkpt lat="47.564558" lon="7.840516">
        <ele>304.450331</ele>
        <time>2021-11-20T20:04:13.301Z</time>
      </trkpt>
      <trkpt lat="47.564534" lon="7.840532">
        <ele>304.481026</ele>
        <time>2021-11-20T20:04:13.799Z</time>
      </trkpt>
      <trkpt lat="47.564463" lon="7.840580">
        <ele>304.572047</ele>
        <time>2021-11-20T20:04:15.413Z</time>
      </trkpt>
      <trkpt lat="47.564094" lon="7.840838">
        <ele>305.047930</ele>
        <time>2021-11-20T20:04:23.082Z</time>
      </trkpt>
      <trkpt lat="47.563986" lon="7.840916">
        <ele>305.188060</ele>
        <time>2021-11-20T20:04:25.365Z</time>
      </trkpt>
      <trkpt lat="47.563941" lon="7.840948">
        <ele>305.246276</ele>
        <time>2021-11-20T20:04:26.290Z</time>
      </trkpt>
      <trkpt lat="47.563805" lon="7.841046">
        <ele>305.405786</ele>
        <time>2021-11-20T20:04:29.103Z</time>
      </trkpt>
      <trkpt lat="47.563659" lon="7.841150">
        <ele>305.576238</ele>
        <time>2021-11-20T20:04:31.988Z</time>
      </trkpt>
      <trkpt lat="47.563483" lon="7.841269">
        <ele>305.779797</ele>
        <time>2021-11-20T20:04:35.724Z</time>
      </trkpt>
      <trkpt lat="47.563300" lon="7.841391">
        <ele>305.990943</ele>
        <time>2021-11-20T20:04:39.276Z</time>
      </trkpt>
      <trkpt lat="47.563016" lon="7.841568">
        <ele>306.315131</ele>
        <time>2021-11-20T20:04:45.135Z</time>
      </trkpt>
      <trkpt lat="47.562965" lon="7.841597">
        <ele>306.372610</ele>
        <time>2021-11-20T20:04:46.111Z</time>
      </trkpt>
      <trkpt lat="47.562904" lon="7.841632">
        <ele>306.441439</ele>
        <time>2021-11-20T20:04:47.352Z</time>
      </trkpt>
      <trkpt lat="47.562574" lon="7.841873">
        <ele>306.828552</ele>
        <time>2021-11-20T20:04:54.317Z</time>
      </trkpt>
      <trkpt lat="47.562440" lon="7.842083">
        <ele>307.033770</ele>
        <time>2021-11-20T20:04:57.929Z</time>
      </trkpt>
      <trkpt lat="47.562385" lon="7.842183">
        <ele>307.125372</ele>
        <time>2021-11-20T20:04:59.492Z</time>
      </trkpt>
      <trkpt lat="47.562300" lon="7.842326">
        <ele>307.286163</ele>
        <time>2021-11-20T20:05:02.401Z</time>
      </trkpt>
      <trkpt lat="47.562179" lon="7.842500">
        <ele>307.501928</ele>
        <time>2021-11-20T20:05:05.873Z</time>
      </trkpt>
      <trkpt lat="47.561498" lon="7.843130">
        <ele>308.529292</ele>
        <time>2021-11-20T20:05:22.581Z</time>
      </trkpt>
      <trkpt lat="47.561434" lon="7.843181">
        <ele>308.622285</ele>
        <time>2021-11-20T20:05:24.384Z</time>
      </trkpt>
      <trkpt lat="47.561038" lon="7.843502">
        <ele>309.199916</ele>
        <time>2021-11-20T20:05:33.085Z</time>
      </trkpt>
      <trkpt lat="47.560934" lon="7.843550">
        <ele>309.339313</ele>
        <time>2021-11-20T20:05:35.240Z</time>
      </trkpt>
      <trkpt lat="47.560812" lon="7.843560">
        <ele>309.457856</ele>
        <time>2021-11-20T20:05:37.483Z</time>
      </trkpt>
      <trkpt lat="47.560515" lon="7.843379">
        <ele>309.564569</ele>
        <time>2021-11-20T20:05:43.220Z</time>
      </trkpt>
      <trkpt lat="47.560430" lon="7.843341">
        <ele>309.594072</ele>
        <time>2021-11-20T20:05:45.022Z</time>
      </trkpt>
      <trkpt lat="47.560338" lon="7.843341">
        <ele>309.624644</ele>
        <time>2021-11-20T20:05:46.245Z</time>
      </trkpt>
      <trkpt lat="47.560209" lon="7.843393">
        <ele>309.669069</ele>
        <time>2021-11-20T20:05:48.720Z</time>
      </trkpt>
      <trkpt lat="47.560139" lon="7.843433">
        <ele>309.693999</ele>
        <time>2021-11-20T20:05:50.039Z</time>
      </trkpt>
      <trkpt lat="47.559847" lon="7.843604">
        <ele>309.798334</ele>
        <time>2021-11-20T20:05:55.208Z</time>
      </trkpt>
      <trkpt lat="47.559583" lon="7.843813">
        <ele>309.897796</ele>
        <time>2021-11-20T20:05:59.698Z</time>
      </trkpt>
      <trkpt lat="47.559158" lon="7.844233">
        <ele>310.031875</ele>
        <time>2021-11-20T20:06:06.907Z</time>
      </trkpt>
      <trkpt lat="47.559109" lon="7.844229">
        <ele>310.025157</ele>
        <time>2021-11-20T20:06:07.474Z</time>
      </trkpt>
      <trkpt lat="47.559060" lon="7.844197">
        <ele>310.017827</ele>
        <time>2021-11-20T20:06:08.133Z</time>
      </trkpt>
      <trkpt lat="47.558884" lon="7.843836">
        <ele>309.976686</ele>
        <time>2021-11-20T20:06:12.285Z</time>
      </trkpt>
      <trkpt lat="47.558555" lon="7.843392">
        <ele>309.915772</ele>
        <time>2021-11-20T20:06:18.321Z</time>
      </trkpt>
      <trkpt lat="47.558471" lon="7.843365">
        <ele>309.904006</ele>
        <time>2021-11-20T20:06:19.578Z</time>
      </trkpt>
      <trkpt lat="47.558405" lon="7.843371">
        <ele>309.894954</ele>
        <time>2021-11-20T20:06:20.747Z</time>
      </trkpt>
      <trkpt lat="47.558136" lon="7.843582">
        <ele>309.853290</ele>
        <time>2021-11-20T20:06:24.955Z</time>
      </trkpt>
      <trkpt lat="47.557967" lon="7.843683">
        <ele>309.828346</ele>
        <time>2021-11-20T20:06:27.673Z</time>
      </trkpt>
      <trkpt lat="47.557967" lon="7.843683">
        <ele>309.828346</ele>
        <time>2021-11-20T20:06:27.678Z</time>
      </trkpt>
      <trkpt lat="47.557967" lon="7.843683">
        <ele>309.828346</ele>
        <time>2021-11-20T20:06:27.751Z</time>
      </trkpt>
      <trkpt lat="47.557846" lon="7.843756">
        <ele>309.810462</ele>
        <time>2021-11-20T20:06:29.598Z</time>
      </trkpt>
      <trkpt lat="47.557759" lon="7.843839">
        <ele>309.796298</ele>
        <time>2021-11-20T20:06:31.375Z</time>
      </trkpt>
      <trkpt lat="47.557715" lon="7.843940">
        <ele>309.833778</ele>
        <time>2021-11-20T20:06:32.604Z</time>
      </trkpt>
      <trkpt lat="47.557560" lon="7.844433">
        <ele>310.007985</ele>
        <time>2021-11-20T20:06:38.563Z</time>
      </trkpt>
      <trkpt lat="47.557282" lon="7.844832">
        <ele>310.191679</ele>
        <time>2021-11-20T20:06:44.996Z</time>
      </trkpt>
      <trkpt lat="47.557134" lon="7.845095">
        <ele>310.301365</ele>
        <time>2021-11-20T20:06:48.771Z</time>
      </trkpt>
      <trkpt lat="47.556636" lon="7.845928">
        <ele>310.667468</ele>
        <time>2021-11-20T20:07:01.621Z</time>
      </trkpt>
      <trkpt lat="47.556060" lon="7.846859">
        <ele>311.556320</ele>
        <time>2021-11-20T20:07:17.748Z</time>
      </trkpt>
      <trkpt lat="47.555990" lon="7.846965">
        <ele>311.660690</ele>
        <time>2021-11-20T20:07:19.732Z</time>
      </trkpt>
      <trkpt lat="47.555966" lon="7.846932">
        <ele>311.694833</ele>
        <time>2021-11-20T20:07:20.320Z</time>
      </trkpt>
      <trkpt lat="47.555892" lon="7.846856">
        <ele>311.788723</ele>
        <time>2021-11-20T20:07:21.875Z</time>
      </trkpt>
      <trkpt lat="47.555855" lon="7.846815">
        <ele>311.836903</ele>
        <time>2021-11-20T20:07:22.785Z</time>
      </trkpt>
      <trkpt lat="47.555727" lon="7.846715">
        <ele>311.987797</ele>
        <time>2021-11-20T20:07:25.788Z</time>
      </trkpt>
      <trkpt lat="47.555199" lon="7.846687">
        <ele>312.543195</ele>
        <time>2021-11-20T20:07:35.754Z</time>
      </trkpt>
      <trkpt lat="47.555068" lon="7.846672">
        <ele>312.725815</ele>
        <time>2021-11-20T20:07:38.618Z</time>
      </trkpt>
      <trkpt lat="47.554995" lon="7.846915">
        <ele>312.975317</ele>
        <time>2021-11-20T20:07:42.341Z</time>
      </trkpt>
      <trkpt lat="47.554892" lon="7.847148">
        <ele>313.236589</ele>
        <time>2021-11-20T20:07:46.311Z</time>
      </trkpt>
      <trkpt lat="47.554759" lon="7.847388">
        <ele>313.527886</ele>
        <time>2021-11-20T20:07:50.632Z</time>
      </trkpt>
      <trkpt lat="47.554618" lon="7.847626">
        <ele>313.824951</ele>
        <time>2021-11-20T20:07:55.191Z</time>
      </trkpt>
      <trkpt lat="47.554465" lon="7.847858">
        <ele>314.129224</ele>
        <time>2021-11-20T20:07:59.826Z</time>
      </trkpt>
      <trkpt lat="47.554351" lon="7.848049">
        <ele>314.368401</ele>
        <time>2021-11-20T20:08:03.121Z</time>
      </trkpt>
      <trkpt lat="47.554269" lon="7.848188">
        <ele>314.541578</ele>
        <time>2021-11-20T20:08:05.611Z</time>
      </trkpt>
      <trkpt lat="47.554209" lon="7.848300">
        <ele>314.675713</ele>
        <time>2021-11-20T20:08:07.752Z</time>
      </trkpt>
      <trkpt lat="47.554055" lon="7.848586">
        <ele>315.018917</ele>
        <time>2021-11-20T20:08:12.551Z</time>
      </trkpt>
      <trkpt lat="47.553725" lon="7.849291">
        <ele>315.952077</ele>
        <time>2021-11-20T20:08:23.926Z</time>
      </trkpt>
      <trkpt lat="47.553605" lon="7.849629">
        <ele>316.367923</ele>
        <time>2021-11-20T20:08:29.445Z</time>
      </trkpt>
      <trkpt lat="47.553537" lon="7.849904">
        <ele>316.686820</ele>
        <time>2021-11-20T20:08:33.511Z</time>
      </trkpt>
      <trkpt lat="47.553380" lon="7.850453">
        <ele>317.336048</ele>
        <time>2021-11-20T20:08:42.414Z</time>
      </trkpt>
      <trkpt lat="47.553344" lon="7.850525">
        <ele>317.433616</ele>
        <time>2021-11-20T20:08:43.718Z</time>
      </trkpt>
      <trkpt lat="47.553283" lon="7.850634">
        <ele>317.587796</ele>
        <time>2021-11-20T20:08:45.784Z</time>
      </trkpt>
      <trkpt lat="47.552876" lon="7.851300">
        <ele>319.083005</ele>
        <time>2021-11-20T20:08:59.594Z</time>
      </trkpt>
      <trkpt lat="47.552678" lon="7.851709">
        <ele>320.074480</ele>
        <time>2021-11-20T20:09:08.263Z</time>
      </trkpt>
      <trkpt lat="47.552449" lon="7.852231">
        <ele>321.300853</ele>
        <time>2021-11-20T20:09:19.767Z</time>
      </trkpt>
      <trkpt lat="47.552272" lon="7.852167">
        <ele>321.832607</ele>
        <time>2021-11-20T20:09:25.168Z</time>
      </trkpt>
      <trkpt lat="47.552097" lon="7.852063">
        <ele>322.382918</ele>
        <time>2021-11-20T20:09:30.415Z</time>
      </trkpt>
      <trkpt lat="47.552042" lon="7.852007">
        <ele>322.577690</ele>
        <time>2021-11-20T20:09:32.815Z</time>
      </trkpt>
      <trkpt lat="47.551925" lon="7.851845">
        <ele>323.045066</ele>
        <time>2021-11-20T20:09:37.080Z</time>
      </trkpt>
      <trkpt lat="47.551830" lon="7.851603">
        <ele>323.616656</ele>
        <time>2021-11-20T20:09:42.902Z</time>
      </trkpt>
      <trkpt lat="47.551660" lon="7.851725">
        <ele>324.194376</ele>
        <time>2021-11-20T20:09:48.136Z</time>
      </trkpt>
      <trkpt lat="47.551516" lon="7.851950">
        <ele>324.834444</ele>
        <time>2021-11-20T20:09:54.694Z</time>
      </trkpt>
      <trkpt lat="47.550221" lon="7.853833">
        <ele>329.423575</ele>
        <time>2021-11-20T20:10:41.986Z</time>
      </trkpt>
      <trkpt lat="47.549883" lon="7.854434">
        <ele>330.129485</ele>
        <time>2021-11-20T20:10:52.106Z</time>
      </trkpt>
      <trkpt lat="47.549566" lon="7.855225">
        <ele>330.959597</ele>
        <time>2021-11-20T20:11:05.965Z</time>
      </trkpt>
      <trkpt lat="47.549362" lon="7.855774">
        <ele>331.075324</ele>
        <time>2021-11-20T20:11:14.454Z</time>
      </trkpt>
      <trkpt lat="47.548887" lon="7.857308">
        <ele>331.050711</ele>
        <time>2021-11-20T20:11:36.562Z</time>
      </trkpt>
      <trkpt lat="47.548743" lon="7.857692">
        <ele>331.044305</ele>
        <time>2021-11-20T20:11:42.534Z</time>
      </trkpt>
      <trkpt lat="47.548701" lon="7.857893">
        <ele>331.123808</ele>
        <time>2021-11-20T20:11:45.505Z</time>
      </trkpt>
      <trkpt lat="47.548686" lon="7.857973">
        <ele>331.164627</ele>
        <time>2021-11-20T20:11:46.628Z</time>
      </trkpt>
      <trkpt lat="47.548611" lon="7.858381">
        <ele>331.372511</ele>
        <time>2021-11-20T20:11:52.842Z</time>
      </trkpt>
      <trkpt lat="47.548334" lon="7.859801">
        <ele>332.099176</ele>
        <time>2021-11-20T20:12:15.880Z</time>
      </trkpt>
      <trkpt lat="47.548049" lon="7.860929">
        <ele>333.131745</ele>
        <time>2021-11-20T20:12:36.898Z</time>
      </trkpt>
      <trkpt lat="47.547930" lon="7.861711">
        <ele>334.039945</ele>
        <time>2021-11-20T20:12:51.662Z</time>
      </trkpt>
      <trkpt lat="47.547568" lon="7.863151">
        <ele>335.556065</ele>
        <time>2021-11-20T20:13:20.790Z</time>
      </trkpt>
      <trkpt lat="47.547320" lon="7.863864">
        <ele>335.964300</ele>
        <time>2021-11-20T20:13:34.730Z</time>
      </trkpt>
      <trkpt lat="47.546974" lon="7.864423">
        <ele>336.350320</ele>
        <time>2021-11-20T20:13:45.553Z</time>
      </trkpt>
      <trkpt lat="47.546885" lon="7.864500">
        <ele>336.428034</ele>
        <time>2021-11-20T20:13:48.638Z</time>
      </trkpt>
      <trkpt lat="47.546894" lon="7.864837">
        <ele>336.599689</ele>
        <time>2021-11-20T20:13:52.522Z</time>
      </trkpt>
      <trkpt lat="47.546889" lon="7.865225">
        <ele>336.650859</ele>
        <time>2021-11-20T20:13:57.947Z</time>
      </trkpt>
      <trkpt lat="47.546819" lon="7.865489">
        <ele>336.485728</ele>
        <time>2021-11-20T20:14:01.891Z</time>
      </trkpt>
      <trkpt lat="47.546510" lon="7.865766">
        <ele>336.174218</ele>
        <time>2021-11-20T20:14:08.525Z</time>
      </trkpt>
      <trkpt lat="47.546327" lon="7.865959">
        <ele>335.980468</ele>
        <time>2021-11-20T20:14:12.040Z</time>
      </trkpt>
      <trkpt lat="47.546096" lon="7.866147">
        <ele>335.753142</ele>
        <time>2021-11-20T20:14:16.596Z</time>
      </trkpt>
      <trkpt lat="47.545240" lon="7.866887">
        <ele>335.356947</ele>
        <time>2021-11-20T20:14:33.270Z</time>
      </trkpt>
      <trkpt lat="47.545160" lon="7.866985">
        <ele>335.414454</ele>
        <time>2021-11-20T20:14:35.226Z</time>
      </trkpt>
      <trkpt lat="47.545003" lon="7.867278">
        <ele>335.554344</ele>
        <time>2021-11-20T20:14:40.894Z</time>
      </trkpt>
      <trkpt lat="47.544568" lon="7.867693">
        <ele>335.840971</ele>
        <time>2021-11-20T20:14:53.685Z</time>
      </trkpt>
      <trkpt lat="47.544469" lon="7.867776">
        <ele>335.903988</ele>
        <time>2021-11-20T20:14:56.547Z</time>
      </trkpt>
      <trkpt lat="47.544410" lon="7.867825">
        <ele>335.941458</ele>
        <time>2021-11-20T20:14:58.635Z</time>
      </trkpt>
      <trkpt lat="47.544246" lon="7.867967">
        <ele>336.046691</ele>
        <time>2021-11-20T20:15:03.319Z</time>
      </trkpt>
      <trkpt lat="47.544214" lon="7.867988">
        <ele>336.066080</ele>
        <time>2021-11-20T20:15:04.167Z</time>
      </trkpt>
      <trkpt lat="47.543801" lon="7.868269">
        <ele>336.173994</ele>
        <time>2021-11-20T20:15:15.757Z</time>
      </trkpt>
      <trkpt lat="47.543657" lon="7.868359">
        <ele>336.173994</ele>
        <time>2021-11-20T20:15:20.120Z</time>
      </trkpt>
      <trkpt lat="47.543201" lon="7.868657">
        <ele>336.173994</ele>
        <time>2021-11-20T20:15:30.555Z</time>
      </trkpt>
      <trkpt lat="47.543105" lon="7.868711">
        <ele>336.173994</ele>
        <time>2021-11-20T20:15:33.192Z</time>
      </trkpt>
      <trkpt lat="47.543049" lon="7.868759">
        <ele>336.173994</ele>
        <time>2021-11-20T20:15:34.576Z</time>
      </trkpt>
      <trkpt lat="47.542722" lon="7.869201">
        <ele>336.173994</ele>
        <time>2021-11-20T20:15:44.180Z</time>
      </trkpt>
      <trkpt lat="47.542696" lon="7.869257">
        <ele>336.173994</ele>
        <time>2021-11-20T20:15:44.925Z</time>
      </trkpt>
      <trkpt lat="47.542657" lon="7.869354">
        <ele>336.173994</ele>
        <time>2021-11-20T20:15:46.334Z</time>
      </trkpt>
      <trkpt lat="47.542646" lon="7.869369">
        <ele>336.173994</ele>
        <time>2021-11-20T20:15:46.649Z</time>
      </trkpt>
      <trkpt lat="47.542518" lon="7.869545">
        <ele>336.173994</ele>
        <time>2021-11-20T20:15:50.112Z</time>
      </trkpt>
    </trkseg>
  </trk>
</gpx>